[[{"header":{"parameterUnit":"m.s-1","parameterCategory":1,"la1":30.6,"la2":29.2853,"lo1":-89.7004,"lo2":-87.6739,"dy":0.0162,"dx":0.0183,"nx":112,"ny":82,"refTime":"2023-06-25T12:00:00:Z","depth":0,"parameterNumber":2,"parameterNumberName":"U-component_of_WINDS"},"data":[0.0,0.0,0.0,0.0,0.0,0.0,0.0,0.0,0.0,0.0,0.0,0.0,0.0,0.0,0.0,0.0,0.0,0.0,0.0,0.0,0.0,0.0,0.0,0.0,0.0,0.0,0.0,0.0,0.0,0.0,0.0,0.0,0.0,0.0,0.0,0.0,0.0,0.0,0.0,0.0,0.0,0.0,0.0,0.0,0.0,0.0,0.0,0.0,0.0,0.0,0.0,0.0,0.0,0.0,0.0,0.0,0.0,0.0,0.0,0.0,0.0,0.0,0.0,0.0,0.0,0.0,0.0,0.0,0.0,0.0,0.0,0.0,0.0,0.0,0.0,0.0,0.0,0.0,0.0,0.0,0.0,0.0,0.0,0.0,0.0,0.0,0.0,0.0,0.0,0.0,0.0,-3.4414,-3.4414,-3.4414,-3.4414,-3.4414,-3.4414,-3.4414,0.0,0.0,0.0,0.0,0.0,0.0,0.0,0.0,0.0,0.0,0.0,0.0,0.0,0.0,0.0,0.0,0.0,0.0,0.0,0.0,0.0,0.0,0.0,0.0,0.0,0.0,0.0,0.0,0.0,0.0,0.0,0.0,0.0,0.0,0.0,0.0,0.0,0.0,0.0,0.0,0.0,0.0,0.0,0.0,0.0,0.0,0.0,0.0,0.0,0.0,0.0,0.0,0.0,0.0,0.0,0.0,0.0,0.0,0.0,0.0,0.0,0.0,0.0,0.0,0.0,0.0,0.0,0.0,0.0,0.0,0.0,0.0,0.0,0.0,0.0,0.0,0.0,0.0,0.0,0.0,0.0,0.0,0.0,0.0,0.0,0.0,0.0,0.0,0.0,0.0,0.0,0.0,0.0,0.0,0.0,0.0,0.0,0.0,0.0,0.0,0.0,0.0,0.0,0.0,-3.4414,-3.4414,-3.4414,-3.4414,-3.4414,-3.4414,-3.4414,-3.4414,0.0,0.0,0.0,0.0,0.0,0.0,0.0,0.0,0.0,0.0,0.0,0.0,0.0,0.0,0.0,0.0,0.0,0.0,0.0,0.0,0.0,0.0,0.0,0.0,0.0,0.0,0.0,0.0,0.0,0.0,0.0,0.0,0.0,0.0,0.0,0.0,0.0,0.0,0.0,0.0,0.0,0.0,0.0,0.0,0.0,0.0,0.0,0.0,0.0,0.0,0.0,0.0,0.0,0.0,0.0,0.0,0.0,0.0,0.0,0.0,0.0,0.0,0.0,0.0,0.0,0.0,0.0,0.0,0.0,0.0,0.0,0.0,0.0,0.0,0.0,0.0,0.0,0.0,0.0,0.0,0.0,0.0,0.0,0.0,0.0,0.0,0.0,0.0,0.0,0.0,0.0,0.0,0.0,0.0,0.0,0.0,0.0,0.0,0.0,0.0,0.0,0.0,0.0,-3.4414,-3.4414,-3.4414,-3.4414,-3.4414,-3.4414,-3.4414,-3.4414,-3.4414,-3.4414,0.0,0.0,0.0,0.0,0.0,0.0,0.0,0.0,0.0,0.0,0.0,0.0,0.0,0.0,0.0,0.0,0.0,0.0,0.0,0.0,0.0,0.0,0.0,0.0,0.0,0.0,0.0,0.0,0.0,0.0,0.0,0.0,0.0,0.0,0.0,0.0,0.0,0.0,0.0,0.0,0.0,0.0,0.0,0.0,0.0,0.0,0.0,0.0,0.0,0.0,0.0,0.0,0.0,0.0,0.0,0.0,0.0,0.0,0.0,0.0,0.0,0.0,0.0,0.0,0.0,0.0,0.0,0.0,0.0,0.0,0.0,0.0,0.0,0.0,0.0,0.0,0.0,0.0,0.0,0.0,0.0,0.0,0.0,0.0,0.0,0.0,0.0,0.0,0.0,0.0,0.0,0.0,0.0,0.0,0.0,0.0,0.0,0.0,0.0,0.0,0.0,0.0,-3.4264,-3.4182,-3.4414,-3.4414,-3.4414,-3.4414,-3.4414,-3.4332,-3.4113,-3.4278,0.0,0.0,0.0,0.0,0.0,0.0,0.0,0.0,0.0,0.0,0.0,0.0,0.0,0.0,0.0,0.0,0.0,0.0,0.0,0.0,0.0,0.0,0.0,0.0,0.0,0.0,0.0,0.0,0.0,0.0,0.0,0.0,0.0,0.0,0.0,0.0,0.0,0.0,0.0,0.0,0.0,0.0,0.0,0.0,0.0,0.0,0.0,0.0,0.0,0.0,0.0,0.0,0.0,0.0,0.0,0.0,0.0,0.0,0.0,0.0,0.0,0.0,0.0,0.0,0.0,0.0,0.0,0.0,0.0,0.0,0.0,0.0,0.0,0.0,0.0,0.0,0.0,0.0,0.0,0.0,0.0,0.0,0.0,0.0,0.0,0.0,0.0,0.0,0.0,0.0,0.0,0.0,0.0,0.0,0.0,0.0,0.0,0.0,0.0,0.0,0.0,0.0,-3.3742,-3.3589,-3.4332,-3.4414,-3.4414,-3.4414,-3.4414,-3.4113,-3.3297,-3.3977,0.0,0.0,0.0,0.0,0.0,0.0,0.0,0.0,0.0,0.0,0.0,0.0,0.0,0.0,0.0,0.0,0.0,0.0,0.0,0.0,0.0,0.0,0.0,0.0,0.0,0.0,0.0,0.0,0.0,0.0,0.0,0.0,0.0,0.0,0.0,0.0,0.0,0.0,0.0,0.0,0.0,0.0,0.0,0.0,0.0,0.0,0.0,0.0,0.0,0.0,0.0,0.0,0.0,0.0,0.0,0.0,0.0,0.0,0.0,0.0,0.0,0.0,0.0,0.0,0.0,0.0,0.0,0.0,0.0,0.0,0.0,0.0,0.0,0.0,0.0,0.0,0.0,0.0,0.0,0.0,0.0,0.0,0.0,0.0,0.0,0.0,0.0,0.0,0.0,0.0,0.0,0.0,0.0,0.0,0.0,0.0,0.0,0.0,0.0,0.0,0.0,0.0,-3.272,-3.2648,0.0,-3.296,-3.296,-3.296,-3.296,-3.2804,-3.2506,0.0,0.0,0.0,0.0,0.0,0.0,0.0,0.0,0.0,0.0,0.0,0.0,0.0,0.0,0.0,0.0,0.0,0.0,0.0,0.0,0.0,0.0,0.0,0.0,0.0,0.0,0.0,0.0,0.0,0.0,0.0,0.0,0.0,0.0,0.0,0.0,0.0,0.0,0.0,0.0,0.0,0.0,0.0,0.0,0.0,0.0,0.0,0.0,0.0,0.0,0.0,0.0,0.0,0.0,0.0,0.0,0.0,0.0,0.0,0.0,0.0,0.0,0.0,0.0,0.0,0.0,0.0,0.0,0.0,0.0,0.0,0.0,0.0,0.0,0.0,0.0,0.0,0.0,0.0,0.0,0.0,0.0,0.0,0.0,0.0,0.0,0.0,0.0,0.0,0.0,0.0,0.0,0.0,0.0,0.0,0.0,0.0,0.0,0.0,0.0,0.0,0.0,-3.2074,-3.1856,-3.1783,0.0,-3.2074,-3.2074,-3.2074,-3.2074,-3.2001,-3.1709,0.0,0.0,0.0,0.0,0.0,0.0,0.0,0.0,0.0,0.0,0.0,0.0,0.0,0.0,0.0,0.0,0.0,0.0,0.0,0.0,0.0,0.0,0.0,0.0,0.0,0.0,0.0,0.0,0.0,0.0,0.0,0.0,0.0,0.0,0.0,0.0,0.0,0.0,0.0,0.0,0.0,0.0,0.0,0.0,0.0,0.0,0.0,0.0,0.0,0.0,0.0,0.0,0.0,0.0,0.0,0.0,0.0,0.0,0.0,0.0,0.0,0.0,0.0,0.0,0.0,0.0,0.0,0.0,0.0,0.0,0.0,0.0,0.0,0.0,0.0,0.0,0.0,0.0,0.0,0.0,0.0,0.0,0.0,0.0,0.0,0.0,0.0,0.0,0.0,0.0,0.0,0.0,0.0,0.0,0.0,0.0,0.0,0.0,0.0,0.0,0.0,0.0,-3.2001,-3.1415,-3.118,-3.2001,-3.2074,-3.2074,-3.2074,-3.2074,-3.1709,0.0,0.0,0.0,0.0,0.0,0.0,0.0,0.0,0.0,0.0,0.0,0.0,0.0,0.0,0.0,0.0,0.0,0.0,0.0,0.0,0.0,0.0,0.0,0.0,0.0,0.0,0.0,0.0,0.0,0.0,0.0,0.0,0.0,0.0,0.0,0.0,0.0,0.0,0.0,0.0,0.0,0.0,0.0,0.0,0.0,0.0,0.0,0.0,0.0,0.0,0.0,0.0,0.0,0.0,0.0,0.0,0.0,0.0,0.0,0.0,0.0,0.0,0.0,0.0,0.0,0.0,0.0,0.0,0.0,0.0,0.0,0.0,0.0,0.0,0.0,0.0,0.0,0.0,0.0,0.0,0.0,0.0,0.0,0.0,0.0,0.0,0.0,0.0,0.0,0.0,0.0,0.0,0.0,0.0,0.0,0.0,0.0,0.0,0.0,0.0,0.0,0.0,0.0,-3.0432,-3.0292,-3.0216,-3.0432,-3.0508,-3.0508,-3.0508,-3.0508,-3.0355,-3.0139,0.0,0.0,0.0,0.0,0.0,0.0,0.0,0.0,0.0,0.0,0.0,0.0,0.0,0.0,0.0,0.0,0.0,0.0,0.0,0.0,0.0,0.0,0.0,0.0,0.0,0.0,0.0,0.0,0.0,0.0,0.0,0.0,0.0,0.0,0.0,0.0,0.0,0.0,0.0,0.0,0.0,0.0,0.0,0.0,0.0,0.0,0.0,0.0,0.0,0.0,0.0,0.0,0.0,0.0,0.0,0.0,0.0,0.0,0.0,0.0,0.0,0.0,0.0,0.0,0.0,0.0,0.0,0.0,0.0,0.0,0.0,0.0,0.0,0.0,0.0,0.0,0.0,0.0,0.0,0.0,0.0,0.0,0.0,0.0,0.0,0.0,0.0,0.0,0.0,0.0,0.0,0.0,0.0,0.0,0.0,0.0,0.0,0.0,0.0,0.0,0.0,0.0,-2.9792,-2.9792,-2.9792,-2.9792,-2.9792,-2.9792,-2.9792,-2.9792,-2.9792,-2.9792,0.0,0.0,0.0,0.0,0.0,0.0,0.0,0.0,0.0,0.0,0.0,0.0,0.0,0.0,0.0,0.0,0.0,0.0,0.0,0.0,0.0,0.0,0.0,0.0,0.0,0.0,0.0,0.0,0.0,0.0,0.0,0.0,0.0,0.0,0.0,0.0,0.0,0.0,0.0,0.0,0.0,0.0,0.0,0.0,0.0,0.0,0.0,0.0,0.0,0.0,0.0,0.0,0.0,0.0,0.0,0.0,0.0,0.0,0.0,0.0,0.0,0.0,0.0,0.0,0.0,0.0,0.0,0.0,0.0,0.0,0.0,0.0,0.0,0.0,0.0,0.0,0.0,0.0,0.0,0.0,0.0,0.0,0.0,0.0,0.0,0.0,0.0,0.0,0.0,0.0,0.0,0.0,0.0,0.0,0.0,0.0,0.0,0.0,0.0,0.0,0.0,0.0,-2.9792,-2.9792,-2.9792,-2.9792,-2.9792,-2.9792,-2.9792,-2.9792,-2.9792,-2.9792,0.0,0.0,0.0,0.0,0.0,0.0,0.0,0.0,0.0,0.0,0.0,0.0,0.0,0.0,0.0,0.0,0.0,0.0,0.0,0.0,0.0,0.0,0.0,0.0,0.0,0.0,0.0,0.0,0.0,0.0,0.0,0.0,0.0,0.0,0.0,0.0,0.0,0.0,0.0,0.0,0.0,0.0,0.0,0.0,0.0,0.0,0.0,0.0,0.0,0.0,0.0,0.0,0.0,0.0,0.0,0.0,0.0,0.0,0.0,0.0,-3.9769,0.0,0.0,0.0,0.0,0.0,0.0,0.0,0.0,0.0,0.0,0.0,0.0,0.0,0.0,0.0,0.0,0.0,0.0,0.0,0.0,0.0,0.0,0.0,0.0,0.0,0.0,0.0,0.0,0.0,0.0,0.0,0.0,0.0,0.0,0.0,0.0,0.0,0.0,0.0,0.0,0.0,-2.9792,-2.9792,-2.9792,-2.9792,-2.9792,-2.9792,-2.9792,-2.9792,-2.9792,-2.9792,0.0,0.0,0.0,0.0,0.0,0.0,0.0,0.0,0.0,0.0,0.0,0.0,0.0,0.0,0.0,0.0,0.0,0.0,0.0,0.0,0.0,0.0,0.0,0.0,0.0,0.0,0.0,0.0,0.0,0.0,0.0,0.0,0.0,0.0,0.0,0.0,0.0,0.0,0.0,0.0,0.0,0.0,0.0,0.0,0.0,0.0,0.0,0.0,0.0,0.0,0.0,0.0,0.0,0.0,0.0,0.0,0.0,0.0,0.0,0.0,0.0,-4.0531,0.0,0.0,0.0,0.0,0.0,0.0,0.0,0.0,0.0,0.0,0.0,0.0,0.0,0.0,0.0,0.0,0.0,0.0,0.0,0.0,0.0,0.0,0.0,0.0,0.0,0.0,0.0,0.0,0.0,0.0,0.0,0.0,0.0,0.0,0.0,0.0,0.0,0.0,0.0,0.0,-2.9792,-2.9792,-2.9792,-2.9792,-2.9792,-2.9792,-2.9792,-2.9792,-2.9792,-2.9792,-2.9792,0.0,0.0,0.0,0.0,0.0,0.0,0.0,0.0,0.0,0.0,0.0,0.0,0.0,0.0,0.0,0.0,0.0,0.0,0.0,0.0,0.0,0.0,0.0,0.0,0.0,0.0,0.0,0.0,0.0,0.0,0.0,0.0,0.0,0.0,0.0,0.0,0.0,0.0,0.0,0.0,0.0,0.0,0.0,0.0,0.0,0.0,0.0,0.0,0.0,0.0,0.0,0.0,0.0,-4.1698,-4.2044,-4.1988,-4.1988,-4.2054,-4.217,-4.217,-4.1898,-4.142,0.0,0.0,0.0,0.0,0.0,0.0,0.0,0.0,0.0,0.0,0.0,0.0,0.0,0.0,0.0,0.0,0.0,0.0,0.0,0.0,0.0,0.0,0.0,0.0,0.0,-3.0267,-2.9792,0.0,0.0,0.0,0.0,0.0,0.0,0.0,0.0,0.0,0.0,0.0,0.0,-2.9792,-2.988,-2.993,-2.993,-3.0018,-3.0068,-3.0068,-2.998,-2.993,-2.993,-2.9842,-2.9792,0.0,0.0,0.0,0.0,0.0,0.0,0.0,0.0,0.0,0.0,0.0,0.0,0.0,0.0,0.0,0.0,0.0,0.0,0.0,0.0,0.0,0.0,0.0,0.0,0.0,0.0,0.0,0.0,0.0,0.0,0.0,0.0,-4.1604,-4.1604,0.0,0.0,0.0,0.0,0.0,0.0,0.0,0.0,0.0,0.0,0.0,0.0,0.0,0.0,-4.2227,-4.2049,-4.2206,-4.2752,-4.2532,-4.309,-4.4257,-4.4257,-4.4605,-4.5218,-4.5218,0.0,-4.1492,-4.1492,0.0,0.0,0.0,0.0,0.0,0.0,0.0,0.0,0.0,0.0,0.0,0.0,0.0,0.0,0.0,0.0,0.0,0.0,0.0,0.0,0.0,0.0,-3.0507,-3.0653,-3.0209,-2.9792,0.0,-2.9792,-2.9792,-2.9792,0.0,0.0,0.0,0.0,0.0,0.0,0.0,0.0,-2.9792,-3.0218,-3.0507,-3.0507,-3.0909,-3.1185,-3.1185,-3.0771,-3.0507,-3.0507,-3.0055,-2.9702,-2.9431,-2.9275,0.0,0.0,0.0,0.0,0.0,0.0,0.0,0.0,0.0,0.0,0.0,0.0,0.0,0.0,0.0,0.0,0.0,0.0,0.0,0.0,0.0,0.0,0.0,0.0,0.0,0.0,0.0,0.0,0.0,-4.1604,-4.1604,-4.1604,-4.1604,-4.1604,0.0,0.0,0.0,0.0,0.0,0.0,0.0,0.0,0.0,-4.2407,-4.26,-4.2797,-4.3132,-4.338,-4.3689,-4.4006,-4.4261,-4.4688,-4.5301,-4.5301,-4.5483,-4.5798,-4.5798,-4.4638,-4.2733,-4.3127,-4.2381,-4.106,0.0,0.0,0.0,0.0,-3.9017,-3.8826,-3.8399,-3.815,0.0,0.0,0.0,0.0,0.0,0.0,0.0,0.0,0.0,0.0,0.0,0.0,0.0,-3.1047,-3.0871,-3.0696,-3.0696,-3.0696,-3.052,0.0,-2.9792,-2.9792,-2.9792,0.0,0.0,0.0,0.0,0.0,-3.0256,-3.0721,-3.1047,-3.1047,-3.1248,-3.1386,-3.1386,-3.1185,-3.1047,-3.1047,-3.0465,-2.9995,-2.9903,-2.929,-2.8875,0.0,0.0,0.0,0.0,0.0,0.0,0.0,0.0,0.0,0.0,0.0,0.0,0.0,0.0,0.0,0.0,0.0,0.0,0.0,0.0,0.0,0.0,0.0,0.0,0.0,0.0,0.0,0.0,-4.1604,-4.1604,-4.1604,-4.178,-4.192,0.0,0.0,0.0,0.0,0.0,0.0,-4.2526,-4.2946,-4.3274,-4.3535,-4.3608,-4.3805,-4.4175,-4.4705,-4.5069,-4.5251,-4.5814,-4.6179,-4.6361,-4.6361,-4.6361,-4.6361,-4.6361,-4.5636,-4.4433,-4.4399,-4.325,-4.1439,-4.1267,-4.0445,-3.9327,-3.9091,-3.887,-3.8723,-3.8516,-3.8441,-3.8366,-3.8277,0.0,-3.6858,-3.661,0.0,0.0,0.0,0.0,-3.1813,-3.1813,-3.1712,-3.1599,-3.1599,-3.1486,-3.1386,-3.1386,-3.1386,-3.1148,0.0,-3.0206,-3.0206,-3.0206,0.0,0.0,0.0,0.0,-3.0809,-3.0809,-3.1273,-3.1599,-3.1599,-3.1738,-3.1813,-3.1813,-3.1687,-3.1599,-3.1599,-3.0935,-3.0493,-3.0208,-2.9297,-2.8512,-2.8052,0.0,0.0,0.0,0.0,0.0,0.0,0.0,0.0,0.0,0.0,0.0,0.0,0.0,0.0,0.0,0.0,0.0,0.0,0.0,0.0,0.0,0.0,0.0,0.0,0.0,0.0,0.0,0.0,0.0,-4.1604,-4.2271,0.0,0.0,0.0,0.0,-4.3781,-4.3682,-4.3644,-4.3697,-4.4343,-4.4649,-4.4616,-4.4992,-4.5343,-4.5682,-4.5715,-4.6096,-4.6792,-4.6825,-4.7206,-4.7885,-4.7885,-4.7885,-4.7885,-4.7885,-4.7422,-4.6566,-4.4533,-4.2776,-4.1355,-4.0724,-4.0263,-3.9951,-3.9092,-3.8723,-3.8516,-3.8277,-3.8202,-3.8202,-3.8202,-3.7644,-3.6766,-3.5949,-3.5061,0.0,0.0,-3.3674,-3.2993,-3.2993,-3.2591,-3.2177,-3.2177,-3.1763,-3.1386,-3.1386,-3.1386,-3.1373,0.0,-3.1311,-3.1311,-3.1311,0.0,-3.1311,-3.1311,-3.1336,-3.1348,-3.1348,-3.1838,-3.2177,-3.2177,-3.2667,-3.2993,-3.2993,-3.2491,-3.2177,-3.2177,-3.165,-3.096,-3.0072,-2.9068,-2.8397,-2.8015,-2.6174,0.0,0.0,0.0,0.0,0.0,0.0,0.0,0.0,0.0,0.0,0.0,0.0,0.0,0.0,0.0,0.0,0.0,0.0,0.0,0.0,0.0,0.0,0.0,0.0,0.0,0.0,0.0,0.0,-4.2377,-4.3044,0.0,0.0,-4.406,-4.4533,-4.4676,-4.4992,-4.5196,-4.5196,-4.5344,-4.564,-4.6079,-4.6221,-4.6587,-4.7206,-4.7222,-4.7355,-4.7603,-4.7603,-4.7752,-4.8001,-4.8001,-4.8001,-4.8001,-4.8001,-4.7556,-4.6711,-4.5473,-4.4149,-4.2751,-4.1943,-4.1204,-4.0541,-4.0229,-3.9821,-3.9499,-3.9421,-3.9421,-3.9252,-3.8022,-3.7273,-3.647,-3.4992,-3.4093,-3.3569,-3.3569,-3.3326,-3.3081,-3.3081,-3.2918,-3.2767,-3.2767,-3.2616,-3.2478,-3.2478,-3.2478,-3.2478,-3.2478,-3.1888,-3.1386,-3.1386,-3.1386,-3.1386,-3.1386,-3.1687,-3.1913,-3.1913,-3.2416,-3.2767,-3.2767,-3.2955,-3.3081,-3.3081,-3.288,-3.2682,-3.2498,-3.1916,-3.1003,-2.983,-2.899,-2.7951,-2.6571,-2.557,-2.5176,0.0,0.0,0.0,0.0,0.0,0.0,0.0,0.0,0.0,0.0,0.0,0.0,0.0,0.0,0.0,0.0,0.0,0.0,0.0,0.0,0.0,0.0,0.0,0.0,0.0,0.0,-4.3184,-4.3184,-4.4062,-4.4676,-4.4676,-4.5495,-4.6058,-4.599,-4.6327,-4.652,-4.6537,-4.6547,-4.6758,-4.7255,-4.7272,-4.7504,-4.8001,-4.8001,-4.8001,-4.8001,-4.8001,-4.8001,-4.8001,-4.8001,-4.8001,-4.8001,-4.8001,-4.7704,-4.7118,-4.6127,-4.5159,-4.415,-4.2925,-4.1896,-4.1067,-4.0846,-4.051,-4.0104,-4.0104,-4.0104,-3.9852,-3.8366,-3.7426,-3.6599,-3.5089,-3.4173,-3.3633,-3.3633,-3.3633,-3.3633,-3.3633,-3.3633,-3.3633,-3.3633,-3.3483,-3.3357,-3.3357,-3.3206,-3.3081,-3.3081,-3.2466,-3.1951,-3.1951,-3.1951,-3.1951,-3.1951,-3.2265,-3.2503,-3.2503,-3.2842,-3.3081,-3.3081,-3.3081,-3.3081,-3.3081,-3.3081,-3.2982,-3.281,-3.1933,-3.1122,-3.0387,-2.9166,-2.7855,-2.6293,-2.5519,-2.5197,-2.5293,0.0,0.0,0.0,0.0,0.0,0.0,0.0,0.0,0.0,0.0,0.0,0.0,0.0,0.0,0.0,0.0,0.0,0.0,0.0,0.0,0.0,0.0,0.0,-4.2851,-4.3465,-4.3939,-4.3974,-4.5326,-4.6274,-4.6242,-4.73,-4.7919,-4.7885,-4.7724,-4.7686,-4.7659,-4.7925,-4.8001,-4.8001,-4.8017,-4.8034,-4.8034,-4.8067,-4.8067,-4.8067,-4.8067,-4.8067,-4.8034,-4.8034,-4.8017,-4.8001,-4.8001,-4.8001,-4.7869,-4.6356,-4.5697,-4.5488,-4.3305,-4.2153,-4.1686,-4.1052,-4.0583,-4.0162,-4.0162,-4.0162,-4.0003,-3.9201,-3.8256,-3.729,-3.6432,-3.5493,-3.4726,-3.4726,-3.4726,-3.4726,-3.4726,-3.4726,-3.4726,-3.4726,-3.4311,-3.3922,-3.3922,-3.3508,-3.3131,-3.3131,-3.3131,-3.3119,-3.3106,-3.3119,-3.3131,-3.3131,-3.3131,0.0,-3.3131,-3.3131,-3.3119,-3.3106,-3.3106,-3.3093,-3.3081,-3.3081,-3.3081,-3.3081,-3.1865,-3.1285,-3.154,-2.95,-2.8021,-2.7205,-2.5849,-2.5283,-2.5713,0.0,0.0,0.0,0.0,0.0,0.0,0.0,0.0,0.0,0.0,0.0,0.0,0.0,0.0,0.0,0.0,0.0,0.0,0.0,0.0,0.0,0.0,-4.4273,-4.3676,-4.4273,-4.4975,-4.5519,-4.6467,-4.7309,-4.7889,-4.8697,-4.9205,-4.9187,-4.9318,-4.9272,-4.8933,-4.8647,-4.8356,-4.8001,-4.8531,-4.8812,-4.8812,-4.9342,-4.9607,-4.9607,-4.9607,-4.9326,-4.8812,-4.8812,-4.8514,-4.8001,-4.8001,-4.8001,-4.7869,-4.6356,-4.5697,-4.5536,-4.3559,-4.2663,-4.2408,-4.2085,-4.1784,-4.1555,-4.1555,-4.1555,-4.1362,-4.0462,-3.9648,-3.8865,-3.7228,-3.6233,-3.5556,-3.4893,-3.4726,-3.4726,-3.4726,-3.4726,-3.4726,-3.4726,-3.4613,-3.45,-3.45,-3.4374,-3.4274,-3.4274,-3.4274,-3.4148,-3.3746,-3.401,-3.4274,-3.4274,-3.4274,0.0,-3.4274,-3.4274,-3.411,-3.3721,-3.3671,-3.3508,-3.3106,-3.3081,-3.2982,-3.2649,-3.1536,-3.0551,-2.95,-2.8196,-2.6972,-2.5714,-2.5283,-2.5127,0.0,0.0,0.0,0.0,0.0,0.0,0.0,0.0,0.0,0.0,0.0,0.0,0.0,0.0,0.0,0.0,0.0,0.0,0.0,0.0,0.0,0.0,-4.4471,-4.5168,-4.5326,-4.5765,-4.6221,-4.666,-4.7678,-4.8538,-4.9012,-4.9732,-5.0117,-4.9866,-4.9803,-4.958,-4.9118,-4.8942,-4.8759,-4.8465,-4.9193,-4.9574,-4.9574,-5.0005,-5.022,-5.022,-5.022,-4.9988,-4.9574,-4.9574,-4.9342,0.0,-4.8597,-4.8465,-4.8299,-4.6468,-4.5608,0.0,0.0,0.0,0.0,0.0,-4.2175,-4.2092,-4.2092,-4.2092,-4.1995,-4.1437,-4.0746,-3.9829,-3.8343,-3.7408,-3.6623,-3.5666,-3.5416,-3.5416,-3.5416,-3.5416,-3.5416,-3.5416,-3.5228,-3.5064,-3.5064,-3.4889,-3.4726,-3.4726,-3.4914,0.0,-3.4638,-3.4663,-3.4726,-3.4726,-3.4726,-3.4726,-3.4726,-3.4726,-3.46,-3.4274,-3.4248,-3.411,-3.3796,-3.3558,0.0,0.0,0.0,-2.9601,-2.8121,-2.7463,0.0,0.0,0.0,-2.5352,-2.5352,0.0,0.0,0.0,-2.4893,-2.4687,0.0,0.0,0.0,0.0,0.0,0.0,0.0,0.0,0.0,0.0,0.0,0.0,0.0,0.0,0.0,0.0,-4.5141,-4.5835,-4.7204,-4.7538,-4.7643,-4.7643,-4.8854,-4.9732,-4.982,-5.0469,-5.0692,-5.0159,-4.9698,-4.9273,-4.882,0.0,0.0,0.0,0.0,-5.0336,-5.0336,-5.0419,-5.0469,-5.0469,-5.0469,-5.0419,-5.0336,-5.0336,-5.0286,-5.0171,-4.9525,-4.9177,-4.8826,-4.6653,-4.5437,-4.4825,-4.3506,-4.2835,-4.2622,-4.2242,-4.2092,-4.2092,-4.2092,0.0,0.0,-4.2092,-4.1535,-4.0603,-3.9637,-3.8675,-3.7717,-3.6815,-3.6452,-3.6358,-3.6358,-3.6358,-3.6358,-3.6358,-3.5994,-3.5642,-3.5642,-3.5253,-3.4901,-3.4901,-3.5303,-3.5642,-3.5642,-3.5228,-3.4901,-3.4901,-3.4901,-3.4901,-3.4901,-3.4901,-3.4889,-3.4826,0.0,0.0,-3.4726,-3.4274,-3.3516,-3.2466,-3.0457,-2.8647,-2.7249,-2.7102,-2.7081,-2.7081,-2.6267,-2.581,-2.581,-2.5859,-2.5879,-2.5869,-2.5371,-2.5146,0.0,0.0,0.0,0.0,0.0,0.0,0.0,0.0,0.0,0.0,0.0,0.0,0.0,0.0,0.0,-4.4739,-4.6003,-4.6996,-4.7192,-4.8399,-4.924,-4.924,-4.9504,-4.9943,-5.0592,-5.0803,-5.0692,-5.0159,-5.0005,-4.9855,-4.9577,-4.9634,0.0,-4.9972,-5.0701,-5.1065,-5.1065,-5.1661,-5.1959,-5.1959,0.0,0.0,-5.1065,-5.1065,-5.075,-5.0204,-5.0055,-4.9436,-4.8486,-4.69,-4.4941,-4.2915,-4.2607,-4.2392,-4.2175,-4.2092,-4.2092,-4.2092,-4.2092,-4.2092,-4.2092,-4.2092,-4.1995,-4.1633,-4.0617,-3.9637,0.0,-3.7795,-3.6989,-3.6358,-3.6358,-3.6358,-3.6358,-3.6358,-3.6282,-3.6207,-3.6207,-3.6119,-3.6044,-3.6044,-3.6132,-3.6207,-3.6207,-3.6119,-3.6044,-3.6044,-3.6044,-3.6044,-3.6044,-3.6044,-3.5881,-3.5441,-3.5391,-3.5203,-3.4763,-3.4625,-3.3905,-3.2475,-3.0086,-2.8208,-2.7051,-2.6725,-2.6537,-2.6537,-2.6349,-2.626,-2.6269,-2.6602,-2.6768,-2.6748,-2.5967,-2.5605,0.0,0.0,0.0,0.0,0.0,0.0,0.0,0.0,0.0,0.0,0.0,-4.2023,0.0,0.0,-4.4871,-4.5632,-4.6464,-4.7369,-4.8242,-4.9153,-4.9679,-4.9679,-5.0048,-5.0452,-5.0855,-5.0891,-5.0692,-5.0159,-5.0235,-5.0137,-4.9813,-5.0291,-5.0609,-5.0734,-5.1446,-5.1827,-5.1827,-5.2191,-5.2373,-5.2373,-5.2373,-5.2191,-5.1827,-5.1827,-5.1628,-5.128,-5.0899,-5.0449,-4.9743,-4.7241,-4.4755,-4.2392,-4.2325,-4.2175,-4.2092,-4.2092,-4.2092,-4.2092,-4.2092,-4.2092,-4.2092,-4.2092,-4.2092,-4.1814,-4.036,-3.9549,-3.8944,-3.7533,-3.6722,-3.6358,-3.6358,-3.6358,-3.6358,-3.6358,-3.6358,-3.6358,-3.6358,-3.6358,-3.6358,-3.6358,-3.6358,-3.6358,-3.6358,-3.6358,-3.6358,-3.6358,-3.6358,-3.6358,-3.6358,-3.6358,-3.6257,-3.5981,-3.5956,-3.5843,-3.5567,-3.4712,-3.3477,-3.178,-2.9829,-2.8176,-2.7012,-2.6816,-2.6699,-2.6699,-2.6699,-2.6699,-2.6699,-2.6914,-2.7012,-2.7002,-2.6572,-2.6377,0.0,0.0,0.0,0.0,0.0,0.0,0.0,0.0,-3.9935,-4.0831,-4.1238,-4.1732,-4.2946,-4.416,-4.532,-4.6404,-4.6984,-4.7804,-4.9272,-4.9731,-4.9925,-4.9925,-5.0504,-5.0891,-5.0891,-5.0891,-5.0692,-5.0159,-5.0343,-5.0368,-5.0032,-5.0809,-5.1347,-5.1479,-5.2075,-5.2373,-5.2373,-5.2373,-5.2373,-5.2373,-5.2373,-5.2373,-5.2373,-5.2373,-5.2373,-5.234,-5.1279,-5.0807,-5.0445,-4.7063,-4.4455,-4.2485,-4.2218,-4.2092,-4.2092,-4.2092,-4.2092,-4.2092,-4.2092,-4.2092,-4.2092,-4.2092,-4.2092,-4.1829,-4.0287,-3.9651,-3.9108,-3.7428,-3.6815,-3.664,-3.6452,-3.6358,-3.6358,-3.6358,-3.6358,-3.6358,-3.6358,-3.6358,-3.6358,-3.6358,-3.6358,-3.6358,-3.6358,-3.6358,-3.6358,-3.6358,-3.6358,-3.6358,-3.6358,-3.6358,-3.6358,-3.6358,-3.6358,-3.6358,-3.6358,-3.4773,-3.2978,-3.1296,-2.9902,-2.8633,-2.7266,-2.7187,-2.7139,-2.7139,-2.7139,-2.7139,-2.7139,-2.7226,-2.7266,-2.7266,-2.7266,-2.7168,-3.7163,-3.8387,-3.9554,-3.988,-4.0431,-4.0614,0.0,0.0,-4.0087,-4.0414,-4.1468,-4.2405,-4.2624,-4.4984,-4.662,-4.5869,-4.7796,-4.9327,-4.9321,-5.0167,-5.075,-5.075,-5.0838,-5.0891,-5.0891,-5.0891,-5.0692,-5.0159,-5.0343,-5.0606,-5.0789,-5.1092,-5.1578,-5.2241,-5.234,-5.2373,-5.2373,-5.2373,-5.2373,-5.2373,-5.2373,-5.2373,-5.2373,-5.2373,-5.2373,-5.2269,-5.0267,-4.9069,-4.831,-4.5319,-4.367,-4.2916,-4.2295,-4.2092,-4.2092,-4.2092,-4.2092,-4.2092,-4.2092,-4.2092,-4.2092,-4.2092,-4.2092,-4.2092,-4.1829,-4.117,-4.0246,-3.9197,-3.8328,-3.7441,-3.664,-3.6358,-3.6358,-3.6358,-3.6358,-3.6358,-3.6358,-3.6358,-3.6358,-3.6358,-3.6358,-3.6358,-3.6358,-3.6358,-3.6358,-3.6358,-3.6358,-3.6358,-3.6358,-3.6358,-3.6358,-3.6358,-3.6358,-3.6358,-3.6358,-3.4921,-3.3459,-3.2174,-3.0675,-2.9265,-2.8251,-2.7793,-2.7598,-2.7598,-2.7598,-2.7598,-2.7598,-2.7969,-2.8144,-2.8144,-2.8144,-2.7744,-3.7801,-3.8888,0.0,0.0,-4.0434,-4.0339,-4.0337,-3.9997,-3.9963,-4.0983,-4.1475,-4.1956,-4.2914,-4.4229,-4.5488,0.0,-4.7763,-4.8946,-4.9896,-5.0554,-5.0891,-5.0891,-5.0891,-5.0891,-5.0891,-5.0891,-5.0885,-5.0835,-5.103,-5.1286,-5.1513,-5.1758,-5.2059,-5.2373,-5.2373,-5.2373,-5.2373,-5.2373,-5.2373,-5.2373,-5.2373,-5.2373,-5.2373,-5.2373,-5.2302,-5.198,-5.0612,-4.9203,-4.7741,-4.5743,-4.4107,-4.2934,-4.2339,-4.2092,-4.2092,-4.2092,-4.2092,-4.2092,-4.2092,-4.2092,-4.2092,-4.2092,-4.2092,-4.1995,-4.1437,-4.0532,-3.9549,-3.8675,-3.7704,-3.6909,-3.6546,-3.6358,-3.6358,-3.6358,-3.6358,-3.6358,-3.6358,-3.6358,-3.6358,-3.6358,-3.6358,-3.6358,-3.6358,-3.6358,-3.6358,-3.6358,-3.6358,-3.6358,-3.6358,-3.6358,-3.6358,-3.6358,-3.6358,-3.6358,-3.6358,-3.5692,-3.4374,-3.2431,-3.1542,-3.0235,-2.8398,-2.8125,-2.8027,-2.8027,-2.8027,-2.8027,-2.8027,-2.8203,-2.8291,-2.8291,-2.8291,-2.8096,-3.8284,0.0,0.0,-4.0783,-4.061,-4.0425,-4.0812,-4.0318,-4.0131,-4.1255,-4.152,-4.1824,-4.2734,-4.3856,-4.5135,-4.6633,-4.7657,-4.8753,-5.0202,-5.0547,-5.0692,-5.0692,-5.0819,-5.0819,-5.0692,-5.0692,-5.0896,-5.1476,-5.1449,-5.1634,-5.2215,-5.2347,-5.2373,-5.2373,-5.2373,-5.2373,-5.2373,-5.2373,-5.2373,-5.2373,-5.2373,-5.2373,-5.239,-5.2302,-5.1997,-5.1524,-5.0506,-4.9253,-4.7727,-4.6071,-4.4526,-4.3195,-4.2586,-4.2237,-4.2092,-4.2092,-4.2092,-4.2092,-4.2092,-4.2092,-4.2092,-4.2092,-4.2092,-4.1995,-4.124,-4.0346,-3.9373,-3.8419,-3.7533,-3.6722,-3.6452,-3.6358,-3.6358,-3.6358,-3.6358,-3.6358,-3.6358,-3.6358,-3.6358,-3.6358,-3.6358,-3.6358,-3.6358,-3.6358,-3.6358,-3.6358,-3.6358,-3.6358,-3.6358,-3.6358,-3.6358,-3.6358,-3.6358,-3.6358,-3.6358,-3.6193,-3.4993,-3.2431,-3.2162,-3.0845,-2.8398,-2.8291,-2.8291,-2.8291,-2.8291,-2.8291,-2.8291,-2.8291,-2.8291,-2.8291,-2.8291,-2.8291,0.0,0.0,-4.093,-4.1053,-4.1084,-4.0953,-4.0489,-4.0668,-4.0804,-4.0658,-4.1743,-4.2475,-4.1805,-4.461,-4.6701,-4.5544,-4.7614,-4.9487,-4.989,-5.0062,-5.0102,-5.0102,-5.0564,-5.0692,0.0,-5.0102,-5.0619,-5.1906,-5.1326,-5.1457,-5.2704,-5.257,-5.2373,-5.2373,-5.2373,-5.2373,-5.2373,-5.2373,-5.2373,-5.2373,-5.2373,-5.2373,-5.239,-5.2013,-5.1524,-5.1043,-4.9311,-4.8564,-4.8254,-4.5856,-4.4589,-4.3892,-4.3224,-4.2615,-4.2092,-4.2092,-4.2092,-4.2092,-4.2092,-4.2092,-4.2092,-4.2092,-4.2092,-4.2092,-4.2092,-4.1339,-4.0332,-3.9373,-3.8509,-3.7533,-3.664,-3.6358,-3.6358,-3.6358,-3.6358,-3.6358,-3.6358,-3.6358,-3.6358,-3.6358,-3.6358,-3.6358,-3.6358,-3.6358,-3.6358,-3.6358,-3.6358,-3.6358,-3.6358,-3.6358,-3.6358,-3.6358,-3.6358,-3.6358,-3.6358,-3.6193,-3.4993,-3.2431,-3.2162,-3.0845,-2.8398,-2.8291,-2.8291,-2.8291,-2.8291,-2.8291,-2.8291,-2.8291,-2.8291,-2.8291,-2.8291,-2.8291,-3.9198,0.0,-4.1019,-4.1119,-4.0883,-4.068,-4.0982,-4.0871,-4.091,-4.1724,-4.2291,-4.268,-4.288,-4.4338,-4.5686,-4.6041,-4.7115,-4.8303,-4.9402,-4.9385,-4.9504,-5.0045,-5.0233,0.0,0.0,0.0,0.0,-5.2225,-5.1872,-5.205,-5.2976,-5.263,-5.2373,-5.2373,-5.2373,-5.2373,-5.2373,-5.2373,-5.2373,-5.2373,-5.2373,-5.223,-5.2013,-5.2158,-5.1688,-5.0663,-4.9376,-4.8579,-4.7912,-4.5828,-4.4531,-4.3921,-4.3253,-4.2629,-4.2092,-4.2092,-4.2092,-4.2092,-4.2092,-4.2092,-4.2092,-4.2092,-4.2092,-4.2092,-4.2092,-4.1437,-4.0418,-3.9461,-3.8509,-3.7533,-3.6628,-3.6358,-3.6358,-3.6358,-3.6358,-3.6358,-3.6358,-3.6358,-3.6358,-3.6358,-3.6358,-3.6358,-3.6358,-3.6358,-3.6358,-3.6358,-3.6358,-3.6358,-3.6358,-3.6358,-3.6358,-3.6358,-3.6358,-3.6358,-3.6358,-3.5679,-3.4483,-3.2755,-3.1735,-3.0328,-2.8621,-2.8398,-2.8291,-2.8291,-2.8291,-2.8291,-2.8291,-2.8291,-2.8291,-2.8291,-2.8291,-2.8291,-3.9521,-4.0256,-4.0849,-4.115,-4.0992,-4.0893,-4.1355,-4.1295,-4.1326,-4.2062,-4.2539,-4.2805,-4.3052,-4.4183,-4.5323,-4.5996,-4.6829,-4.7836,-4.8978,-4.8978,-4.9023,-4.9521,-4.9756,0.0,0.0,0.0,0.0,-5.2071,-5.2038,-5.2337,-5.3078,-5.2624,-5.2373,-5.2373,-5.2373,-5.2373,-5.2373,-5.2373,-5.2373,-5.2373,-5.223,-5.1997,-5.1524,-5.1688,-5.1226,-5.0214,-4.9166,-4.8346,-4.7789,-4.6006,-4.4748,-4.395,-4.3515,-4.2832,-4.2092,-4.2092,-4.2092,-4.2092,-4.2092,-4.2092,-4.2092,-4.2092,-4.2092,-4.2092,-4.2092,-4.117,-3.9986,-3.9373,-3.8328,-3.7176,-3.6546,-3.6358,-3.6358,-3.6358,-3.6358,-3.6358,-3.6358,-3.6358,-3.6358,-3.6358,-3.6358,-3.6358,-3.6358,-3.6358,-3.6358,-3.6358,-3.6358,-3.6358,-3.6358,-3.6358,-3.6358,-3.6358,-3.6358,-3.6358,-3.6358,-3.5763,-3.4569,-3.2755,-3.1724,-3.0421,-2.8621,-2.8398,-2.8291,-2.8291,-2.8291,-2.8291,-2.8291,-2.8291,-2.8291,-2.8291,-2.8291,-2.8291,-3.9581,-4.0144,-4.0512,-4.1205,-4.1394,-4.1418,-4.1561,-4.1851,-4.198,-4.172,-4.2412,-4.2912,0.0,0.0,-4.5656,-4.5355,-4.6782,-4.8049,-4.8593,-4.8639,-4.8639,0.0,0.0,0.0,0.0,0.0,0.0,-5.1663,0.0,-5.2371,-5.3009,-5.2624,-5.2373,-5.2373,-5.2373,-5.2373,-5.2373,-5.2373,-5.239,-5.2373,-5.1997,-5.1524,-5.1043,-5.0679,-5.0292,-4.9757,-4.849,-4.7904,-4.7734,-4.6432,-4.5111,-4.3993,-4.395,-4.3181,-4.2092,-4.2092,-4.2092,-4.2092,-4.2092,-4.2092,-4.2092,-4.2092,-4.2092,-4.2092,-4.2092,-4.0745,-3.9285,-3.921,-3.7874,-3.6452,-3.6452,-3.6358,-3.6358,-3.6358,-3.6358,-3.6358,-3.6358,-3.6358,-3.6358,-3.6358,-3.6358,-3.6358,-3.6358,-3.6358,-3.6358,-3.6358,-3.6358,-3.6358,-3.6358,-3.6358,-3.6358,-3.6358,-3.6358,-3.6358,-3.6358,-3.6263,-3.515,-3.2532,-3.2241,-3.103,-2.8398,-2.8291,-2.8291,-2.8291,-2.8291,-2.8291,-2.8291,-2.8291,-2.8291,-2.8291,-2.8291,-2.8291,-4.068,-4.1314,-4.1799,-4.1448,-4.1469,-4.1547,-4.1607,-4.1654,-4.1835,-4.2269,-4.2539,-4.2821,0.0,0.0,0.0,-4.561,-4.6037,0.0,-4.7984,-4.7471,0.0,-4.8576,0.0,-4.8862,-4.9698,-5.0807,0.0,0.0,-5.1924,-5.237,-5.2553,-5.2445,-5.2373,-5.2373,-5.2373,-5.2373,-5.2373,-5.2373,-5.223,-5.1924,-5.1851,-5.1392,-5.0663,-5.0892,-5.026,-4.9147,-4.861,-4.7873,-4.7046,-4.5683,-4.469,-4.395,-4.3442,-4.2774,-4.2092,-4.2092,-4.2092,-4.2092,-4.2092,-4.2092,-4.2092,-4.2092,-4.2092,-4.2092,-4.2092,-4.1269,-4.0073,-3.9373,-3.8328,-3.7268,-3.6546,-3.6358,-3.6358,-3.6358,-3.6358,-3.6358,-3.6358,-3.6358,-3.6358,-3.6358,-3.6358,-3.6358,-3.6358,-3.6358,-3.6358,-3.6358,-3.6358,-3.6358,-3.6358,-3.6358,-3.6358,-3.6358,-3.6358,-3.6358,-3.6358,-3.4969,-3.3674,-3.2755,-3.0949,-2.9533,-2.8621,-2.8408,-2.8291,-2.8291,-2.8291,-2.8291,-2.8291,-2.8291,-2.8291,-2.8291,-2.8291,-2.8291,-4.0953,-4.1346,-4.1598,-4.1532,-4.1533,-4.1588,-4.1588,-4.172,-4.1916,-4.2285,-4.2601,0.0,0.0,0.0,0.0,0.0,0.0,0.0,-4.7588,-4.7354,-4.7404,0.0,-4.851,0.0,-4.9892,-5.0925,-5.1598,0.0,-5.232,-5.2624,-5.2373,-5.2373,-5.2373,-5.2373,-5.2373,-5.2302,-5.2158,-5.2302,-5.2069,-5.1524,-5.1524,-5.1135,-5.0525,-5.0509,-4.9947,-4.8887,0.0,-4.7552,-4.6354,-4.5288,-4.4356,-4.3515,-4.3137,-4.2629,-4.2092,-4.2092,-4.2092,-4.2092,-4.2092,-4.2092,-4.2092,-4.2092,-4.2092,-4.2092,-4.2092,-4.1085,-3.9899,-3.9373,-3.8238,-3.7083,-3.6546,-3.6358,-3.6358,-3.6358,-3.6358,-3.6358,-3.6358,-3.6358,-3.6358,-3.6358,-3.6358,-3.6358,-3.6358,-3.6358,-3.6358,-3.6358,-3.6358,-3.6358,-3.6358,-3.6358,-3.6358,-3.6358,-3.6358,-3.6358,-3.6358,-3.4872,-3.3476,-3.2655,-3.0835,-2.9418,-2.8514,-2.8398,-2.8291,-2.8291,-2.8291,-2.8291,-2.8291,-2.8291,-2.8291,-2.8291,-2.8291,-2.8291,-4.0753,-4.097,-4.0991,-4.1512,-4.1588,-4.1588,-4.1654,-4.1916,-4.2109,-4.2238,0.0,-4.3096,-4.3174,-4.3948,-4.4814,-4.5304,0.0,-4.6946,-4.7389,-4.7721,-4.7869,-4.8001,-4.858,-4.9325,-5.0137,-5.085,-5.1578,-5.2324,-5.2747,-5.28,-5.2445,-5.2373,-5.239,-5.2302,-5.2373,-5.2158,-5.1688,-5.2069,-5.1908,-5.1043,-5.1043,-5.0816,-5.0448,-5.0073,-4.9501,-4.8723,0.0,0.0,-4.572,-4.4953,-4.3979,-4.2977,-4.2905,-4.2557,-4.2092,-4.2092,-4.2092,-4.2092,-4.2092,-4.2092,-4.2092,-4.2092,-4.2092,-4.2092,-4.2092,-4.0731,-3.921,-3.921,-3.7874,-3.6358,-3.6358,-3.6358,-3.6358,-3.6358,-3.6358,-3.6358,-3.6358,-3.6358,-3.6358,-3.6358,-3.6358,-3.6358,-3.6358,-3.6358,-3.6358,-3.6358,-3.6358,-3.6358,-3.6358,-3.6358,-3.6358,-3.6358,-3.6358,-3.6358,-3.6168,-3.5162,-3.3859,-3.223,-3.1019,-2.9807,-2.8398,-2.8291,-2.8291,-2.8291,-2.8291,-2.8291,-2.8291,-2.8291,-2.8291,-2.8291,-2.8291,-2.8291,-4.0603,-4.1358,-4.2125,-4.1688,-4.1588,-4.1654,-4.198,-4.2045,0.0,0.0,0.0,-4.3174,-4.3432,-4.392,0.0,-4.5557,0.0,0.0,0.0,0.0,-4.7302,0.0,0.0,0.0,0.0,0.0,0.0,0.0,0.0,0.0,-5.2373,-5.2373,-5.223,-5.1924,-5.223,-5.198,-5.1194,-5.1688,-5.1466,-5.0586,-5.0586,-5.037,-4.9995,-4.9916,-4.9244,-4.8042,0.0,0.0,-4.4967,-4.3833,-4.3195,-4.2948,-4.244,-4.2179,-4.2092,-4.2092,-4.2092,-4.2092,-4.2092,-4.2092,-4.2092,-4.2092,-4.2092,-4.2092,-4.2092,-4.0731,-3.921,-3.921,-3.7874,-3.6358,-3.6358,-3.6358,-3.6358,-3.6358,-3.6358,-3.6358,-3.6358,-3.6358,-3.6358,-3.6358,-3.6358,-3.6358,-3.6358,-3.6358,-3.6358,-3.6358,-3.6358,-3.6358,-3.6358,-3.6358,-3.6358,-3.6358,-3.6358,-3.6061,-3.5174,-3.3871,-3.2555,-3.1122,-2.9723,-2.8814,-2.8291,-2.8291,-2.8291,-2.8291,-2.8291,-2.8291,-2.8291,-2.8291,-2.8291,-2.8291,-2.8291,-2.8291,-4.0464,-4.1193,-4.2029,-4.1654,-4.1588,-4.172,-4.2045,0.0,0.0,0.0,-4.3235,-4.3432,-4.3568,0.0,0.0,0.0,0.0,0.0,0.0,0.0,0.0,0.0,0.0,0.0,0.0,0.0,0.0,0.0,0.0,0.0,-5.2373,-5.223,-5.2086,-5.2086,-5.1835,-5.1508,-5.1102,-5.1285,-5.0984,-5.0214,-5.037,-5.0292,-4.9916,-4.9582,-4.8635,-4.7372,-4.6719,0.0,-4.3848,-4.3239,-4.2803,-4.2498,-4.2208,-4.2092,-4.2092,-4.2092,-4.2092,-4.2092,-4.2092,-4.2092,-4.2092,-4.2092,-4.2092,-4.2092,-4.2092,-4.0731,-3.921,-3.921,-3.7874,-3.6358,-3.6358,-3.6358,-3.6358,-3.6358,-3.6358,-3.6358,-3.6358,-3.6358,-3.6358,-3.6358,-3.6358,-3.6358,-3.6358,-3.6358,-3.6358,-3.6358,-3.6358,-3.6358,-3.6358,-3.6358,-3.6358,-3.6358,-3.6358,-3.587,-3.4678,-3.3464,-3.2151,-3.0618,-2.9323,-2.8621,-2.8291,-2.8291,-2.8291,-2.8291,-2.8291,-2.8291,-2.8291,-2.8291,-2.8291,-2.8291,-2.8291,-2.8291,-4.0224,-4.0959,-4.172,-4.1588,-4.1654,-4.1785,-4.2109,-4.2412,0.0,0.0,-4.3432,-4.3628,-4.3628,0.0,0.0,0.0,0.0,0.0,0.0,0.0,0.0,0.0,0.0,0.0,0.0,0.0,0.0,0.0,0.0,0.0,-5.2302,-5.1997,-5.1851,-5.1997,-5.1434,-5.1043,-5.0816,-5.0892,-5.0586,-4.9916,-5.0214,-5.0214,-4.9836,-4.9088,-4.8065,-4.6902,-4.5933,0.0,0.0,-4.2861,-4.2528,-4.2092,-4.2092,-4.2092,-4.2092,-4.2092,-4.2092,-4.2092,-4.2092,-4.2092,-4.2092,-4.2092,-4.2092,-4.2092,-4.2092,-4.0731,-3.921,-3.921,-3.7874,-3.6358,-3.6358,-3.6358,-3.6395,-3.6508,-3.6533,-3.6571,-3.6684,-3.6621,-3.6533,-3.6533,-3.6445,-3.6358,-3.6358,-3.6358,-3.6358,-3.6358,-3.6358,-3.6358,-3.6358,-3.6358,-3.6358,-3.6358,-3.6358,-3.587,-3.4581,-3.3365,-3.2039,-3.0514,-2.9217,-2.8514,-2.8291,-2.8291,-2.8291,-2.8291,-2.8291,-2.8291,-2.8291,-2.8291,-2.8291,-2.8291,-2.8291,-2.8291,-3.9565,-4.0769,-4.198,-4.1654,-4.1851,-4.2109,-4.2508,0.0,0.0,-4.3432,-4.3568,-4.3628,-4.3628,-4.3628,-4.4092,0.0,0.0,0.0,0.0,0.0,0.0,0.0,0.0,0.0,0.0,0.0,0.0,0.0,0.0,0.0,0.0,-5.1851,-5.1466,-5.0679,-5.0968,-5.0739,-4.9995,-5.037,-5.037,-4.9916,-4.9916,-4.9931,-4.9821,-4.8636,-4.765,-4.6856,0.0,0.0,0.0,-4.2397,-4.215,-4.2092,-4.2092,-4.2092,-4.2092,-4.2092,-4.2092,-4.2092,-4.2092,-4.2092,-4.2092,-4.2092,-4.2092,-4.2092,-4.2092,-4.0731,-3.921,-3.921,-3.7874,-3.6358,-3.6358,-3.6358,-3.6483,-3.6985,-3.7111,-3.7249,-3.7751,-3.7462,-3.7111,-3.7111,-3.6709,-3.6358,-3.6358,-3.6358,-3.6358,-3.6358,-3.6358,-3.6358,-3.6358,-3.6358,-3.6358,-3.6358,-3.6358,-3.5966,-3.4884,-3.3254,-3.1825,-3.071,-2.9207,-2.8291,-2.8291,-2.8291,-2.8291,-2.8291,-2.8291,-2.8291,-2.8291,-2.8291,-2.8291,-2.8291,-2.8291,-2.8291,-3.9439,-4.0593,-4.1708,-4.1609,-4.198,-4.2445,-4.2571,0.0,0.0,-4.3492,-4.3628,-4.3628,-4.3628,-4.3628,-4.3959,0.0,0.0,0.0,0.0,0.0,0.0,0.0,0.0,0.0,0.0,0.0,0.0,0.0,0.0,0.0,0.0,-5.1,-5.0984,-5.0892,-5.0525,-5.037,-5.0292,-5.0136,-5.0073,-4.9916,-4.9916,-4.971,-4.9284,-4.7954,-4.6819,-4.5688,0.0,0.0,0.0,-4.2194,-4.2092,-4.2092,-4.2092,-4.2092,-4.2092,-4.2092,-4.2092,-4.2092,-4.2092,-4.2092,-4.2092,-4.2092,-4.2092,-4.2092,-4.2092,-4.0731,-3.921,-3.921,-3.7874,-3.6358,-3.6358,-3.6358,-3.6508,-3.7048,-3.7186,-3.7337,-3.7889,-3.7839,-3.7575,-3.7249,-3.701,-3.6747,-3.642,-3.6358,-3.6358,-3.6358,-3.6358,-3.6358,-3.6358,-3.6358,-3.6358,-3.6358,-3.6358,-3.5655,-3.3773,-3.2844,-3.1531,-2.9628,-2.8698,-2.8291,-2.8291,-2.8291,-2.8291,-2.8291,-2.8291,-2.8291,-2.8291,-2.8291,-2.8291,-2.8291,-2.8291,-2.8291,-3.92,-4.0251,-4.1326,-4.1309,-4.1869,-4.2483,0.0,0.0,0.0,-4.3295,-4.3432,-4.3492,-4.3035,-4.3295,-4.38,0.0,0.0,-4.581,0.0,0.0,0.0,0.0,0.0,0.0,0.0,0.0,0.0,0.0,0.0,0.0,0.0,-5.037,-5.0448,-5.0739,-5.023,-5.0073,-5.0292,-5.0073,-4.9916,-4.9916,-4.9552,-4.9127,-4.8561,-4.6915,-4.558,-4.4594,0.0,0.0,0.0,-4.2092,-4.2092,-4.2092,-4.2092,-4.2092,-4.2092,-4.2092,-4.2092,-4.2092,-4.2092,-4.2092,-4.2092,-4.2092,-4.2092,-4.2092,-4.2092,-4.0731,-3.921,-3.921,-3.7874,-3.6358,-3.6358,-3.6358,-3.6508,-3.7048,-3.7312,-3.7575,-3.814,-3.8128,-3.7889,-3.75,-3.7161,-3.681,-3.6433,-3.6358,-3.6358,-3.6358,-3.6358,-3.6358,-3.6358,-3.6358,-3.6358,-3.6275,-3.6275,-3.5475,-3.3464,-3.2644,-3.144,-2.9333,-2.8601,-2.8291,-2.8291,-2.8291,-2.8291,-2.8291,-2.8291,-2.8291,-2.8291,-2.8291,-2.8291,-2.8291,-2.8291,-2.8291,-3.869,-3.9709,-4.088,-4.0674,-4.1319,-4.2092,0.0,0.0,0.0,-4.2648,-4.3113,-4.3157,-4.1787,-4.2648,-4.3603,-4.3685,-4.4847,0.0,0.0,0.0,0.0,0.0,0.0,0.0,0.0,0.0,0.0,0.0,0.0,0.0,0.0,-5.0152,-4.9916,-4.9916,-4.9916,-4.9916,-4.9916,-4.9916,-4.9916,-4.9916,-4.8589,-4.8022,-4.7896,-4.5227,-4.4058,0.0,0.0,0.0,0.0,-4.2092,-4.2092,-4.2092,-4.2092,-4.2092,-4.2092,-4.2092,-4.2092,-4.2092,-4.2092,-4.2092,-4.2092,-4.2092,-4.2092,-4.2092,-4.2092,-4.0731,-3.921,-3.921,-3.7874,-3.6358,-3.6358,-3.6358,-3.6508,-3.7048,-3.76,-3.8153,-3.873,-3.8417,-3.8002,-3.8002,-3.7111,-3.637,-3.6358,-3.6358,-3.6358,-3.6358,-3.6358,-3.6358,-3.6358,-3.6358,-3.6275,-3.6015,-3.6015,-3.5608,-3.4483,-3.3143,-3.1724,-3.0421,-2.9006,-2.8291,-2.8291,-2.8291,-2.8291,-2.8291,-2.8291,-2.8291,-2.8291,-2.8291,-2.8291,-2.8291,-2.8291,-2.8291,-3.9849,-4.0912,-4.197,-4.1959,-4.2509,-4.3075,-4.2986,0.0,0.0,-4.3295,-4.3113,-4.2912,-4.2896,-4.2912,-4.3056,-4.3547,-4.4863,0.0,0.0,0.0,0.0,0.0,0.0,0.0,0.0,0.0,0.0,0.0,0.0,0.0,0.0,-4.9995,-4.9916,-4.9916,-4.9916,-4.9916,-4.9916,-4.9457,-4.897,-4.8573,-4.7698,-4.6793,-4.5871,-4.4644,0.0,0.0,0.0,0.0,0.0,-4.2092,-4.2092,-4.2092,-4.2092,-4.2092,-4.2092,-4.2092,-4.2092,-4.2092,-4.2092,-4.2092,-4.2092,-4.2092,-4.1619,-4.1057,-4.1057,-4.0187,-3.8944,-3.7612,-3.6896,-3.6358,-3.6358,-3.6358,-3.6508,-3.7048,-3.7312,-3.76,-3.8153,-3.8442,-3.8366,-3.7588,-3.7462,-3.7249,-3.6496,-3.6275,-3.6193,-3.6358,-3.6275,-3.6193,-3.6358,-3.6275,-3.6098,-3.6015,-3.5199,-3.419,-3.3166,-3.2465,-3.1246,-2.9333,-2.8601,-2.8291,-2.8291,-2.8291,-2.8291,-2.8291,-2.8291,-2.8291,-2.8291,-2.8291,-2.8291,-2.8291,-2.8291,-2.8291,0.0,-4.1161,-4.2096,-4.2203,-4.2703,0.0,0.0,0.0,0.0,-4.2851,-4.2443,-4.2126,-4.2045,-4.2126,-4.2334,-4.2719,-4.3913,0.0,0.0,0.0,0.0,0.0,0.0,0.0,0.0,0.0,0.0,0.0,0.0,0.0,0.0,0.0,-4.9536,-4.9536,-4.9789,-4.9631,-4.922,-4.8781,-4.8121,-4.7204,-4.6257,-4.5388,-4.4594,-4.3723,0.0,0.0,0.0,0.0,0.0,-4.2092,-4.2092,-4.2092,-4.2092,-4.2092,-4.2092,-4.2092,-4.2092,-4.2092,-4.2092,-4.2092,-4.2092,-4.2092,-4.1437,-4.0504,-4.0159,-3.9373,-3.8315,-3.6803,-3.6358,-3.6358,-3.6358,-3.6358,-3.6445,-3.6784,-3.7036,-3.7274,-3.7626,-3.7977,-3.8027,-3.7215,-3.719,-3.7077,-3.6293,-3.6003,-3.6003,-3.6086,-3.6003,-3.5908,-3.6086,-3.5908,-3.562,-3.5102,-3.4397,-3.3178,-3.1553,-3.1348,-3.0546,-2.8717,-2.8398,-2.8291,-2.8291,-2.8291,-2.8291,-2.8291,-2.8291,-2.8291,-2.8291,-2.8291,-2.8291,-2.8291,-2.8291,-2.8291,0.0,-4.0864,0.0,0.0,0.0,0.0,0.0,0.0,0.0,0.0,0.0,-4.106,-3.9809,-4.0531,-4.1413,-4.1465,-4.2482,0.0,0.0,0.0,0.0,0.0,0.0,0.0,0.0,0.0,0.0,0.0,0.0,0.0,0.0,0.0,-4.8732,-4.8732,-4.9347,-4.9062,-4.7945,-4.7898,-4.7222,-4.5839,-4.4526,-4.3887,-4.379,-4.267,0.0,0.0,0.0,0.0,0.0,-4.2092,-4.2092,-4.2092,-4.2092,-4.2092,-4.2092,-4.2092,-4.2092,-4.2092,-4.2092,-4.2092,-4.2092,-4.2009,-4.1353,-4.0332,-3.9373,-3.8509,-3.7625,-3.6628,-3.6358,-3.6358,-3.6358,-3.6358,-3.6358,-3.6358,-3.6759,-3.7123,-3.7123,-3.7161,-3.7077,-3.6833,-3.6543,-3.6218,-3.5716,-3.5812,-3.592,-3.562,-3.562,-3.562,-3.562,-3.5524,-3.5005,-3.3697,-3.34,-3.2376,-3.013,-3.012,-2.9713,-2.8398,-2.8291,-2.8291,-2.8291,-2.8291,-2.8291,-2.8291,-2.8291,-2.8291,-2.8291,-2.8291,-2.8291,-2.8291,-2.8291,-2.8291,-4.2187,0.0,-4.2439,-4.3015,-4.3048,-4.29,0.0,0.0,0.0,0.0,0.0,0.0,0.0,0.0,-4.0885,0.0,0.0,0.0,0.0,0.0,0.0,0.0,0.0,0.0,0.0,0.0,0.0,0.0,0.0,0.0,0.0,0.0,-4.7341,-4.7341,-4.7117,-4.6957,-4.72,-4.6625,-4.5721,-4.443,-4.3611,-4.2991,-4.2544,-4.2247,0.0,0.0,0.0,0.0,-4.2092,-4.2092,-4.2092,-4.2092,-4.2092,-4.2092,-4.2092,-4.2092,-4.2092,-4.2092,-4.2092,-4.2092,-4.1995,-4.1156,-4.0346,-3.9373,-3.8419,-3.7978,-3.7625,-3.6628,-3.6358,-3.6358,-3.6358,-3.6358,-3.6358,-3.6358,-3.6458,-3.6558,-3.6558,-3.6789,-3.6758,-3.6264,-3.6329,-3.6197,-3.5694,-3.5524,-3.5416,-3.562,-3.5428,-3.532,-3.562,-3.4702,-3.3906,-3.3598,-3.1858,-3.0535,-2.9922,-2.9922,-2.9513,-2.8398,-2.8291,-2.8291,-2.8291,-2.8291,-2.8291,-2.8291,-2.8291,-2.8291,-2.8291,-2.8291,-2.8291,-2.8291,-2.8291,-2.8291,-4.2629,-4.2726,-4.271,-4.3235,-4.299,-4.2601,-4.2333,0.0,0.0,0.0,0.0,0.0,0.0,0.0,0.0,0.0,0.0,0.0,0.0,0.0,0.0,0.0,0.0,0.0,0.0,0.0,0.0,0.0,0.0,0.0,0.0,0.0,-4.6001,-4.6001,-4.5395,-4.5221,-4.5605,-4.5175,-4.4379,-4.3137,-4.2784,-4.2392,-4.2092,-4.2092,-4.2092,0.0,0.0,0.0,-4.2092,-4.2092,-4.2092,-4.2092,-4.2092,-4.2092,-4.2092,-4.2092,-4.2092,-4.2092,-4.2092,-4.1814,-4.1339,-4.0788,-3.9637,-3.8419,-3.7991,-3.7546,-3.7083,-3.6546,-3.6358,-3.6358,-3.6358,-3.6358,-3.6358,-3.6358,-3.6358,-3.6358,-3.6275,-3.6322,-3.6242,-3.5766,-3.5854,-3.5855,-3.5381,-3.5223,-3.5223,-3.5223,-3.5126,-3.503,-3.5223,-3.4201,-3.3201,-3.2689,-3.1051,-2.9723,-2.9217,-2.9207,-2.891,-2.8291,-2.8291,-2.8291,-2.8291,-2.8291,-2.8291,-2.8291,-2.8291,-2.8291,-2.8291,-2.8291,-2.8291,-2.8291,-2.8291,-2.8291,-4.2429,-4.2476,-4.2396,-4.2789,-4.2412,-4.19,-4.1591,0.0,0.0,0.0,0.0,0.0,0.0,0.0,0.0,0.0,0.0,0.0,0.0,0.0,0.0,0.0,0.0,0.0,0.0,0.0,0.0,0.0,0.0,0.0,0.0,0.0,0.0,-4.4698,-4.3995,-4.3648,-4.3731,-4.3812,-4.3234,-4.2092,-4.2092,-4.2092,-4.2092,-4.2092,-4.2092,0.0,0.0,0.0,-4.2092,-4.2092,-4.2092,-4.2092,-4.2092,-4.2092,-4.2092,-4.2092,-4.2092,-4.2092,-4.2092,-4.1437,-4.0603,-4.0603,-3.9285,-3.7808,-3.7808,-3.7176,-3.6358,-3.6358,-3.6358,-3.6358,-3.6358,-3.6358,-3.6358,-3.637,-3.637,-3.6275,-3.6003,-3.592,-3.5716,-3.532,-3.532,-3.532,-3.4932,-3.503,-3.503,-3.4823,-3.4823,-3.4823,-3.4823,-3.3709,-3.26,-3.1677,-3.0442,-2.9313,-2.8398,-2.8291,-2.8291,-2.8291,-2.8291,-2.8291,-2.8291,-2.8291,-2.8291,-2.8291,-2.8291,-2.8291,-2.8291,-2.8291,-2.8291,-2.8291,-2.8291,-2.8291,-4.2412,-4.1819,-4.1241,-4.1868,-4.1738,-4.1209,-4.0378,0.0,0.0,0.0,0.0,0.0,0.0,0.0,0.0,0.0,0.0,0.0,0.0,0.0,0.0,0.0,0.0,0.0,0.0,0.0,0.0,0.0,0.0,0.0,0.0,0.0,0.0,-4.3304,-4.2681,-4.2368,-4.2388,-4.2917,-4.2791,-4.2092,-4.2092,-4.2092,-4.2092,-4.2092,-4.2092,0.0,0.0,-4.2092,-4.2092,-4.2092,-4.2092,-4.2092,-4.2092,-4.2092,-4.2092,-4.2092,-4.2092,-4.2092,-4.2092,-4.1437,-4.0603,-4.0603,-3.9285,-3.7808,-3.7808,-3.7176,-3.6358,-3.6358,-3.6358,-3.6358,-3.6358,-3.6358,-3.637,-3.6098,-3.6098,-3.6015,-3.5716,-3.5524,-3.532,-3.5223,-3.503,-3.4932,-3.4823,-3.4823,-3.4823,-3.4835,-3.4823,-3.4823,-3.4823,-3.3101,-3.1779,-3.1575,-2.9733,-2.8495,-2.8291,-2.8291,-2.8291,-2.8291,-2.8291,-2.8291,-2.8291,-2.8291,-2.8291,-2.8291,-2.8291,-2.8291,-2.8291,-2.8291,-2.8291,-2.8291,-2.8291,-2.8291,-4.1623,-4.1241,-4.0715,-4.0393,-4.0324,-4.0115,-3.9565,-3.9349,0.0,0.0,0.0,0.0,0.0,0.0,0.0,0.0,0.0,0.0,0.0,0.0,0.0,0.0,0.0,0.0,0.0,0.0,0.0,0.0,0.0,0.0,0.0,0.0,0.0,0.0,-4.3088,-4.3123,-4.3123,-4.3431,-4.324,-4.2586,-4.2948,-4.3123,-4.3123,-4.3123,-4.3123,-4.3123,0.0,-4.3123,-4.3123,-4.3123,-4.2905,-4.2586,-4.2586,-4.2382,-4.2092,-4.2092,-4.2092,-4.2092,-4.2092,-4.1666,-4.1022,-4.0484,-3.9631,-3.8629,-3.8088,-3.7622,-3.7249,-3.7249,-3.6822,-3.6358,-3.6358,-3.6275,-3.6193,-3.6015,-3.5908,-3.5716,-3.5416,-3.532,-3.5126,-3.503,-3.4932,-3.4823,-3.4823,-3.4823,-3.4823,-3.4823,-3.4823,-3.4823,-3.4823,-3.2901,-3.1575,-3.1575,-2.9628,-2.8291,-2.8291,-2.8291,-2.8291,-2.8291,-2.8291,-2.8291,-2.8291,-2.8291,-2.8291,-2.8291,-2.8291,-2.8291,-2.8291,-2.8291,-2.8291,-2.8291,-2.8291,-2.8291,-4.0935,-4.0715,-4.0355,-3.9379,0.0,-3.9235,-3.8943,-3.8797,0.0,0.0,0.0,0.0,0.0,0.0,0.0,0.0,0.0,0.0,0.0,0.0,0.0,0.0,0.0,0.0,0.0,0.0,0.0,0.0,0.0,0.0,0.0,0.0,0.0,0.0,-4.3718,-4.3993,-4.3993,-4.4124,-4.3863,-4.3239,-4.3747,-4.3993,-4.3993,-4.3993,-4.3993,-4.3993,-4.3993,-4.3993,-4.3993,-4.3993,-4.3689,-4.3224,-4.3224,-4.2847,-4.231,-4.231,-4.2028,-4.1702,-4.1558,-4.1114,-4.0382,-3.9419,-3.8793,-3.8346,-3.7513,-3.7236,-3.7236,-3.7139,-3.6538,-3.5975,-3.6363,-3.6185,-3.5908,-3.5824,-3.562,-3.5428,-3.5126,-3.5126,-3.503,-3.4823,-3.4823,-3.4823,-3.4823,-3.4823,-3.4823,-3.4823,-3.4823,-3.4823,-3.4823,-3.2901,-3.1575,-3.1575,-2.9628,-2.8291,-2.8291,-2.8291,-2.8291,-2.8291,-2.8291,-2.8291,-2.8291,-2.8291,-2.8291,-2.8291,-2.8291,-2.8291,-2.8291,-2.8291,-2.8291,-2.8291,-2.8291,-2.8291,-4.0935,-4.0409,-3.9834,-3.9235,-3.9104,0.0,-3.8427,-3.8277,0.0,-3.9,0.0,0.0,0.0,0.0,0.0,0.0,0.0,0.0,0.0,0.0,0.0,0.0,0.0,0.0,0.0,0.0,0.0,0.0,0.0,0.0,0.0,0.0,0.0,0.0,0.0,-4.3993,-4.3993,-4.4545,-4.4516,-4.3921,-4.3964,-4.3993,-4.3993,-4.3993,-4.3993,-4.3993,-4.3993,-4.3993,-4.3993,-4.3993,-4.3964,-4.3921,-4.3921,-4.3515,-4.2934,-4.2934,-4.2008,-4.0618,-4.0167,-3.8783,-3.724,-3.6599,-3.5775,-3.5042,-3.4964,-3.4964,-3.4873,-3.4703,-3.4562,-3.494,-3.6338,-3.617,-3.5524,-3.532,-3.5223,-3.5126,-3.492,-3.4835,-3.4823,-3.4823,-3.4823,-3.4823,-3.4823,-3.4823,-3.4823,-3.4823,-3.4823,-3.4823,-3.4823,-3.2901,-3.1575,-3.1575,-2.9628,-2.8291,-2.8291,-2.8291,-2.8291,-2.8291,-2.8291,-2.8291,-2.8291,-2.8291,-2.8291,-2.8291,-2.8291,-2.8291,-2.8291,-2.8291,-2.8291,-2.8291,-2.8291,-2.8291,-3.9879,-3.9595,-3.9397,-3.9163,-3.913,0.0,0.0,-3.8812,-3.9349,-3.9233,-3.9509,0.0,0.0,0.0,0.0,0.0,0.0,0.0,0.0,0.0,0.0,0.0,0.0,0.0,0.0,0.0,0.0,0.0,0.0,0.0,0.0,0.0,0.0,0.0,0.0,-4.5169,-4.5169,-4.5401,-4.5401,-4.5169,-4.5169,-4.5169,-4.5169,-4.5169,-4.5169,-4.5169,-4.5169,-4.5169,-4.5169,-4.5169,-4.4922,-4.4472,-4.3674,-4.2992,-4.2382,-4.1961,-4.105,-4.0055,-3.945,-3.8627,-3.7765,-3.695,-3.6688,-3.6533,-3.5717,-3.5544,-3.545,-3.5288,-3.4854,-3.4551,-3.4996,-3.4748,-3.4332,-3.4238,-3.4144,-3.3968,-3.3873,-3.4114,-3.4342,-3.4342,-3.4595,-3.4823,-3.4823,-3.4823,-3.4823,-3.4823,-3.4823,-3.4823,-3.4823,-3.2901,-3.1455,-3.116,-2.8962,-2.75,-2.75,-2.75,-2.7617,-2.7891,-2.8144,-2.8291,-2.8291,-2.8291,-2.8291,-2.8291,-2.8291,-2.8291,-2.8291,-2.8291,-2.8291,-2.8291,-2.8291,-2.8291,-3.9235,-3.9238,-3.9358,-3.9226,0.0,0.0,-3.8942,-3.9465,-4.0046,-3.9842,-4.0292,0.0,0.0,0.0,0.0,0.0,0.0,0.0,0.0,0.0,0.0,0.0,0.0,0.0,0.0,0.0,0.0,0.0,0.0,0.0,0.0,0.0,0.0,0.0,0.0,-4.588,-4.588,-4.588,-4.588,-4.588,-4.5677,-4.5692,-4.588,-4.588,-4.588,-4.588,-4.588,-4.5764,-4.5576,-4.5576,-4.5068,-4.4182,-4.3123,-4.2324,-4.1729,-4.1265,-4.0199,-3.8922,-3.8393,-3.7686,-3.687,-3.6025,-3.5967,-3.6097,-3.5211,-3.4935,-3.4854,-3.4588,-3.4132,-3.3674,-3.3374,-3.3363,-3.355,-3.355,-3.3377,-3.3284,-3.3284,-3.3561,-3.3801,-3.3801,-3.409,-3.4342,-3.4342,-3.4342,-3.4342,-3.4342,-3.4342,-3.4246,-3.3934,-3.2225,-3.0795,-2.977,-2.8076,-2.7012,-2.7012,-2.7012,-2.7148,-2.7441,-2.7734,-2.8008,-2.8281,-2.8291,-2.8291,-2.8291,-2.8291,-2.8291,-2.8291,-2.8291,-2.8291,-2.8291,-2.8291,-2.8291,-3.9235,-3.9565,-3.989,0.0,0.0,0.0,-4.0263,-4.0118,-4.0307,-4.0974,0.0,0.0,0.0,0.0,0.0,0.0,0.0,0.0,0.0,0.0,0.0,0.0,0.0,0.0,0.0,0.0,0.0,0.0,0.0,0.0,0.0,0.0,0.0,0.0,0.0,0.0,-4.5866,-4.5866,-4.5866,-4.5866,-4.5198,-4.5227,-4.588,-4.5866,-4.5866,-4.5866,-4.5866,-4.5474,-4.4864,-4.4864,-4.4124,-4.2919,-4.2324,-4.1686,-4.1091,-4.1076,-3.9476,-3.7253,-3.6754,-3.5378,-3.3796,-3.3257,-3.2896,-3.2711,-3.2711,-3.255,-3.23,-3.2038,-3.2038,-3.1937,-3.1761,-3.2466,-3.3272,-3.3272,-3.3272,-3.3272,-3.3272,-3.3284,-3.3284,-3.3284,-3.3284,-3.3284,-3.3284,-3.3284,-3.3284,-3.3284,-3.3296,-3.2899,-3.191,-3.0823,-2.925,-2.7206,-2.7002,-2.7002,-2.7002,-2.7002,-2.7002,-2.7012,-2.7012,-2.7393,-2.8252,-2.8281,-2.8291,-2.8291,-2.8291,-2.8291,-2.8291,-2.8291,-2.8291,-2.8291,-2.8291,-2.8291,-3.9071,-3.9259,0.0,-4.0386,0.0,0.0,0.0,-4.1512,0.0,0.0,0.0,0.0,0.0,0.0,0.0,0.0,0.0,0.0,0.0,0.0,0.0,0.0,0.0,0.0,0.0,0.0,0.0,0.0,0.0,0.0,0.0,0.0,0.0,0.0,0.0,0.0,-4.4545,-4.4545,-4.4545,-4.4545,-4.4342,-4.4574,-4.5169,-4.4748,-4.4298,-4.3848,-4.3848,-4.35,-4.2919,-4.2919,-4.2426,-4.1642,-4.1468,-4.0651,-3.9534,-3.8984,-3.762,-3.5804,-3.5235,-3.4309,-3.3294,-3.2946,-3.2797,-3.2624,-3.2288,-3.2213,-3.2038,-3.1849,-3.1761,-3.1761,-3.1749,-3.1901,-3.2142,-3.2142,-3.2142,-3.2142,-3.2142,-3.2454,-3.2743,-3.2743,-3.3032,-3.3284,-3.3284,-3.3284,-3.3284,-3.3284,-3.27,-3.1613,-2.9742,-2.8985,-2.811,-2.6773,-2.6299,-2.6113,-2.6113,-2.6113,-2.625,-2.6553,-2.6572,-2.6963,-2.7822,-2.7851,-2.7988,-2.8281,-2.8291,-2.8291,-2.8291,-2.8291,-2.8291,-2.8291,-2.8291,-2.8291,-3.903,0.0,0.0,0.0,0.0,0.0,0.0,0.0,0.0,0.0,0.0,0.0,0.0,0.0,0.0,0.0,0.0,0.0,0.0,0.0,0.0,0.0,0.0,0.0,0.0,0.0,0.0,0.0,0.0,0.0,0.0,0.0,0.0,0.0,0.0,0.0,-4.3993,-4.3993,-4.3863,-4.3587,-4.3355,-4.3112,-4.2926,-4.3343,-4.3239,-4.2615,-4.199,-4.1688,-4.1657,-4.0795,-4.0173,-3.98,-3.9556,-3.872,-3.7507,-3.7132,-3.6103,-3.4926,-3.4515,-3.3738,-3.2896,-3.2711,-3.255,-3.2376,-3.2125,-3.1937,-3.1849,-3.1749,-3.1661,-3.1661,-3.1661,-3.1661,-3.1661,-3.1661,-3.1661,-3.1661,-3.1661,-3.1925,-3.2166,-3.2166,-3.243,-3.2647,-3.2647,-3.2647,-3.2544,-3.2153,-3.0913,-2.9469,-2.8213,-2.7508,-2.6889,-2.6231,-2.5898,-2.5742,-2.5742,-2.5742,-2.585,-2.6113,-2.6133,-2.6435,-2.7129,-2.749,-2.7783,-2.8037,-2.8203,-2.8291,-2.8291,-2.8291,-2.8291,-2.8291,-2.8291,-2.8291,-3.9175,0.0,0.0,0.0,0.0,0.0,0.0,0.0,0.0,0.0,0.0,0.0,0.0,0.0,0.0,0.0,0.0,0.0,0.0,0.0,0.0,0.0,0.0,0.0,0.0,0.0,0.0,0.0,0.0,0.0,0.0,0.0,0.0,0.0,0.0,0.0,-4.3531,-4.3531,-4.3199,0.0,-4.2002,-4.1007,-3.9606,-4.1734,-4.2397,-4.1623,-4.0094,-3.9893,-4.0487,-3.8484,-3.7686,-3.763,-3.699,-3.6281,-3.5467,-3.5467,-3.5006,-3.4314,-3.423,-3.3556,-3.2711,-3.2624,-3.2376,-3.2038,-3.1937,-3.1849,-3.1661,-3.1661,-3.1661,-3.1661,-3.1661,-3.1661,-3.1661,-3.1661,-3.1661,-3.1661,-3.1661,-3.1661,-3.1661,-3.1661,-3.1661,-3.1661,-3.1661,-3.1661,-3.1294,-3.026,-2.8402,-2.7189,-2.7094,-2.6284,-2.5742,-2.5742,-2.5742,-2.5742,-2.5742,-2.5742,-2.5742,-2.5742,-2.5742,-2.5918,-2.6309,-2.7119,-2.7588,-2.7666,-2.8047,-2.8252,-2.8291,-2.8291,-2.8291,-2.8291,-2.8291,-2.8291,0.0,-4.0786,0.0,0.0,0.0,0.0,0.0,0.0,0.0,0.0,0.0,0.0,0.0,0.0,0.0,0.0,0.0,0.0,0.0,0.0,0.0,0.0,0.0,0.0,0.0,0.0,0.0,0.0,0.0,0.0,0.0,0.0,0.0,0.0,0.0,-4.0211,-4.0211,-4.0211,-3.9922,0.0,-3.9277,-3.8572,-3.7373,-3.9696,-4.0046,-3.8762,-3.7204,-3.6605,-3.6753,-3.6236,-3.6047,-3.6047,-3.5924,-3.54,-3.462,-3.462,-3.4147,-3.3326,-3.3142,-3.2884,-3.2624,-3.2288,-3.2113,-3.195,-3.1849,-3.1749,-3.1661,-3.1661,-3.1661,-3.1661,-3.1661,-3.1661,-3.1661,-3.1661,-3.1661,-3.1661,-3.1661,-3.1661,-3.1661,-3.1661,-3.1661,-3.1661,-3.1661,-3.1661,-3.1104,-2.9326,-2.8028,-2.6914,-2.61,-2.582,-2.5742,-2.5742,-2.5742,-2.5742,-2.5742,-2.5742,-2.5742,-2.5742,-2.5742,-2.5781,-2.5879,-2.6387,-2.6982,-2.7656,-2.7754,-2.7959,-2.8291,-2.8291,-2.8291,-2.8291,-2.8291,-2.8291,0.0,0.0,0.0,0.0,0.0,0.0,0.0,0.0,0.0,0.0,0.0,0.0,0.0,0.0,0.0,0.0,0.0,0.0,0.0,0.0,0.0,0.0,0.0,0.0,0.0,0.0,0.0,0.0,0.0,0.0,0.0,0.0,0.0,0.0,-3.921,-3.921,-3.921,-3.8925,-3.8491,-3.7894,-3.7694,-3.7082,-3.6198,-3.739,-3.7536,-3.6723,-3.5534,-3.5237,-3.5534,-3.5156,-3.5006,-3.5006,-3.5006,-3.4538,-3.3738,-3.3641,-3.3313,-3.2896,-3.2636,-3.2463,-3.2288,-3.2113,-3.1937,-3.1849,-3.1749,-3.1661,-3.1661,-3.1661,-3.1661,-3.1661,-3.1661,-3.1661,-3.1661,-3.1661,-3.1661,-3.1661,-3.1661,-3.1661,-3.1661,-3.1661,-3.1661,-3.1661,-3.1661,-3.0913,-2.9886,-2.8866,-2.7379,-2.6284,-2.5732,-2.5742,-2.5742,-2.5742,-2.5742,-2.5742,-2.5742,-2.5742,-2.5742,-2.5742,-2.5742,-2.5742,-2.5742,-2.5957,-2.6387,-2.7041,-2.7461,-2.7773,-2.7988,-2.8193,-2.8291,-2.8291,-2.7745,-2.7413,0.0,0.0,0.0,0.0,0.0,0.0,0.0,0.0,0.0,0.0,0.0,0.0,0.0,0.0,0.0,0.0,0.0,0.0,0.0,0.0,0.0,0.0,0.0,0.0,0.0,0.0,0.0,0.0,0.0,0.0,0.0,0.0,-3.8765,-3.8765,-3.8765,-3.8622,-3.8515,-3.8121,-3.7544,-3.6775,-3.627,-3.572,-3.5142,-3.5142,-3.5224,-3.5305,-3.4538,-3.4538,-3.5142,-3.4454,-3.4147,-3.4147,-3.4147,-3.3738,-3.3068,-3.281,-3.2711,-3.2624,-3.2388,-3.2213,-3.2025,-3.195,-3.1849,-3.1661,-3.1661,-3.1661,-3.1661,-3.1661,-3.1661,-3.1661,-3.1661,-3.1661,-3.1661,-3.1661,-3.1661,-3.1661,-3.1661,-3.1661,-3.1661,-3.1661,-3.1661,-3.1661,-3.1661,-3.0068,-2.868,-2.868,-2.703,-2.5742,-2.5742,-2.5742,-2.5742,-2.5742,-2.5742,-2.5742,-2.5742,-2.5742,-2.5742,-2.5742,-2.5742,-2.5742,-2.5742,-2.5742,-2.5908,-2.6269,-2.7041,-2.748,-2.7559,-2.7978,-2.8077,-2.7854,-2.6933,-2.6409,0.0,0.0,0.0,0.0,0.0,0.0,0.0,0.0,0.0,0.0,0.0,0.0,0.0,0.0,0.0,0.0,0.0,0.0,0.0,0.0,0.0,0.0,0.0,0.0,0.0,0.0,0.0,0.0,0.0,0.0,0.0,-3.6803,-3.6803,-3.6803,-3.6803,-3.6481,-3.5999,-3.5923,-3.5377,-3.4337,-3.3865,-3.3547,-3.3398,-3.3398,-3.381,-3.4551,-3.3654,-3.3313,-3.3398,-3.3326,-3.324,-3.324,-3.324,-3.3154,-3.3068,-3.281,-3.2711,-3.2624,-3.2201,-3.2038,-3.195,-3.1761,-3.1749,-3.1661,-3.1661,-3.1661,-3.1661,-3.1661,-3.1661,-3.1661,-3.1661,-3.1661,-3.1661,-3.1661,-3.1661,-3.1661,-3.1661,-3.1661,-3.1661,-3.1661,-3.1661,-3.1661,-3.1661,-3.0068,-2.868,-2.868,-2.703,-2.5742,-2.5742,-2.5742,-2.5742,-2.5742,-2.5742,-2.5742,-2.5742,-2.5742,-2.5742,-2.5742,-2.5742,-2.5742,-2.5742,-2.5742,-2.5762,-2.582,-2.6309,-2.6738,-2.71,-2.7539,-2.7209,-2.6236,-2.6362,-2.5963,0.0,0.0,0.0,0.0,0.0,0.0,0.0,0.0,0.0,0.0,0.0,0.0,0.0,0.0,0.0,0.0,0.0,0.0,0.0,0.0,0.0,0.0,0.0,0.0,0.0,0.0,0.0,0.0,0.0,0.0,-3.6358,-3.6358,-3.6358,-3.6358,-3.6056,-3.5793,-3.5542,-3.4926,-3.4223,-3.3432,-3.3194,-3.3081,-3.3081,-3.3081,-3.3326,-3.3654,-3.324,-3.3081,-3.3081,-3.3081,-3.3081,-3.3081,-3.2896,-3.2896,-3.281,-3.2463,-3.2288,-3.2288,-3.1937,-3.1849,-3.1849,-3.1749,-3.1661,-3.1661,-3.1661,-3.1661,-3.1661,-3.1661,-3.1661,-3.1661,-3.1661,-3.1661,-3.1661,-3.1661,-3.1661,-3.1661,-3.1661,-3.1661,-3.1661,-3.1661,-3.1661,-3.1472,-3.0913,-2.9704,-2.8495,-2.7934,-2.6658,-2.5742,-2.5742,-2.5742,-2.5742,-2.5742,-2.5742,-2.5742,-2.5742,-2.5742,-2.5742,-2.5742,-2.5742,-2.5742,-2.5742,-2.5742,-2.5742,-2.5742,-2.6162,-2.6484,-2.667,-2.6464,-2.6134,-2.5601,-2.4471,-2.3678,0.0,0.0,0.0,0.0,0.0,0.0,0.0,0.0,0.0,0.0,0.0,0.0,0.0,0.0,0.0,0.0,0.0,0.0,0.0,0.0,0.0,0.0,0.0,0.0,0.0,0.0,0.0,0.0,0.0,0.0,-3.6358,-3.6358,-3.6295,-3.6157,-3.5755,-3.5416,-3.514,-3.4173,-3.3483,-3.3081,-3.3081,-3.3081,-3.3081,-3.3081,-3.3081,-3.3081,-3.3081,-3.3081,-3.3068,-3.2995,-3.2995,-3.2982,-3.2723,-3.2636,-3.255,-3.2113,-3.2038,-3.195,-3.1749,-3.1661,-3.1661,-3.1661,-3.1661,-3.1661,-3.1661,-3.1661,-3.1661,-3.1661,-3.1661,-3.1661,-3.1661,-3.1661,-3.1661,-3.1661,-3.1661,-3.1661,-3.1661,-3.1661,-3.1661,-3.1661,-3.1472,-3.1104,-3.0351,-2.9143,-2.8017,-2.7274,-2.637,-2.5742,-2.5742,-2.5742,-2.5742,-2.5742,-2.5742,-2.5742,-2.5742,-2.5742,-2.5742,-2.5742,-2.5742,-2.5742,-2.5742,-2.5742,-2.5742,-2.5742,-2.6055,-2.6121,-2.5804,-2.5396,-2.4963,-2.4331,-2.2732,-2.1818,0.0,0.0,0.0,0.0,0.0,0.0,0.0,0.0,0.0,0.0,0.0,0.0,0.0,0.0,0.0,0.0,0.0,0.0,0.0,0.0,0.0,0.0,0.0,0.0,0.0,0.0,0.0,0.0,0.0,0.0,-3.6358,-3.6358,-3.6119,-3.5604,-3.5567,-3.5039,-3.3997,-3.3407,-3.3106,-3.3081,-3.3081,-3.3081,-3.3081,-3.3081,-3.3081,-3.3081,-3.3081,-3.3081,-3.3068,-3.281,-3.2711,-3.2711,-3.2475,-3.2388,-3.2388,-3.2125,-3.2038,-3.195,-3.1749,-3.1661,-3.1661,-3.1661,-3.1661,-3.1661,-3.1661,-3.1661,-3.1661,-3.1661,-3.1661,-3.1661,-3.1661,-3.1661,-3.1661,-3.1661,-3.1661,-3.1661,-3.1661,-3.1661,-3.1661,-3.1661,-3.0913,-3.026,-3.017,-2.8588,-2.7284,-2.7189,-2.637,-2.5742,-2.5742,-2.5742,-2.5742,-2.5742,-2.5742,-2.5742,-2.5742,-2.5742,-2.5742,-2.5742,-2.5742,-2.5742,-2.5742,-2.5742,-2.5742,-2.5742,-2.5762,-2.5254,-2.4223,-2.4656,-2.3727,-2.1651,-2.1881,-2.1395,0.0,0.0,0.0,0.0,0.0,0.0,0.0,0.0,0.0,0.0,0.0,0.0,0.0,0.0,0.0,0.0,0.0,0.0,0.0,0.0,0.0,0.0,0.0,0.0,0.0,0.0,0.0,0.0,0.0,0.0,-3.6358,-3.6031,-3.5742,-3.5554,-3.4864,-3.4123,-3.3382,-3.3181,-3.3081,-3.3081,-3.3081,-3.3081,-3.3068,-3.2692,-3.2444,-3.2372,-3.2372,-3.2571,-3.281,-3.2723,-3.2636,-3.2475,-3.2213,-3.2125,-3.2125,-3.1849,-3.1849,-3.1761,-3.1749,-3.1661,-3.1661,-3.1661,-3.1661,-3.1661,-3.1661,-3.1661,-3.1661,-3.1661,-3.1661,-3.1661,-3.1661,-3.1661,-3.1661,-3.1661,-3.1661,-3.1661,-3.1661,-3.1661,-3.1484,-3.0824,-3.0453,-2.9795,-2.8495,-2.7652,-2.701,-2.637,-2.5917,-2.5742,-2.5742,-2.5742,-2.5742,-2.5742,-2.5742,-2.5742,-2.5742,-2.5742,-2.5742,-2.5742,-2.5742,-2.5742,-2.5742,-2.5742,-2.5742,-2.5742,-2.5742,-2.5528,-2.5118,-2.3954,-2.29,-2.2087,-2.0786,-2.0031,-3.5991,0.0,0.0,0.0,0.0,0.0,0.0,0.0,0.0,0.0,0.0,0.0,0.0,0.0,0.0,0.0,0.0,0.0,0.0,0.0,0.0,0.0,0.0,0.0,0.0,0.0,0.0,0.0,0.0,0.0,-3.6094,-3.5567,-3.519,-3.5002,-3.411,-3.3445,-3.3081,-3.3081,-3.3081,-3.3081,-3.3081,-3.2968,-3.2767,-3.2306,-3.1959,-3.163,-3.1534,-3.1856,-3.2376,-3.2476,-3.2376,-3.2213,-3.2038,-3.1937,-3.1849,-3.1761,-3.1661,-3.1661,-3.1661,-3.1661,-3.1661,-3.1661,-3.1661,-3.1661,-3.1661,-3.1661,-3.1661,-3.1661,-3.1661,-3.1661,-3.1661,-3.1661,-3.1661,-3.1661,-3.1661,-3.1572,-3.1294,-3.1193,-3.1003,-3.0351,-2.9601,-2.8773,-2.7474,-2.6914,-2.6466,-2.583,-2.5742,-2.5742,-2.5742,-2.5742,-2.5742,-2.5742,-2.5742,-2.5742,-2.5742,-2.5742,-2.5742,-2.5742,-2.5742,-2.5742,-2.5742,-2.5742,-2.5742,-2.5742,-2.5323,-2.5118,-2.5128,-2.3402,-2.2089,-2.1387,-1.9983,-1.9279,0.0,0.0,0.0,0.0,0.0,0.0,0.0,0.0,0.0,0.0,0.0,0.0,0.0,0.0,0.0,0.0,0.0,0.0,0.0,0.0,0.0,0.0,0.0,0.0,0.0,0.0,0.0,0.0,0.0,-3.5516,-3.5516,-3.5002,-3.4449,-3.3884,-3.3357,-3.3081,-3.3081,-3.3081,-3.3081,-3.3081,-3.3081,-3.2767,-3.2215,-3.1963,-3.158,-3.1071,-3.0881,-3.1023,-3.1577,-3.1857,-3.1989,-3.1901,-3.1713,-3.1613,-3.1613,-3.1613,-3.1613,-3.1613,-3.1613,-3.1613,-3.1625,-3.1637,-3.1637,-3.1637,-3.1661,-3.1661,-3.1661,-3.1661,-3.1661,-3.1661,-3.1661,-3.1661,-3.1661,-3.1661,-3.1661,-3.1383,-3.0351,-3.017,-3.0079,-3.0079,-2.8588,-2.7189,-2.7189,-2.638,-2.5742,-2.5742,-2.5742,-2.5742,-2.5742,-2.5742,-2.5742,-2.5742,-2.5742,-2.5742,-2.5742,-2.5742,-2.5742,-2.5742,-2.5742,-2.5742,-2.5742,-2.5742,-2.5645,-2.5635,-2.4609,-2.4088,-2.3989,-2.2985,-2.1387,-1.9383,-1.9272,-1.9279,-3.5223,0.0,0.0,0.0,0.0,0.0,0.0,0.0,0.0,0.0,0.0,0.0,0.0,0.0,0.0,0.0,0.0,0.0,0.0,0.0,0.0,0.0,0.0,0.0,0.0,0.0,0.0,0.0,-3.5265,-3.4951,-3.4951,-3.4424,-3.3872,-3.3319,-3.3156,-3.3081,-3.3081,-3.3081,-3.3081,-3.3081,-3.3081,-3.2767,-3.2202,-3.1718,-3.1091,-3.0269,-3.0163,-3.0086,-2.9951,-3.0627,-3.0773,-3.0616,-3.0518,-3.0518,-3.0518,-3.0518,-3.0518,-3.0518,-3.0518,-3.0518,-3.0591,-3.0975,-3.1096,-3.1168,-3.1541,-3.1661,-3.1661,-3.1661,-3.1661,-3.1661,-3.1661,-3.1661,-3.1472,-3.0824,-3.0633,-3.0351,-2.9326,-2.8577,-2.8028,-2.8028,-2.7558,-2.701,-2.6284,-2.5917,-2.5742,-2.5742,-2.5742,-2.5742,-2.5742,-2.5742,-2.5742,-2.5742,-2.5742,-2.5742,-2.5742,-2.5742,-2.5742,-2.5742,-2.5742,-2.5742,-2.5742,-2.5742,-2.5323,-2.4599,-2.4295,-2.3384,-2.1785,-2.1489,-2.1089,-2.0483,-1.968,-1.9279,-3.503,-3.5126,0.0,0.0,0.0,0.0,0.0,-3.5186,0.0,0.0,0.0,0.0,0.0,0.0,0.0,0.0,0.0,0.0,0.0,0.0,0.0,0.0,0.0,0.0,0.0,0.0,0.0,0.0,-3.4688,-3.4274,-3.4048,-3.3734,-3.3407,-3.3081,-3.3081,-3.3081,-3.3081,-3.3081,-3.3068,-3.2896,-3.2757,-3.2259,-3.1614,-3.0971,-3.0264,-2.945,-2.937,-2.9209,-2.8991,-2.9455,-2.976,-3.0086,-3.0086,-3.0086,-3.0086,-3.0086,-3.0086,-3.0086,-3.0086,-3.0086,-3.017,-3.0699,-3.0879,-3.0975,-3.1504,-3.1661,-3.1661,-3.1661,-3.1661,-3.1661,-3.1661,-3.1383,-3.0913,-3.0351,-2.9886,-2.9326,-2.8308,-2.7652,-2.7189,-2.7189,-2.6819,-2.637,-2.583,-2.5742,-2.5742,-2.5742,-2.5742,-2.5742,-2.5742,-2.5742,-2.5742,-2.5742,-2.5742,-2.5742,-2.5742,-2.5742,-2.5742,-2.5742,-2.5742,-2.5742,-2.5742,-2.5226,-2.4707,-2.4088,-2.3185,-2.1887,-2.0181,-2.0688,-2.0688,-2.0181,-1.9576,-1.9279,-3.4823,-3.4932,-3.5114,0.0,0.0,0.0,-3.4642,-3.4237,-3.3961,0.0,0.0,0.0,0.0,0.0,0.0,0.0,0.0,0.0,0.0,0.0,0.0,0.0,0.0,0.0,0.0,0.0,-3.4625,-3.4625,-3.4123,-3.3596,-3.3106,-3.3081,-3.3081,-3.3081,-3.3068,-3.3081,-3.3081,-3.2995,-3.2896,-3.2624,-3.2164,-3.1462,-3.0765,-3.0025,-2.9314,-2.8803,-2.8578,-2.851,-2.851,-2.851,-2.9063,-2.9917,-2.9917,-2.9917,-2.9917,-2.9917,-2.9917,-2.9917,-2.9917,-2.9917,-3.0013,-3.0603,-3.0783,-3.0903,-3.148,-3.1661,-3.1661,-3.1661,-3.1661,-3.1661,-3.156,-3.0913,-3.017,-2.9886,-2.9143,-2.8215,-2.7284,-2.6999,-2.6999,-2.6999,-2.6274,-2.5742,-2.5742,-2.5742,-2.5742,-2.5742,-2.5742,-2.5742,-2.5742,-2.5742,-2.5742,-2.5742,-2.5742,-2.5742,-2.5742,-2.5742,-2.5742,-2.5742,-2.5635,-2.5528,-2.5528,-2.4501,-2.389,-2.3791,-2.1785,-2.0285,-1.9279,-2.0285,-2.0181,-1.9279,-1.9279,-1.9279,0.0,0.0,0.0,0.0,0.0,0.0,-3.3712,-3.3623,-3.371,0.0,0.0,0.0,0.0,0.0,0.0,0.0,0.0,0.0,0.0,0.0,0.0,0.0,0.0,0.0,0.0,0.0,-3.406,-3.406,-3.3545,-3.3194,-3.3081,-3.3081,-3.3081,-3.3081,-3.2896,-3.281,-3.281,-3.2649,-3.2475,-3.2463,-3.192,-3.139,-3.0765,-3.0212,-2.9487,-2.8791,-2.8724,-2.8657,-2.851,-2.851,-2.8631,-2.8823,-2.8823,-2.8823,-2.8823,-2.8823,-2.8823,-2.8823,-2.8823,-2.8823,-2.8979,-2.9929,-3.0242,-3.0422,-3.1372,-3.1661,-3.1661,-3.1661,-3.1661,-3.1472,-3.0722,-3.0351,-2.9795,-2.8215,-2.7652,-2.7189,-2.6187,-2.6014,-2.6014,-2.6014,-2.582,-2.5742,-2.5742,-2.5742,-2.5742,-2.5742,-2.5742,-2.5742,-2.5742,-2.5742,-2.5742,-2.5742,-2.5742,-2.5742,-2.5742,-2.5742,-2.5742,-2.5742,-2.4913,-2.4393,-2.4393,-2.3393,-2.2391,-2.1591,-2.0285,-1.948,-1.9279,-1.9472,-1.948,-1.9279,-1.9279,-1.9279,0.0,0.0,0.0,-3.4102,0.0,0.0,0.0,-3.2373,0.0,0.0,0.0,0.0,0.0,0.0,0.0,0.0,0.0,0.0,0.0,0.0,0.0,0.0,0.0,0.0,0.0,0.0,-3.3308,-3.3308,-3.3046,-3.2896,-3.2736,-3.2264,-3.1989,-3.1989,-3.1901,-3.1524,-3.1057,-3.1448,-3.1371,-3.0711,-2.9928,-2.9437,-2.8998,-2.8231,-2.7906,-2.7995,-2.7487,-2.7487,-2.7846,-2.7336,-2.7162,-2.7244,-2.8179,-2.851,-2.851,-2.851,-2.851,-2.851,-2.851,-2.851,-2.8691,-2.9737,-3.0086,-3.029,-3.1336,-3.1661,-3.1661,-3.1661,-3.1383,-3.0824,-3.0351,-2.9429,-2.8495,-2.7463,-2.6829,-2.6274,-2.583,-2.5742,-2.5742,-2.5742,-2.5742,-2.5742,-2.5742,-2.5742,-2.5742,-2.5742,-2.5742,-2.5742,-2.5742,-2.5742,-2.5742,-2.5742,-2.5742,-2.5742,-2.5742,-2.5742,-2.543,-2.4913,-2.4402,-2.389,-2.3285,-2.2282,-2.1183,-2.0078,-1.9576,-1.9279,-1.9279,-1.9279,-1.9279,-1.9279,-1.9279,-1.9279,0.0,0.0,0.0,0.0,0.0,-3.1896,0.0,0.0,0.0,0.0,0.0,0.0,0.0,0.0,0.0,0.0,0.0,0.0,0.0,0.0,0.0,0.0,0.0,0.0,0.0,0.0,-3.2525,-3.2711,-3.2351,-3.2089,-3.2113,-3.1181,-3.0621,-3.0621,-3.0531,-3.0147,-2.9315,-3.0068,-2.9966,-2.8947,-2.8054,-2.7503,-2.7239,-2.6365,-2.6335,-2.6928,-2.6163,-2.6246,-2.6846,-2.608,-2.5819,-2.5986,-2.7418,-2.8007,-2.8007,-2.8179,-2.8179,-2.8007,-2.8179,-2.8158,-2.8314,-2.9248,-2.9685,-3.0005,-3.0844,-3.1104,-3.1104,-3.1104,-3.0543,-2.9886,-2.9704,-2.8402,-2.7189,-2.6914,-2.6284,-2.5742,-2.5742,-2.5742,-2.5742,-2.5742,-2.5742,-2.5742,-2.5742,-2.5742,-2.5742,-2.5742,-2.5742,-2.5742,-2.5742,-2.5664,-2.5605,-2.5605,-2.5605,-2.5605,-2.5605,-2.5479,-2.502,-2.4187,-2.3683,-2.3085,-2.219,-2.1183,-2.0181,-1.9272,-1.9279,-1.9279,-1.9279,-1.9279,-1.9279,-1.9279,-1.9279,-1.9279,0.0,0.0,0.0,0.0,-2.9902,0.0,0.0,0.0,0.0,0.0,0.0,0.0,0.0,0.0,0.0,0.0,0.0,0.0,0.0,0.0,0.0,0.0,0.0,0.0,0.0,0.0,0.0,-3.2624,-3.0878,-3.0147,-3.0991,-3.0147,-2.959,-2.959,-2.9326,-2.9143,-2.905,-2.8958,-2.8866,-2.8762,-2.8134,-2.7665,-2.725,-2.6715,-2.6234,-2.5986,-2.583,-2.5819,-2.5986,-2.5819,-2.5819,-2.583,-2.5997,-2.608,-2.6246,-2.701,-2.6835,-2.6246,-2.7092,-2.7047,-2.6819,-2.7435,-2.8187,-2.8907,-2.9017,-2.905,-2.905,-2.905,-2.8958,-2.868,-2.7746,-2.7379,-2.701,-2.61,-2.5732,-2.5742,-2.5742,-2.5742,-2.5742,-2.5742,-2.5742,-2.5742,-2.5742,-2.5742,-2.5742,-2.5742,-2.5742,-2.5742,-2.5742,-2.5391,-2.5146,-2.5146,-2.5146,-2.5146,-2.5146,-2.4588,-2.4196,-2.4088,-2.2291,-2.1183,-2.1089,-2.0078,-1.9376,-1.9279,-1.9279,-1.9279,-1.9279,-1.9279,-1.9279,-1.9279,-1.9279,-1.9279,0.0,0.0,0.0,0.0,0.0,0.0,-2.8724,0.0,-2.784,0.0,0.0,0.0,0.0,0.0,0.0,0.0,0.0,0.0,0.0,0.0,0.0,0.0,0.0,0.0,0.0,0.0,0.0,0.0,0.0,-2.9003,-2.959,-2.8669,-2.8111,-2.8111,-2.8017,-2.7662,-2.7115,-2.7568,-2.7568,-2.6924,-2.6464,-2.6013,-2.5562,-2.5112,-2.501,-2.4988,-2.4488,-2.4573,-2.4988,-2.4488,-2.4231,-2.4231,-2.4231,-2.4904,-2.583,-2.6246,-2.6163,-2.5863,-2.6579,-2.6642,-2.6584,-2.7424,-2.8123,-2.868,-2.868,-2.868,-2.868,-2.868,-2.8308,-2.7746,-2.7284,-2.6733,-2.6187,-2.583,-2.5742,-2.5742,-2.5742,-2.5742,-2.5742,-2.5742,-2.5742,-2.5742,-2.5742,-2.5742,-2.5742,-2.5742,-2.5742,-2.5742,-2.5742,-2.5576,-2.5459,-2.5459,-2.4841,-2.4532,-2.4532,-2.3691,-2.2894,-2.2291,-2.0783,-1.9983,-1.9983,-1.9583,-1.9279,-1.9279,-1.9279,-1.9279,-1.9279,-1.9279,-1.9279,-1.9279,-1.9279,-1.9279,-3.003,0.0,0.0,0.0,0.0,0.0,0.0,0.0,0.0,0.0,0.0,0.0,0.0,0.0,0.0,0.0,0.0,0.0,0.0,0.0,0.0,0.0,0.0,0.0,0.0,0.0,0.0,0.0,-2.801,0.0,-2.7899,-2.7004,-2.6451,-2.6451,-2.6574,-2.6275,-2.5557,-2.6406,-2.6466,-2.5732,-2.541,-2.4961,-2.4404,-2.4102,-2.4009,-2.4069,-2.3396,-2.3474,-2.4069,-2.3396,-2.3135,-2.3135,-2.3135,-2.3887,-2.5062,-2.5326,-2.5317,-2.5306,-2.5915,-2.6117,-2.6292,-2.6996,-2.7575,-2.7851,-2.7851,-2.7851,-2.7851,-2.7851,-2.7389,-2.6829,-2.6829,-2.6284,-2.5742,-2.5742,-2.5742,-2.5742,-2.5742,-2.5742,-2.5742,-2.5742,-2.5742,-2.5742,-2.5742,-2.5742,-2.5742,-2.5742,-2.5742,-2.5742,-2.5742,-2.5635,-2.5557,-2.5557,-2.4538,-2.3932,-2.3932,-2.2824,-2.1582,-2.0483,-1.9783,-1.9279,-1.9279,-1.9279,-1.9279,-1.9279,-1.9279,-1.9279,-1.9279,-1.9279,-1.9279,-1.9279,-1.9279,-1.9279,0.0,0.0,0.0,-2.6065,0.0,0.0,0.0,0.0,-2.5732,0.0,0.0,0.0,0.0,0.0,-2.5459,-2.46,-2.4795,0.0,0.0,0.0,0.0,0.0,0.0,0.0,0.0,0.0,0.0,-2.7787,-2.5764,-2.4975,-2.5965,-2.5077,-2.4453,-2.4453,-2.4957,-2.5183,-2.5088,-2.5518,-2.5732,-2.5742,-2.5723,-2.5264,-2.4414,-2.4404,-2.3935,-2.3135,-2.3135,-2.3135,-2.3135,-2.3135,-2.3135,-2.3135,-2.3135,-2.3144,-2.3309,-2.4241,-2.4267,-2.4029,-2.4819,-2.5118,-2.5192,-2.5653,-2.582,-2.583,-2.583,-2.583,-2.583,-2.583,-2.5732,-2.5732,-2.5732,-2.5732,-2.5742,-2.5742,-2.5742,-2.5742,-2.5742,-2.5742,-2.5742,-2.5742,-2.5742,-2.5742,-2.5742,-2.5742,-2.5742,-2.5742,-2.5742,-2.5742,-2.5742,-2.5361,-2.5088,-2.5088,-2.4202,-2.3519,-2.3519,-2.1987,-2.0483,-1.9376,-1.9272,-1.9279,-1.9279,-1.9279,-1.9279,-1.9279,-1.9279,-1.9279,-1.9279,-1.9279,-1.9279,-1.9279,-1.9279,-1.9279,0.0,0.0,-2.6465,-2.5879,0.0,0.0,0.0,0.0,0.0,0.0,0.0,0.0,0.0,0.0,-2.5195,-2.4893,-2.4492,-2.4121,0.0,0.0,0.0,0.0,0.0,0.0,0.0,0.0,0.0,-2.5985,-2.4775,-2.4303,0.0,-2.4598,-2.4414,-2.4414,-2.456,-2.4775,-2.5068,-2.5215,-2.5293,-2.5293,-2.5293,-2.4844,-2.4004,-2.4004,-2.3682,-2.3135,-2.3135,-2.3135,-2.3135,-2.3135,-2.3135,-2.3135,-2.3135,-2.332,-2.3564,-2.392,-2.392,-2.3957,-2.4792,-2.5293,-2.5537,-2.5684,-2.5742,-2.5742,-2.5742,-2.5742,-2.5742,-2.5742,-2.5742,-2.5742,-2.5742,-2.5742,-2.5742,-2.5742,-2.5742,-2.5742,-2.5742,-2.5742,-2.5742,-2.5742,-2.5742,-2.5742,-2.5742,-2.5742,-2.5742,-2.5742,-2.5742,-2.543,-2.4707,-2.4478,-2.4189,-2.3493,-2.2404,-2.1804,-2.1804,-2.0617,-1.968,-1.9272,-1.9279,-1.9279,-1.9279,-1.9279,-1.9279,-1.9279,-1.9279,-1.9279,-1.9279,-1.9279,-1.9279,-1.9279,-1.9279,-1.9279,-2.7139,-2.6709,0.0,-2.585,-2.5742,0.0,-2.5742,0.0,0.0,0.0,0.0,0.0,0.0,0.0,-2.5019,-2.4863,-2.4248,-2.374,0.0,-2.332,0.0,0.0,0.0,0.0,0.0,0.0,-2.4496,-2.4409,-2.39,-2.3682,0.0,0.0,-2.3965,-2.3965,-2.4111,-2.4326,-2.4609,-2.4766,-2.4834,-2.4834,-2.4834,-2.4463,-2.3789,-2.3789,-2.3555,-2.3135,-2.3135,-2.3135,-2.3135,-2.3135,-2.3135,-2.3154,-2.331,-2.3545,-2.3789,-2.3789,-2.3984,-2.4346,-2.5059,-2.5498,-2.5742,-2.5742,-2.5742,-2.5742,-2.5742,-2.5742,-2.5742,-2.5742,-2.5742,-2.5742,-2.5742,-2.5742,-2.5742,-2.5742,-2.5742,-2.5742,-2.5742,-2.5742,-2.5742,-2.5742,-2.5635,-2.5538,-2.5538,-2.5128,-2.4922,-2.5118,-2.502,-2.4609,-2.3692,-2.3384,-2.2976,-2.2383,-2.1387,-2.0688,-2.038,-1.968,-1.9279,-1.9175,-1.9175,-1.9071,-1.8959,-1.9063,-1.9071,-1.8959,-1.9168,-1.9279,-1.9175,-1.9279,-1.9279,-1.9279,-1.9175,-1.8959]},{"header":{"parameterUnit":"m.s-1","parameterCategory":1,"la1":30.6,"la2":29.2853,"lo1":-89.7004,"lo2":-87.6739,"dy":0.0162,"dx":0.0183,"nx":112,"ny":82,"refTime":"2023-06-25T12:00:00:Z","depth":0,"parameterNumber":3,"parameterNumberName":"V-component_of_WINDS"},"data":[0.0,0.0,0.0,0.0,0.0,0.0,0.0,0.0,0.0,0.0,0.0,0.0,0.0,0.0,0.0,0.0,0.0,0.0,0.0,0.0,0.0,0.0,0.0,0.0,0.0,0.0,0.0,0.0,0.0,0.0,0.0,0.0,0.0,0.0,0.0,0.0,0.0,0.0,0.0,0.0,0.0,0.0,0.0,0.0,0.0,0.0,0.0,0.0,0.0,0.0,0.0,0.0,0.0,0.0,0.0,0.0,0.0,0.0,0.0,0.0,0.0,0.0,0.0,0.0,0.0,0.0,0.0,0.0,0.0,0.0,0.0,0.0,0.0,0.0,0.0,0.0,0.0,0.0,0.0,0.0,0.0,0.0,0.0,0.0,0.0,0.0,0.0,0.0,0.0,0.0,0.0,-3.0986,-3.0986,-3.0986,-3.0986,-3.0986,-3.0986,-3.0986,0.0,0.0,0.0,0.0,0.0,0.0,0.0,0.0,0.0,0.0,0.0,0.0,0.0,0.0,0.0,0.0,0.0,0.0,0.0,0.0,0.0,0.0,0.0,0.0,0.0,0.0,0.0,0.0,0.0,0.0,0.0,0.0,0.0,0.0,0.0,0.0,0.0,0.0,0.0,0.0,0.0,0.0,0.0,0.0,0.0,0.0,0.0,0.0,0.0,0.0,0.0,0.0,0.0,0.0,0.0,0.0,0.0,0.0,0.0,0.0,0.0,0.0,0.0,0.0,0.0,0.0,0.0,0.0,0.0,0.0,0.0,0.0,0.0,0.0,0.0,0.0,0.0,0.0,0.0,0.0,0.0,0.0,0.0,0.0,0.0,0.0,0.0,0.0,0.0,0.0,0.0,0.0,0.0,0.0,0.0,0.0,0.0,0.0,0.0,0.0,0.0,0.0,0.0,0.0,-3.0986,-3.0986,-3.0986,-3.0986,-3.0986,-3.0986,-3.0986,-3.0986,0.0,0.0,0.0,0.0,0.0,0.0,0.0,0.0,0.0,0.0,0.0,0.0,0.0,0.0,0.0,0.0,0.0,0.0,0.0,0.0,0.0,0.0,0.0,0.0,0.0,0.0,0.0,0.0,0.0,0.0,0.0,0.0,0.0,0.0,0.0,0.0,0.0,0.0,0.0,0.0,0.0,0.0,0.0,0.0,0.0,0.0,0.0,0.0,0.0,0.0,0.0,0.0,0.0,0.0,0.0,0.0,0.0,0.0,0.0,0.0,0.0,0.0,0.0,0.0,0.0,0.0,0.0,0.0,0.0,0.0,0.0,0.0,0.0,0.0,0.0,0.0,0.0,0.0,0.0,0.0,0.0,0.0,0.0,0.0,0.0,0.0,0.0,0.0,0.0,0.0,0.0,0.0,0.0,0.0,0.0,0.0,0.0,0.0,0.0,0.0,0.0,0.0,0.0,-3.0986,-3.0986,-3.0986,-3.0986,-3.0986,-3.0986,-3.0986,-3.0986,-3.0986,-3.0986,0.0,0.0,0.0,0.0,0.0,0.0,0.0,0.0,0.0,0.0,0.0,0.0,0.0,0.0,0.0,0.0,0.0,0.0,0.0,0.0,0.0,0.0,0.0,0.0,0.0,0.0,0.0,0.0,0.0,0.0,0.0,0.0,0.0,0.0,0.0,0.0,0.0,0.0,0.0,0.0,0.0,0.0,0.0,0.0,0.0,0.0,0.0,0.0,0.0,0.0,0.0,0.0,0.0,0.0,0.0,0.0,0.0,0.0,0.0,0.0,0.0,0.0,0.0,0.0,0.0,0.0,0.0,0.0,0.0,0.0,0.0,0.0,0.0,0.0,0.0,0.0,0.0,0.0,0.0,0.0,0.0,0.0,0.0,0.0,0.0,0.0,0.0,0.0,0.0,0.0,0.0,0.0,0.0,0.0,0.0,0.0,0.0,0.0,0.0,0.0,0.0,0.0,-3.1123,-3.1185,-3.0986,-3.0986,-3.0986,-3.0986,-3.0986,-3.1048,-3.1259,-3.1136,0.0,0.0,0.0,0.0,0.0,0.0,0.0,0.0,0.0,0.0,0.0,0.0,0.0,0.0,0.0,0.0,0.0,0.0,0.0,0.0,0.0,0.0,0.0,0.0,0.0,0.0,0.0,0.0,0.0,0.0,0.0,0.0,0.0,0.0,0.0,0.0,0.0,0.0,0.0,0.0,0.0,0.0,0.0,0.0,0.0,0.0,0.0,0.0,0.0,0.0,0.0,0.0,0.0,0.0,0.0,0.0,0.0,0.0,0.0,0.0,0.0,0.0,0.0,0.0,0.0,0.0,0.0,0.0,0.0,0.0,0.0,0.0,0.0,0.0,0.0,0.0,0.0,0.0,0.0,0.0,0.0,0.0,0.0,0.0,0.0,0.0,0.0,0.0,0.0,0.0,0.0,0.0,0.0,0.0,0.0,0.0,0.0,0.0,0.0,0.0,0.0,0.0,-3.1603,-3.1736,-3.1048,-3.0986,-3.0986,-3.0986,-3.0986,-3.1259,-3.2015,-3.1408,0.0,0.0,0.0,0.0,0.0,0.0,0.0,0.0,0.0,0.0,0.0,0.0,0.0,0.0,0.0,0.0,0.0,0.0,0.0,0.0,0.0,0.0,0.0,0.0,0.0,0.0,0.0,0.0,0.0,0.0,0.0,0.0,0.0,0.0,0.0,0.0,0.0,0.0,0.0,0.0,0.0,0.0,0.0,0.0,0.0,0.0,0.0,0.0,0.0,0.0,0.0,0.0,0.0,0.0,0.0,0.0,0.0,0.0,0.0,0.0,0.0,0.0,0.0,0.0,0.0,0.0,0.0,0.0,0.0,0.0,0.0,0.0,0.0,0.0,0.0,0.0,0.0,0.0,0.0,0.0,0.0,0.0,0.0,0.0,0.0,0.0,0.0,0.0,0.0,0.0,0.0,0.0,0.0,0.0,0.0,0.0,0.0,0.0,0.0,0.0,0.0,0.0,-3.2577,-3.2648,0.0,-3.239,-3.239,-3.239,-3.239,-3.2519,-3.2791,0.0,0.0,0.0,0.0,0.0,0.0,0.0,0.0,0.0,0.0,0.0,0.0,0.0,0.0,0.0,0.0,0.0,0.0,0.0,0.0,0.0,0.0,0.0,0.0,0.0,0.0,0.0,0.0,0.0,0.0,0.0,0.0,0.0,0.0,0.0,0.0,0.0,0.0,0.0,0.0,0.0,0.0,0.0,0.0,0.0,0.0,0.0,0.0,0.0,0.0,0.0,0.0,0.0,0.0,0.0,0.0,0.0,0.0,0.0,0.0,0.0,0.0,0.0,0.0,0.0,0.0,0.0,0.0,0.0,0.0,0.0,0.0,0.0,0.0,0.0,0.0,0.0,0.0,0.0,0.0,0.0,0.0,0.0,0.0,0.0,0.0,0.0,0.0,0.0,0.0,0.0,0.0,0.0,0.0,0.0,0.0,0.0,0.0,0.0,0.0,0.0,0.0,-3.3213,-3.3422,-3.3492,0.0,-3.3213,-3.3213,-3.3213,-3.3213,-3.3283,-3.3561,0.0,0.0,0.0,0.0,0.0,0.0,0.0,0.0,0.0,0.0,0.0,0.0,0.0,0.0,0.0,0.0,0.0,0.0,0.0,0.0,0.0,0.0,0.0,0.0,0.0,0.0,0.0,0.0,0.0,0.0,0.0,0.0,0.0,0.0,0.0,0.0,0.0,0.0,0.0,0.0,0.0,0.0,0.0,0.0,0.0,0.0,0.0,0.0,0.0,0.0,0.0,0.0,0.0,0.0,0.0,0.0,0.0,0.0,0.0,0.0,0.0,0.0,0.0,0.0,0.0,0.0,0.0,0.0,0.0,0.0,0.0,0.0,0.0,0.0,0.0,0.0,0.0,0.0,0.0,0.0,0.0,0.0,0.0,0.0,0.0,0.0,0.0,0.0,0.0,0.0,0.0,0.0,0.0,0.0,0.0,0.0,0.0,0.0,0.0,0.0,0.0,0.0,-3.3283,-3.3837,-3.4027,-3.3283,-3.3213,-3.3213,-3.3213,-3.3213,-3.3561,0.0,0.0,0.0,0.0,0.0,0.0,0.0,0.0,0.0,0.0,0.0,0.0,0.0,0.0,0.0,0.0,0.0,0.0,0.0,0.0,0.0,0.0,0.0,0.0,0.0,0.0,0.0,0.0,0.0,0.0,0.0,0.0,0.0,0.0,0.0,0.0,0.0,0.0,0.0,0.0,0.0,0.0,0.0,0.0,0.0,0.0,0.0,0.0,0.0,0.0,0.0,0.0,0.0,0.0,0.0,0.0,0.0,0.0,0.0,0.0,0.0,0.0,0.0,0.0,0.0,0.0,0.0,0.0,0.0,0.0,0.0,0.0,0.0,0.0,0.0,0.0,0.0,0.0,0.0,0.0,0.0,0.0,0.0,0.0,0.0,0.0,0.0,0.0,0.0,0.0,0.0,0.0,0.0,0.0,0.0,0.0,0.0,0.0,0.0,0.0,0.0,0.0,0.0,-3.4854,-3.5001,-3.5067,-3.4854,-3.4787,-3.4787,-3.4787,-3.4787,-3.492,-3.5133,0.0,0.0,0.0,0.0,0.0,0.0,0.0,0.0,0.0,0.0,0.0,0.0,0.0,0.0,0.0,0.0,0.0,0.0,0.0,0.0,0.0,0.0,0.0,0.0,0.0,0.0,0.0,0.0,0.0,0.0,0.0,0.0,0.0,0.0,0.0,0.0,0.0,0.0,0.0,0.0,0.0,0.0,0.0,0.0,0.0,0.0,0.0,0.0,0.0,0.0,0.0,0.0,0.0,0.0,0.0,0.0,0.0,0.0,0.0,0.0,0.0,0.0,0.0,0.0,0.0,0.0,0.0,0.0,0.0,0.0,0.0,0.0,0.0,0.0,0.0,0.0,0.0,0.0,0.0,0.0,0.0,0.0,0.0,0.0,0.0,0.0,0.0,0.0,0.0,0.0,0.0,0.0,0.0,0.0,0.0,0.0,0.0,0.0,0.0,0.0,0.0,0.0,-3.5504,-3.5504,-3.5504,-3.5504,-3.5504,-3.5504,-3.5504,-3.5504,-3.5504,-3.5504,0.0,0.0,0.0,0.0,0.0,0.0,0.0,0.0,0.0,0.0,0.0,0.0,0.0,0.0,0.0,0.0,0.0,0.0,0.0,0.0,0.0,0.0,0.0,0.0,0.0,0.0,0.0,0.0,0.0,0.0,0.0,0.0,0.0,0.0,0.0,0.0,0.0,0.0,0.0,0.0,0.0,0.0,0.0,0.0,0.0,0.0,0.0,0.0,0.0,0.0,0.0,0.0,0.0,0.0,0.0,0.0,0.0,0.0,0.0,0.0,0.0,0.0,0.0,0.0,0.0,0.0,0.0,0.0,0.0,0.0,0.0,0.0,0.0,0.0,0.0,0.0,0.0,0.0,0.0,0.0,0.0,0.0,0.0,0.0,0.0,0.0,0.0,0.0,0.0,0.0,0.0,0.0,0.0,0.0,0.0,0.0,0.0,0.0,0.0,0.0,0.0,0.0,-3.5504,-3.5504,-3.5504,-3.5504,-3.5504,-3.5504,-3.5504,-3.5504,-3.5504,-3.5504,0.0,0.0,0.0,0.0,0.0,0.0,0.0,0.0,0.0,0.0,0.0,0.0,0.0,0.0,0.0,0.0,0.0,0.0,0.0,0.0,0.0,0.0,0.0,0.0,0.0,0.0,0.0,0.0,0.0,0.0,0.0,0.0,0.0,0.0,0.0,0.0,0.0,0.0,0.0,0.0,0.0,0.0,0.0,0.0,0.0,0.0,0.0,0.0,0.0,0.0,0.0,0.0,0.0,0.0,0.0,0.0,0.0,0.0,0.0,0.0,-2.485,0.0,0.0,0.0,0.0,0.0,0.0,0.0,0.0,0.0,0.0,0.0,0.0,0.0,0.0,0.0,0.0,0.0,0.0,0.0,0.0,0.0,0.0,0.0,0.0,0.0,0.0,0.0,0.0,0.0,0.0,0.0,0.0,0.0,0.0,0.0,0.0,0.0,0.0,0.0,0.0,0.0,-3.5504,-3.5504,-3.5504,-3.5504,-3.5504,-3.5504,-3.5504,-3.5504,-3.5504,-3.5504,0.0,0.0,0.0,0.0,0.0,0.0,0.0,0.0,0.0,0.0,0.0,0.0,0.0,0.0,0.0,0.0,0.0,0.0,0.0,0.0,0.0,0.0,0.0,0.0,0.0,0.0,0.0,0.0,0.0,0.0,0.0,0.0,0.0,0.0,0.0,0.0,0.0,0.0,0.0,0.0,0.0,0.0,0.0,0.0,0.0,0.0,0.0,0.0,0.0,0.0,0.0,0.0,0.0,0.0,0.0,0.0,0.0,0.0,0.0,0.0,0.0,-2.5326,0.0,0.0,0.0,0.0,0.0,0.0,0.0,0.0,0.0,0.0,0.0,0.0,0.0,0.0,0.0,0.0,0.0,0.0,0.0,0.0,0.0,0.0,0.0,0.0,0.0,0.0,0.0,0.0,0.0,0.0,0.0,0.0,0.0,0.0,0.0,0.0,0.0,0.0,0.0,0.0,-3.5504,-3.5504,-3.5504,-3.5504,-3.5504,-3.5504,-3.5504,-3.5504,-3.5504,-3.5504,-3.5504,0.0,0.0,0.0,0.0,0.0,0.0,0.0,0.0,0.0,0.0,0.0,0.0,0.0,0.0,0.0,0.0,0.0,0.0,0.0,0.0,0.0,0.0,0.0,0.0,0.0,0.0,0.0,0.0,0.0,0.0,0.0,0.0,0.0,0.0,0.0,0.0,0.0,0.0,0.0,0.0,0.0,0.0,0.0,0.0,0.0,0.0,0.0,0.0,0.0,0.0,0.0,0.0,0.0,-2.5179,-2.5513,-2.6237,-2.6237,-2.6279,-2.6351,-2.6351,-2.6308,-2.626,0.0,0.0,0.0,0.0,0.0,0.0,0.0,0.0,0.0,0.0,0.0,0.0,0.0,0.0,0.0,0.0,0.0,0.0,0.0,0.0,0.0,0.0,0.0,0.0,0.0,-3.5126,-3.5504,0.0,0.0,0.0,0.0,0.0,0.0,0.0,0.0,0.0,0.0,0.0,0.0,-3.5504,-3.5609,-3.5669,-3.5669,-3.5774,-3.5833,-3.5833,-3.5729,-3.5669,-3.5669,-3.5564,-3.5504,0.0,0.0,0.0,0.0,0.0,0.0,0.0,0.0,0.0,0.0,0.0,0.0,0.0,0.0,0.0,0.0,0.0,0.0,0.0,0.0,0.0,0.0,0.0,0.0,0.0,0.0,0.0,0.0,0.0,0.0,0.0,0.0,-2.0292,-2.0292,0.0,0.0,0.0,0.0,0.0,0.0,0.0,0.0,0.0,0.0,0.0,0.0,0.0,0.0,-2.3769,-2.4277,-2.4861,-2.5435,-2.6064,-2.6795,-2.7655,-2.7655,-2.7872,-2.8255,-2.8255,0.0,-2.7724,-2.7724,0.0,0.0,0.0,0.0,0.0,0.0,0.0,0.0,0.0,0.0,0.0,0.0,0.0,0.0,0.0,0.0,0.0,0.0,0.0,0.0,0.0,0.0,-3.6357,-3.6209,-3.5842,-3.5504,0.0,-3.5504,-3.5504,-3.5504,0.0,0.0,0.0,0.0,0.0,0.0,0.0,0.0,-3.5504,-3.6013,-3.6357,-3.6357,-3.6836,-3.7165,-3.7165,-3.6671,-3.6357,-3.6357,-3.5818,-3.5554,-3.5703,-3.5831,0.0,0.0,0.0,0.0,0.0,0.0,0.0,0.0,0.0,0.0,0.0,0.0,0.0,0.0,0.0,0.0,0.0,0.0,0.0,0.0,0.0,0.0,0.0,0.0,0.0,0.0,0.0,0.0,0.0,-2.0292,-2.0292,-2.0292,-2.0292,-2.0292,0.0,0.0,0.0,0.0,0.0,0.0,0.0,0.0,0.0,-2.4361,-2.4102,-2.4584,-2.5789,-2.6324,-2.6642,-2.6835,-2.739,-2.7924,-2.8307,-2.8307,-2.8421,-2.8618,-2.8618,-2.9127,-2.9922,-2.8545,-2.9128,-3.08,0.0,0.0,0.0,0.0,-3.3471,-3.3602,-3.3527,-3.3604,0.0,0.0,0.0,0.0,0.0,0.0,0.0,0.0,0.0,0.0,0.0,0.0,0.0,-3.7,-3.6791,-3.6582,-3.6582,-3.6582,-3.6372,0.0,-3.5504,-3.5504,-3.5504,0.0,0.0,0.0,0.0,0.0,-3.6058,-3.6611,-3.7,-3.7,-3.724,-3.7404,-3.7404,-3.7165,-3.7,-3.7,-3.6469,-3.6225,-3.6275,-3.6171,-3.6628,0.0,0.0,0.0,0.0,0.0,0.0,0.0,0.0,0.0,0.0,0.0,0.0,0.0,0.0,0.0,0.0,0.0,0.0,0.0,0.0,0.0,0.0,0.0,0.0,0.0,0.0,0.0,0.0,-2.0292,-2.0292,-2.0292,-2.0377,-2.0446,0.0,0.0,0.0,0.0,0.0,0.0,-2.2612,-2.3561,-2.4733,-2.6029,-2.5944,-2.6451,-2.7603,-2.7935,-2.8162,-2.8276,-2.8628,-2.8856,-2.897,-2.897,-2.897,-2.897,-2.897,-2.9778,-3.0968,-2.9526,-2.9864,-3.1368,-3.1239,-3.2171,-3.3589,-3.3534,-3.3641,-3.381,-3.4076,-3.416,-3.4243,-3.4314,0.0,-3.5749,-3.5976,0.0,0.0,0.0,0.0,-3.7913,-3.7913,-3.7793,-3.7659,-3.7659,-3.7524,-3.7404,-3.7404,-3.7404,-3.712,0.0,-3.5998,-3.5998,-3.5998,0.0,0.0,0.0,0.0,-3.6716,-3.6716,-3.727,-3.7659,-3.7659,-3.7823,-3.7913,-3.7913,-3.7764,-3.7659,-3.7659,-3.7196,-3.6827,-3.6808,-3.6667,-3.7157,-3.8259,0.0,0.0,0.0,0.0,0.0,0.0,0.0,0.0,0.0,0.0,0.0,0.0,0.0,0.0,0.0,0.0,0.0,0.0,0.0,0.0,0.0,0.0,0.0,0.0,0.0,0.0,0.0,0.0,0.0,-2.0292,-2.0617,0.0,0.0,0.0,0.0,-2.1353,-2.3226,-2.4317,-2.4221,-2.4707,-2.5908,-2.7744,-2.7168,-2.738,-2.8545,-2.8566,-2.8804,-2.9239,-2.9259,-2.9497,-2.9922,-2.9922,-2.9922,-2.9922,-2.9922,-2.9777,-2.9523,-3.0893,-3.2675,-3.4395,-3.387,-3.3935,-3.4121,-3.3832,-3.381,-3.4076,-3.4314,-3.4397,-3.4397,-3.4397,-3.495,-3.5816,-3.6582,-3.7434,0.0,0.0,-3.8738,-3.932,-3.932,-3.8841,-3.8347,-3.8347,-3.7853,-3.7404,-3.7404,-3.7404,-3.7389,0.0,-3.7315,-3.7315,-3.7315,0.0,-3.7315,-3.7315,-3.7345,-3.736,-3.736,-3.7943,-3.8347,-3.8347,-3.8931,-3.932,-3.932,-3.8721,-3.8347,-3.8347,-3.7719,-3.7226,-3.697,-3.7542,-3.8028,-3.8383,-3.9544,0.0,0.0,0.0,0.0,0.0,0.0,0.0,0.0,0.0,0.0,0.0,0.0,0.0,0.0,0.0,0.0,0.0,0.0,0.0,0.0,0.0,0.0,0.0,0.0,0.0,0.0,0.0,0.0,-2.0668,-2.0994,0.0,0.0,-2.1848,-2.2082,-2.179,-2.3923,-2.5182,-2.5182,-2.6577,-2.7832,-2.8794,-2.8603,-2.8829,-2.9497,-2.9508,-2.9591,-2.9746,-2.9746,-2.9839,-2.9994,-2.9994,-2.9994,-2.9994,-2.9994,-3.0296,-3.0917,-3.2137,-3.2669,-3.2804,-3.3363,-3.4118,-3.4933,-3.4817,-3.5076,-3.5409,-3.5495,-3.5495,-3.5654,-3.6878,-3.7111,-3.7274,-3.8692,-3.9047,-3.8958,-3.8958,-3.9192,-3.9424,-3.9424,-3.923,-3.905,-3.905,-3.8871,-3.8706,-3.8706,-3.8706,-3.8706,-3.8706,-3.8003,-3.7404,-3.7404,-3.7404,-3.7404,-3.7404,-3.7764,-3.8033,-3.8033,-3.8631,-3.905,-3.905,-3.9275,-3.9424,-3.9424,-3.9185,-3.9122,-3.9249,-3.8717,-3.8629,-3.9051,-3.8999,-3.9367,-4.0335,-4.0331,-4.1083,0.0,0.0,0.0,0.0,0.0,0.0,0.0,0.0,0.0,0.0,0.0,0.0,0.0,0.0,0.0,0.0,0.0,0.0,0.0,0.0,0.0,0.0,0.0,0.0,0.0,0.0,-2.1062,-2.1062,-2.149,-2.179,-2.179,-2.2559,-2.2963,-2.3055,-2.5153,-2.6454,-2.6464,-2.8107,-2.9218,-2.9528,-2.9539,-2.9684,-2.9994,-2.9994,-2.9994,-2.9994,-2.9994,-2.9994,-2.9994,-2.9994,-2.9994,-2.9994,-2.9994,-3.0391,-3.1187,-3.26,-3.281,-3.2372,-3.3537,-3.4691,-3.5699,-3.5507,-3.5683,-3.6109,-3.6109,-3.6109,-3.6358,-3.7867,-3.8252,-3.8399,-3.9836,-4.0189,-4.0083,-4.0083,-4.0083,-4.0083,-4.0083,-4.0083,-4.0083,-4.0083,-3.9903,-3.9753,-3.9753,-3.9574,-3.9424,-3.9424,-3.8691,-3.8078,-3.8078,-3.8078,-3.8078,-3.8078,-3.8452,-3.8736,-3.8736,-3.914,-3.9424,-3.9424,-3.9424,-3.9424,-3.9424,-3.9424,-3.9481,-3.9625,-3.961,-3.9656,-3.978,-3.9961,-4.0341,-4.1074,-4.1239,-4.2143,-4.3809,0.0,0.0,0.0,0.0,0.0,0.0,0.0,0.0,0.0,0.0,0.0,0.0,0.0,0.0,0.0,0.0,0.0,0.0,0.0,0.0,0.0,0.0,0.0,-2.09,-2.1199,-2.143,-2.1448,-2.2107,-2.2569,-2.2679,-2.3971,-2.4945,-2.4927,-2.6864,-2.7949,-2.8073,-2.9225,-2.9994,-2.9994,-3.0005,-3.0015,-3.0015,-3.0036,-3.0036,-3.0036,-3.0036,-3.0036,-3.0015,-3.0015,-3.0005,-2.9994,-2.9994,-2.9994,-3.0203,-3.2308,-3.3201,-3.3353,-3.4911,-3.5843,-3.6237,-3.5686,-3.5747,-3.6162,-3.6162,-3.6162,-3.6337,-3.7201,-3.8089,-3.8954,-3.9758,-4.065,-4.1384,-4.1384,-4.1384,-4.1384,-4.1384,-4.1384,-4.1384,-4.1384,-4.0891,-4.0427,-4.0427,-3.9933,-3.9484,-3.9484,-3.9484,-3.9469,-3.9454,-3.9469,-3.9484,-3.9484,-3.9484,0.0,-3.9484,-3.9484,-3.9469,-3.9454,-3.9454,-3.9439,-3.9424,-3.9424,-3.9424,-3.9424,-4.0239,-4.0223,-3.9123,-4.0418,-4.0962,-4.0524,-4.2389,-4.3792,-4.4536,0.0,0.0,0.0,0.0,0.0,0.0,0.0,0.0,0.0,0.0,0.0,0.0,0.0,0.0,0.0,0.0,0.0,0.0,0.0,0.0,0.0,0.0,-2.1593,-2.1302,-2.1593,-2.1936,-2.2201,-2.2663,-2.3074,-2.3357,-2.4015,-2.4399,-2.439,-2.581,-2.6892,-2.7544,-2.8512,-2.9343,-2.9994,-3.0325,-3.0501,-3.0501,-3.0833,-3.0998,-3.0998,-3.0998,-3.0822,-3.0501,-3.0501,-3.0315,-2.9994,-2.9994,-2.9994,-3.0203,-3.2308,-3.3201,-3.3388,-3.559,-3.6599,-3.6865,-3.6908,-3.7131,-3.7416,-3.7416,-3.7416,-3.7571,-3.8397,-3.8624,-3.8696,-4.0273,-4.0596,-4.0543,-4.1217,-4.1384,-4.1384,-4.1384,-4.1384,-4.1384,-4.1384,-4.125,-4.1115,-4.1115,-4.0965,-4.0846,-4.0846,-4.0846,-4.0696,-4.0217,-4.0531,-4.0846,-4.0846,-4.0846,0.0,-4.0846,-4.0846,-4.0651,-4.0187,-4.0127,-3.9933,-3.9454,-3.9424,-3.9481,-3.9783,-4.0547,-4.11,-4.1549,-4.2398,-4.2749,-4.2585,-4.3137,-4.3521,0.0,0.0,0.0,0.0,0.0,0.0,0.0,0.0,0.0,0.0,0.0,0.0,0.0,0.0,0.0,0.0,0.0,0.0,0.0,0.0,0.0,0.0,-2.181,-2.203,-2.2107,-2.2321,-2.2544,-2.2758,-2.3254,-2.3674,-2.3905,-2.4256,-2.4579,-2.4998,-2.6064,-2.706,-2.7931,-2.8973,-2.9733,-3.0284,-3.0739,-3.0977,-3.0977,-3.1247,-3.1381,-3.1381,-3.1381,-3.1236,-3.0977,-3.0977,-3.0833,0.0,-3.0367,-3.0284,-3.0474,-3.2386,-3.3289,0.0,0.0,0.0,0.0,0.0,-3.7808,-3.79,-3.79,-3.79,-3.7979,-3.8472,-3.8666,-3.897,-4.0406,-4.0824,-4.1033,-4.1945,-4.2207,-4.2207,-4.2207,-4.2207,-4.2207,-4.2207,-4.1983,-4.1788,-4.1788,-4.1579,-4.1384,-4.1384,-4.1609,0.0,-4.128,-4.1309,-4.1384,-4.1384,-4.1384,-4.1384,-4.1384,-4.1384,-4.1235,-4.0846,-4.0816,-4.0651,-4.0277,-3.9993,0.0,0.0,0.0,-4.1885,-4.2892,-4.3317,0.0,0.0,0.0,-4.391,-4.391,0.0,0.0,0.0,-4.3115,-4.276,0.0,0.0,0.0,0.0,0.0,0.0,0.0,0.0,0.0,0.0,0.0,0.0,0.0,0.0,0.0,0.0,-2.2261,-2.2355,-2.3023,-2.3186,-2.3237,-2.3237,-2.3828,-2.4256,-2.4299,-2.4616,-2.5136,-2.5972,-2.6844,-2.7736,-2.8757,0.0,0.0,0.0,0.0,-3.1454,-3.1454,-3.1505,-3.1536,-3.1536,-3.1536,-3.1505,-3.1454,-3.1454,-3.1422,-3.135,-3.0946,-3.0729,-3.0956,-3.2667,-3.3621,-3.424,-3.6023,-3.6909,-3.7214,-3.7703,-3.79,-3.79,-3.79,0.0,0.0,-3.79,-3.8395,-3.921,-4.0159,-4.1113,-4.2073,-4.2915,-4.325,-4.3329,-4.3329,-4.3329,-4.3329,-4.3329,-4.2895,-4.2476,-4.2476,-4.2013,-4.1594,-4.1594,-4.2073,-4.2476,-4.2476,-4.1983,-4.1594,-4.1594,-4.1594,-4.1594,-4.1594,-4.1594,-4.1579,-4.1504,0.0,0.0,-4.1384,-4.0846,-4.084,-4.1555,-4.2113,-4.2873,-4.382,-4.3796,-4.3763,-4.3763,-4.437,-4.4705,-4.4705,-4.479,-4.4823,-4.4807,-4.3944,-4.3555,0.0,0.0,0.0,0.0,0.0,0.0,0.0,0.0,0.0,0.0,0.0,0.0,0.0,0.0,0.0,-2.2673,-2.2811,-2.3049,-2.3401,-2.3737,-2.4016,-2.4016,-2.4145,-2.4359,-2.4675,-2.4778,-2.5136,-2.5972,-2.6309,-2.721,-2.9203,-2.9529,0.0,-3.1226,-3.1681,-3.1909,-3.1909,-3.2282,-3.2468,-3.2468,0.0,0.0,-3.1909,-3.1909,-3.1712,-3.1371,-3.1278,-3.1343,-3.1487,-3.3299,-3.5112,-3.6815,-3.7201,-3.7505,-3.7808,-3.79,-3.79,-3.79,-3.79,-3.79,-3.79,-3.79,-3.7979,-3.8317,-3.9224,-4.0159,0.0,-4.1976,-4.2739,-4.3329,-4.3329,-4.3329,-4.3329,-4.3329,-4.324,-4.315,-4.315,-4.3045,-4.2955,-4.2955,-4.306,-4.315,-4.315,-4.3045,-4.2955,-4.2955,-4.2955,-4.2955,-4.2955,-4.2955,-4.2761,-4.2237,-4.2177,-4.1953,-4.1429,-4.1265,-4.1682,-4.2707,-4.4187,-4.5363,-4.6153,-4.5597,-4.5277,-4.5277,-4.5409,-4.5483,-4.55,-4.6075,-4.6363,-4.6329,-4.4976,-4.435,0.0,0.0,0.0,0.0,0.0,0.0,0.0,0.0,0.0,0.0,0.0,-2.3414,0.0,0.0,-2.3984,-2.3628,-2.3675,-2.3747,-2.4053,-2.4106,-2.423,-2.423,-2.441,-2.4607,-2.4804,-2.4821,-2.5136,-2.5972,-2.671,-2.7791,-2.9342,-3.0218,-3.1013,-3.1702,-3.2147,-3.2385,-3.2385,-3.2613,-3.2727,-3.2727,-3.2727,-3.2613,-3.2385,-3.2385,-3.2261,-3.2043,-3.1805,-3.1678,-3.1843,-3.3697,-3.56,-3.7505,-3.7611,-3.7808,-3.79,-3.79,-3.79,-3.79,-3.79,-3.79,-3.79,-3.79,-3.79,-3.8148,-3.9489,-4.0246,-4.0859,-4.2237,-4.2996,-4.3329,-4.3329,-4.3329,-4.3329,-4.3329,-4.3329,-4.3329,-4.3329,-4.3329,-4.3329,-4.3329,-4.3329,-4.3329,-4.3329,-4.3329,-4.3329,-4.3329,-4.3329,-4.3329,-4.3329,-4.3329,-4.321,-4.288,-4.2851,-4.2716,-4.2387,-4.2486,-4.2848,-4.3542,-4.4854,-4.5979,-4.6786,-4.6447,-4.6244,-4.6244,-4.6244,-4.6244,-4.6244,-4.6616,-4.6786,-4.6769,-4.6024,-4.5686,0.0,0.0,0.0,0.0,0.0,0.0,0.0,0.0,-2.329,-2.2054,-2.3809,-2.5199,-2.3561,-2.4352,-2.5121,-2.4804,-2.4458,-2.4358,-2.4701,-2.4525,-2.435,-2.435,-2.4633,-2.4821,-2.4821,-2.4821,-2.5136,-2.5972,-2.7334,-2.8497,-2.9471,-3.1136,-3.2085,-3.2168,-3.254,-3.2727,-3.2727,-3.2727,-3.2727,-3.2727,-3.2727,-3.2727,-3.2727,-3.2727,-3.2727,-3.2706,-3.2668,-3.268,-3.2916,-3.4508,-3.616,-3.7753,-3.7847,-3.79,-3.79,-3.79,-3.79,-3.79,-3.79,-3.79,-3.79,-3.79,-3.79,-3.8161,-3.959,-4.0173,-4.0675,-4.2304,-4.2915,-4.309,-4.325,-4.3329,-4.3329,-4.3329,-4.3329,-4.3329,-4.3329,-4.3329,-4.3329,-4.3329,-4.3329,-4.3329,-4.3329,-4.3329,-4.3329,-4.3329,-4.3329,-4.3329,-4.3329,-4.3329,-4.3329,-4.3329,-4.3329,-4.3329,-4.3329,-4.3716,-4.4163,-4.4489,-4.5391,-4.6271,-4.7225,-4.709,-4.7005,-4.7005,-4.7005,-4.7005,-4.7005,-4.7158,-4.7225,-4.7225,-4.7225,-4.7056,-1.976,-2.0411,-2.1253,-2.2563,-2.2296,-2.2167,0.0,0.0,-2.3378,-2.4283,-2.4305,-2.4482,-2.5611,-2.4679,-2.4269,-2.5819,-2.5013,-2.4459,-2.4995,-2.4876,-2.4753,-2.4753,-2.4795,-2.4821,-2.4821,-2.4821,-2.5136,-2.5972,-2.7334,-2.8632,-2.9917,-3.1309,-3.223,-3.2644,-3.2706,-3.2727,-3.2727,-3.2727,-3.2727,-3.2727,-3.2727,-3.2727,-3.2727,-3.2727,-3.2727,-3.282,-3.4065,-3.5001,-3.5747,-3.6862,-3.7795,-3.8473,-3.8083,-3.79,-3.79,-3.79,-3.79,-3.79,-3.79,-3.79,-3.79,-3.79,-3.79,-3.79,-3.8161,-3.8729,-3.9549,-4.0589,-4.1463,-4.2319,-4.309,-4.3329,-4.3329,-4.3329,-4.3329,-4.3329,-4.3329,-4.3329,-4.3329,-4.3329,-4.3329,-4.3329,-4.3329,-4.3329,-4.3329,-4.3329,-4.3329,-4.3329,-4.3329,-4.3329,-4.3329,-4.3329,-4.3329,-4.3329,-4.3329,-4.4297,-4.5217,-4.5949,-4.701,-4.7992,-4.8686,-4.8139,-4.78,-4.78,-4.78,-4.78,-4.78,-4.8443,-4.8748,-4.8748,-4.8748,-4.8054,-2.0099,-2.0677,0.0,0.0,-2.2413,-2.2823,-2.3879,-2.463,-2.5093,-2.5115,-2.5916,-2.6472,-2.5658,-2.6314,-2.6794,0.0,-2.6068,-2.5888,-2.5286,-2.4931,-2.4821,-2.4821,-2.4821,-2.4821,-2.4821,-2.4821,-2.5232,-2.6322,-2.7707,-2.9016,-3.0343,-3.1717,-3.253,-3.2727,-3.2727,-3.2727,-3.2727,-3.2727,-3.2727,-3.2727,-3.2727,-3.2727,-3.2727,-3.2727,-3.2841,-3.3275,-3.4461,-3.5585,-3.6633,-3.7208,-3.8005,-3.8658,-3.8122,-3.79,-3.79,-3.79,-3.79,-3.79,-3.79,-3.79,-3.79,-3.79,-3.79,-3.7979,-3.8472,-3.9312,-4.0246,-4.1113,-4.2058,-4.2835,-4.317,-4.3329,-4.3329,-4.3329,-4.3329,-4.3329,-4.3329,-4.3329,-4.3329,-4.3329,-4.3329,-4.3329,-4.3329,-4.3329,-4.3329,-4.3329,-4.3329,-4.3329,-4.3329,-4.3329,-4.3329,-4.3329,-4.3329,-4.3329,-4.3329,-4.3879,-4.4796,-4.6103,-4.6763,-4.7688,-4.894,-4.8714,-4.8545,-4.8545,-4.8545,-4.8545,-4.8545,-4.8849,-4.9001,-4.9001,-4.9001,-4.8663,-2.0356,0.0,0.0,-2.2143,-2.2859,-2.3575,-2.4644,-2.5809,-2.6562,-2.6409,-2.7222,-2.7683,-2.6703,-2.7671,-2.8204,-2.6924,-2.7101,-2.7024,-2.5717,-2.534,-2.5136,-2.5136,-2.4923,-2.4923,-2.5136,-2.5136,-2.5515,-2.6229,-2.808,-2.9511,-3.0146,-3.1765,-3.2727,-3.2727,-3.2727,-3.2727,-3.2727,-3.2727,-3.2727,-3.2727,-3.2727,-3.2727,-3.2737,-3.2841,-3.3285,-3.3942,-3.5201,-3.6279,-3.7288,-3.7978,-3.8536,-3.8893,-3.8344,-3.8031,-3.79,-3.79,-3.79,-3.79,-3.79,-3.79,-3.79,-3.79,-3.79,-3.7979,-3.8626,-3.9475,-4.0418,-4.138,-4.2237,-4.2996,-4.325,-4.3329,-4.3329,-4.3329,-4.3329,-4.3329,-4.3329,-4.3329,-4.3329,-4.3329,-4.3329,-4.3329,-4.3329,-4.3329,-4.3329,-4.3329,-4.3329,-4.3329,-4.3329,-4.3329,-4.3329,-4.3329,-4.3329,-4.3329,-4.3329,-4.3518,-4.4389,-4.6103,-4.6362,-4.7272,-4.894,-4.9001,-4.9001,-4.9001,-4.9001,-4.9001,-4.9001,-4.9001,-4.9001,-4.9001,-4.9001,-4.9001,0.0,0.0,-2.1993,-2.3464,-2.384,-2.4486,-2.6799,-2.6918,-2.7136,-2.9001,-2.7629,-2.693,-2.9545,-2.8011,-2.6963,-2.8875,-2.8187,-2.7149,-2.6527,-2.62,-2.6082,-2.6082,-2.5348,-2.5136,0.0,-2.6082,-2.5931,-2.5457,-2.8304,-2.9858,-2.9365,-3.1431,-3.2727,-3.2727,-3.2727,-3.2727,-3.2727,-3.2727,-3.2727,-3.2727,-3.2727,-3.2727,-3.2737,-3.3296,-3.3942,-3.4591,-3.6823,-3.7772,-3.804,-3.9686,-3.9972,-3.952,-3.8919,-3.837,-3.79,-3.79,-3.79,-3.79,-3.79,-3.79,-3.79,-3.79,-3.79,-3.79,-3.79,-3.8549,-3.9461,-4.0418,-4.1296,-4.2237,-4.309,-4.3329,-4.3329,-4.3329,-4.3329,-4.3329,-4.3329,-4.3329,-4.3329,-4.3329,-4.3329,-4.3329,-4.3329,-4.3329,-4.3329,-4.3329,-4.3329,-4.3329,-4.3329,-4.3329,-4.3329,-4.3329,-4.3329,-4.3329,-4.3329,-4.3518,-4.4389,-4.6103,-4.6362,-4.7272,-4.894,-4.9001,-4.9001,-4.9001,-4.9001,-4.9001,-4.9001,-4.9001,-4.9001,-4.9001,-4.9001,-4.9001,-2.0842,0.0,-2.3326,-2.374,-2.5053,-2.6544,-2.7643,-2.8221,-2.8645,-2.8945,-2.8392,-2.7982,-2.8247,-2.8656,-2.8686,-2.8076,-2.9014,-2.9167,-2.7384,-2.7375,-2.7159,-2.6191,-2.5872,0.0,0.0,0.0,0.0,-2.661,-2.905,-3.0507,-3.0586,-3.1937,-3.2727,-3.2727,-3.2727,-3.2727,-3.2727,-3.2727,-3.2727,-3.2727,-3.2727,-3.2955,-3.3296,-3.3069,-3.3727,-3.5146,-3.6703,-3.7784,-3.8626,-3.9838,-4.0095,-3.9547,-3.8945,-3.8383,-3.79,-3.79,-3.79,-3.79,-3.79,-3.79,-3.79,-3.79,-3.79,-3.79,-3.79,-3.8472,-3.9373,-4.0332,-4.1296,-4.2237,-4.3076,-4.3329,-4.3329,-4.3329,-4.3329,-4.3329,-4.3329,-4.3329,-4.3329,-4.3329,-4.3329,-4.3329,-4.3329,-4.3329,-4.3329,-4.3329,-4.3329,-4.3329,-4.3329,-4.3329,-4.3329,-4.3329,-4.3329,-4.3329,-4.3329,-4.3864,-4.4737,-4.5921,-4.6609,-4.7605,-4.8832,-4.894,-4.9001,-4.9001,-4.9001,-4.9001,-4.9001,-4.9001,-4.9001,-4.9001,-4.9001,-4.9001,-2.1682,-2.3125,-2.4545,-2.5217,-2.6494,-2.7843,-2.8689,-2.9184,-2.9477,-2.9315,-2.8828,-2.8466,-2.8092,-2.8967,-2.9292,-2.8186,-2.9547,-3.0037,-2.8135,-2.8135,-2.8019,-2.7168,-2.6735,0.0,0.0,0.0,0.0,-2.7833,-2.9592,-3.0829,-3.1265,-3.2248,-3.2727,-3.2727,-3.2727,-3.2727,-3.2727,-3.2727,-3.2727,-3.2727,-3.2955,-3.3285,-3.3942,-3.3727,-3.439,-3.5817,-3.7049,-3.8113,-3.8871,-4.0169,-4.0292,-3.9573,-3.9181,-3.8566,-3.79,-3.79,-3.79,-3.79,-3.79,-3.79,-3.79,-3.79,-3.79,-3.79,-3.79,-3.8729,-3.9812,-4.0418,-4.1463,-4.2578,-4.317,-4.3329,-4.3329,-4.3329,-4.3329,-4.3329,-4.3329,-4.3329,-4.3329,-4.3329,-4.3329,-4.3329,-4.3329,-4.3329,-4.3329,-4.3329,-4.3329,-4.3329,-4.3329,-4.3329,-4.3329,-4.3329,-4.3329,-4.3329,-4.3329,-4.3771,-4.4646,-4.5921,-4.6592,-4.7523,-4.8832,-4.894,-4.9001,-4.9001,-4.9001,-4.9001,-4.9001,-4.9001,-4.9001,-4.9001,-4.9001,-4.9001,-2.3083,-2.424,-2.5685,-2.7662,-2.8184,-2.8599,-2.992,-2.9852,-2.9669,-3.0034,-2.9013,-2.8269,0.0,0.0,-2.8807,-2.9314,-2.9803,-2.9879,-2.891,-2.8794,-2.8794,0.0,0.0,0.0,0.0,0.0,0.0,-2.8785,0.0,-3.0849,-3.1381,-3.2248,-3.2727,-3.2727,-3.2727,-3.2727,-3.2727,-3.2727,-3.2737,-3.2727,-3.3285,-3.3942,-3.4591,-3.5157,-3.5708,-3.6483,-3.8056,-3.8792,-3.9,-4.0541,-4.0618,-3.9612,-3.9573,-3.888,-3.79,-3.79,-3.79,-3.79,-3.79,-3.79,-3.79,-3.79,-3.79,-3.79,-3.79,-3.9176,-4.0504,-4.0603,-4.1879,-4.325,-4.325,-4.3329,-4.3329,-4.3329,-4.3329,-4.3329,-4.3329,-4.3329,-4.3329,-4.3329,-4.3329,-4.3329,-4.3329,-4.3329,-4.3329,-4.3329,-4.3329,-4.3329,-4.3329,-4.3329,-4.3329,-4.3329,-4.3329,-4.3329,-4.3329,-4.3409,-4.419,-4.6032,-4.626,-4.7104,-4.894,-4.9001,-4.9001,-4.9001,-4.9001,-4.9001,-4.9001,-4.9001,-4.9001,-4.9001,-4.9001,-4.9001,-2.3368,-2.4947,-2.6501,-2.7826,-2.8902,-2.9772,-3.0091,-3.0125,-2.984,-2.9187,-2.8828,-2.8477,0.0,0.0,0.0,-2.8917,-3.0906,0.0,-2.9984,-3.0681,0.0,-2.89,0.0,-2.907,-2.9421,-2.9186,0.0,0.0,-3.1819,-3.225,-3.2363,-3.2612,-3.2727,-3.2727,-3.2727,-3.2727,-3.2727,-3.2727,-3.2955,-3.3399,-3.3512,-3.4177,-3.5146,-3.4814,-3.5685,-3.7203,-3.7808,-3.8767,-3.9827,-4.0417,-4.0239,-3.9573,-3.9115,-3.8514,-3.79,-3.79,-3.79,-3.79,-3.79,-3.79,-3.79,-3.79,-3.79,-3.79,-3.79,-3.8652,-3.9724,-4.0418,-4.1463,-4.2496,-4.317,-4.3329,-4.3329,-4.3329,-4.3329,-4.3329,-4.3329,-4.3329,-4.3329,-4.3329,-4.3329,-4.3329,-4.3329,-4.3329,-4.3329,-4.3329,-4.3329,-4.3329,-4.3329,-4.3329,-4.3329,-4.3329,-4.3329,-4.3329,-4.3329,-4.4358,-4.53,-4.5921,-4.7204,-4.8194,-4.8832,-4.8956,-4.9001,-4.9001,-4.9001,-4.9001,-4.9001,-4.9001,-4.9001,-4.9001,-4.9001,-4.9001,-2.4486,-2.634,-2.8058,-2.8811,-2.9625,-3.0216,-3.0216,-3.0034,-2.976,-2.9198,-2.8735,0.0,0.0,0.0,0.0,0.0,0.0,0.0,-3.0463,-3.0899,-3.0785,0.0,-2.9727,0.0,-3.0275,-3.0147,-3.0697,0.0,-3.2219,-3.2248,-3.2727,-3.2727,-3.2727,-3.2727,-3.2727,-3.2841,-3.3069,-3.2841,-3.3172,-3.3942,-3.3942,-3.4491,-3.5378,-3.5367,-3.6122,-3.7512,0.0,-3.8852,-3.9766,-4.0244,-3.9939,-3.9181,-3.8841,-3.8383,-3.79,-3.79,-3.79,-3.79,-3.79,-3.79,-3.79,-3.79,-3.79,-3.79,-3.79,-3.8819,-3.9899,-4.0418,-4.1547,-4.2659,-4.317,-4.3329,-4.3329,-4.3329,-4.3329,-4.3329,-4.3329,-4.3329,-4.3329,-4.3329,-4.3329,-4.3329,-4.3329,-4.3329,-4.3329,-4.3329,-4.3329,-4.3329,-4.3329,-4.3329,-4.3329,-4.3329,-4.3329,-4.3329,-4.3329,-4.4434,-4.5447,-4.5992,-4.7255,-4.8242,-4.8894,-4.894,-4.9001,-4.9001,-4.9001,-4.9001,-4.9001,-4.9001,-4.9001,-4.9001,-4.9001,-4.9001,-2.5962,-2.7765,-2.9509,-3.0022,-3.0216,-3.0216,-3.0125,-2.976,-2.9485,-2.9301,0.0,-2.7987,-2.7904,-2.7998,-2.8275,-2.9141,0.0,-2.9764,-3.0628,-3.0401,-3.0203,-2.9994,-3.0504,-3.0971,-3.1329,-3.1774,-3.223,-3.2696,-3.2008,-3.1883,-3.2612,-3.2727,-3.2737,-3.2841,-3.2727,-3.3069,-3.3727,-3.3172,-3.3388,-3.4591,-3.4591,-3.4925,-3.5488,-3.6048,-3.6796,-3.7725,0.0,0.0,-3.9395,-3.9946,-3.9599,-3.8697,-3.8632,-3.8318,-3.79,-3.79,-3.79,-3.79,-3.79,-3.79,-3.79,-3.79,-3.79,-3.79,-3.79,-3.9162,-4.0603,-4.0603,-4.1879,-4.3329,-4.3329,-4.3329,-4.3329,-4.3329,-4.3329,-4.3329,-4.3329,-4.3329,-4.3329,-4.3329,-4.3329,-4.3329,-4.3329,-4.3329,-4.3329,-4.3329,-4.3329,-4.3329,-4.3329,-4.3329,-4.3329,-4.3329,-4.3329,-4.3329,-4.3488,-4.4205,-4.5138,-4.6244,-4.7088,-4.7933,-4.894,-4.9001,-4.9001,-4.9001,-4.9001,-4.9001,-4.9001,-4.9001,-4.9001,-4.9001,-4.9001,-4.9001,-2.6875,-2.8028,-2.9087,-3.0011,-3.0216,-3.0125,-2.9669,-2.9577,0.0,0.0,0.0,-2.7904,-2.7536,-2.8115,0.0,-2.8744,0.0,0.0,0.0,0.0,-3.1013,0.0,0.0,0.0,0.0,0.0,0.0,0.0,0.0,0.0,-3.2727,-3.2727,-3.2955,-3.3399,-3.2955,-3.3275,-3.4368,-3.3727,-3.4065,-3.5256,-3.5256,-3.5598,-3.6157,-3.6266,-3.7108,-3.8558,0.0,0.0,-4.0135,-3.9294,-3.8893,-3.8671,-3.8214,-3.7978,-3.79,-3.79,-3.79,-3.79,-3.79,-3.79,-3.79,-3.79,-3.79,-3.79,-3.79,-3.9162,-4.0603,-4.0603,-4.1879,-4.3329,-4.3329,-4.3329,-4.3329,-4.3329,-4.3329,-4.3329,-4.3329,-4.3329,-4.3329,-4.3329,-4.3329,-4.3329,-4.3329,-4.3329,-4.3329,-4.3329,-4.3329,-4.3329,-4.3329,-4.3329,-4.3329,-4.3329,-4.3329,-4.3551,-4.422,-4.5153,-4.6064,-4.702,-4.8032,-4.8673,-4.9001,-4.9001,-4.9001,-4.9001,-4.9001,-4.9001,-4.9001,-4.9001,-4.9001,-4.9001,-4.9001,-4.9001,-2.7293,-2.8443,-2.9566,-3.0125,-3.0216,-3.0034,-2.9577,0.0,0.0,0.0,-2.7809,-2.7536,-2.7357,0.0,0.0,0.0,0.0,0.0,0.0,0.0,0.0,0.0,0.0,0.0,0.0,0.0,0.0,0.0,0.0,0.0,-3.2727,-3.2955,-3.3182,-3.3182,-3.3501,-3.3931,-3.4469,-3.4267,-3.4714,-3.5817,-3.5598,-3.5708,-3.6266,-3.6688,-3.7488,-3.8361,-3.8512,0.0,-3.9481,-3.8932,-3.854,-3.8266,-3.8004,-3.79,-3.79,-3.79,-3.79,-3.79,-3.79,-3.79,-3.79,-3.79,-3.79,-3.79,-3.79,-3.9162,-4.0603,-4.0603,-4.1879,-4.3329,-4.3329,-4.3329,-4.3329,-4.3329,-4.3329,-4.3329,-4.3329,-4.3329,-4.3329,-4.3329,-4.3329,-4.3329,-4.3329,-4.3329,-4.3329,-4.3329,-4.3329,-4.3329,-4.3329,-4.3329,-4.3329,-4.3329,-4.3329,-4.3708,-4.4586,-4.5431,-4.6346,-4.7373,-4.8322,-4.8832,-4.9001,-4.9001,-4.9001,-4.9001,-4.9001,-4.9001,-4.9001,-4.9001,-4.9001,-4.9001,-4.9001,-4.9001,-2.7645,-2.8813,-3.0034,-3.0216,-3.0125,-2.9943,-2.9485,-2.9013,0.0,0.0,-2.7536,-2.7262,-2.7262,0.0,0.0,0.0,0.0,0.0,0.0,0.0,0.0,0.0,0.0,0.0,0.0,0.0,0.0,0.0,0.0,0.0,-3.2841,-3.3285,-3.3512,-3.3285,-3.4043,-3.4591,-3.4925,-3.4814,-3.5256,-3.6266,-3.5817,-3.5817,-3.6375,-3.699,-3.7553,-3.798,-3.8542,0.0,0.0,-3.8593,-3.8292,-3.79,-3.79,-3.79,-3.79,-3.79,-3.79,-3.79,-3.79,-3.79,-3.79,-3.79,-3.79,-3.79,-3.79,-3.9162,-4.0603,-4.0603,-4.1879,-4.3329,-4.3329,-4.3329,-4.3374,-4.3509,-4.3539,-4.3584,-4.3718,-4.3643,-4.3539,-4.3539,-4.3434,-4.3329,-4.3329,-4.3329,-4.3329,-4.3329,-4.3329,-4.3329,-4.3329,-4.3329,-4.3329,-4.3329,-4.3329,-4.3708,-4.4662,-4.5504,-4.64,-4.744,-4.8386,-4.8894,-4.9001,-4.9001,-4.9001,-4.9001,-4.9001,-4.9001,-4.9001,-4.9001,-4.9001,-4.9001,-4.9001,-4.9001,-2.8614,-2.908,-2.9669,-3.0125,-2.9852,-2.9485,-2.8943,0.0,0.0,-2.7536,-2.7357,-2.7262,-2.7262,-2.7262,-2.7552,0.0,0.0,0.0,0.0,0.0,0.0,0.0,0.0,0.0,0.0,0.0,0.0,0.0,0.0,0.0,0.0,-3.3512,-3.4065,-3.5157,-3.4703,-3.5035,-3.6157,-3.5598,-3.5598,-3.6266,-3.6266,-3.6277,-3.6363,-3.665,-3.7228,-3.7944,0.0,0.0,0.0,-3.8174,-3.7952,-3.79,-3.79,-3.79,-3.79,-3.79,-3.79,-3.79,-3.79,-3.79,-3.79,-3.79,-3.79,-3.79,-3.79,-3.9162,-4.0603,-4.0603,-4.1879,-4.3329,-4.3329,-4.3329,-4.3479,-4.4077,-4.4227,-4.4392,-4.499,-4.4646,-4.4227,-4.4227,-4.3748,-4.3329,-4.3329,-4.3329,-4.3329,-4.3329,-4.3329,-4.3329,-4.3329,-4.3329,-4.3329,-4.3329,-4.3329,-4.363,-4.445,-4.5561,-4.6523,-4.729,-4.837,-4.9001,-4.9001,-4.9001,-4.9001,-4.9001,-4.9001,-4.9001,-4.9001,-4.9001,-4.9001,-4.9001,-4.9001,-4.9001,-2.8523,-2.8688,-2.8934,-2.9954,-2.9669,-2.9035,-2.885,0.0,0.0,-2.7441,-2.7262,-2.7262,-2.7262,-2.7262,-2.7469,0.0,0.0,0.0,0.0,0.0,0.0,0.0,0.0,0.0,0.0,0.0,0.0,0.0,0.0,0.0,0.0,-3.4725,-3.4714,-3.4814,-3.5378,-3.5598,-3.5708,-3.5927,-3.6048,-3.6266,-3.6266,-3.6117,-3.5807,-3.6963,-3.7241,-3.6997,0.0,0.0,0.0,-3.7991,-3.79,-3.79,-3.79,-3.79,-3.79,-3.79,-3.79,-3.79,-3.79,-3.79,-3.79,-3.79,-3.79,-3.79,-3.79,-3.9162,-4.0603,-4.0603,-4.1879,-4.3329,-4.3329,-4.3329,-4.3509,-4.4152,-4.4317,-4.4496,-4.5155,-4.5095,-4.4781,-4.4392,-4.4107,-4.3793,-4.3404,-4.3329,-4.3329,-4.3329,-4.3329,-4.3329,-4.3329,-4.3329,-4.3329,-4.3329,-4.3329,-4.3834,-4.5227,-4.5834,-4.6747,-4.8113,-4.8719,-4.9001,-4.9001,-4.9001,-4.9001,-4.9001,-4.9001,-4.9001,-4.9001,-4.9001,-4.9001,-4.9001,-4.9001,-4.9001,-2.822,-2.8053,-2.8006,-2.9602,-2.9181,-2.8386,0.0,0.0,0.0,-2.7715,-2.7536,-2.7441,-2.8081,-2.7715,-2.7502,0.0,0.0,-2.9184,0.0,0.0,0.0,0.0,0.0,0.0,0.0,0.0,0.0,0.0,0.0,0.0,0.0,-3.5598,-3.5488,-3.5035,-3.5829,-3.6048,-3.5708,-3.6048,-3.6266,-3.6266,-3.6333,-3.6186,-3.5933,-3.7151,-3.7407,-3.6761,0.0,0.0,0.0,-3.79,-3.79,-3.79,-3.79,-3.79,-3.79,-3.79,-3.79,-3.79,-3.79,-3.79,-3.79,-3.79,-3.79,-3.79,-3.79,-3.9162,-4.0603,-4.0603,-4.1879,-4.3329,-4.3329,-4.3329,-4.3509,-4.4152,-4.4466,-4.4781,-4.5454,-4.5439,-4.5155,-4.4691,-4.4287,-4.3868,-4.3419,-4.3329,-4.3329,-4.3329,-4.3329,-4.3329,-4.3329,-4.3329,-4.3329,-4.3423,-4.3423,-4.4004,-4.5431,-4.5977,-4.6831,-4.8339,-4.8798,-4.9001,-4.9001,-4.9001,-4.9001,-4.9001,-4.9001,-4.9001,-4.9001,-4.9001,-4.9001,-4.9001,-4.9001,-4.9001,-2.7725,-2.7291,-2.7058,-2.9012,-2.8398,-2.7597,0.0,0.0,0.0,-2.8631,-2.7998,-2.7893,-2.9806,-2.8631,-2.7778,-2.9189,-2.8985,0.0,0.0,0.0,0.0,0.0,0.0,0.0,0.0,0.0,0.0,0.0,0.0,0.0,0.0,-3.5938,-3.6266,-3.6266,-3.6266,-3.6266,-3.6266,-3.6266,-3.6266,-3.6266,-3.6614,-3.6682,-3.6752,-3.7283,-3.7463,0.0,0.0,0.0,0.0,-3.79,-3.79,-3.79,-3.79,-3.79,-3.79,-3.79,-3.79,-3.79,-3.79,-3.79,-3.79,-3.79,-3.79,-3.79,-3.79,-3.9162,-4.0603,-4.0603,-4.1879,-4.3329,-4.3329,-4.3329,-4.3509,-4.4152,-4.4811,-4.5469,-4.6157,-4.5783,-4.5289,-4.5289,-4.4227,-4.3344,-4.3329,-4.3329,-4.3329,-4.3329,-4.3329,-4.3329,-4.3329,-4.3329,-4.3423,-4.369,-4.369,-4.3972,-4.4737,-4.5618,-4.6592,-4.7523,-4.8513,-4.9001,-4.9001,-4.9001,-4.9001,-4.9001,-4.9001,-4.9001,-4.9001,-4.9001,-4.9001,-4.9001,-4.9001,-4.9001,-2.726,-2.7079,-2.6996,-2.8569,-2.8136,-2.7442,-2.8049,0.0,0.0,-2.7715,-2.7998,-2.8269,-2.8258,-2.8269,-2.8228,-2.801,-2.8307,0.0,0.0,0.0,0.0,0.0,0.0,0.0,0.0,0.0,0.0,0.0,0.0,0.0,0.0,-3.6157,-3.6266,-3.6266,-3.6266,-3.6266,-3.6266,-3.5933,-3.607,-3.6602,-3.627,-3.6231,-3.6488,-3.713,0.0,0.0,0.0,0.0,0.0,-3.79,-3.79,-3.79,-3.79,-3.79,-3.79,-3.79,-3.79,-3.79,-3.79,-3.79,-3.79,-3.79,-3.8304,-3.8792,-3.8792,-3.9664,-4.0859,-4.214,-4.282,-4.3329,-4.3329,-4.3329,-4.3509,-4.4152,-4.4466,-4.4811,-4.5469,-4.5813,-4.5723,-4.4796,-4.4646,-4.4392,-4.3494,-4.3423,-4.3518,-4.3329,-4.3423,-4.3518,-4.3329,-4.3423,-4.3596,-4.369,-4.4251,-4.4962,-4.5649,-4.615,-4.6984,-4.8339,-4.8798,-4.9001,-4.9001,-4.9001,-4.9001,-4.9001,-4.9001,-4.9001,-4.9001,-4.9001,-4.9001,-4.9001,-4.9001,-4.9001,0.0,-2.6986,-2.6689,-2.8066,-2.7732,0.0,0.0,0.0,0.0,-2.8362,-2.8899,-2.936,-2.9441,-2.936,-2.9231,-2.9223,-2.962,0.0,0.0,0.0,0.0,0.0,0.0,0.0,0.0,0.0,0.0,0.0,0.0,0.0,0.0,0.0,-3.599,-3.599,-3.6174,-3.6391,-3.6421,-3.6096,-3.6262,-3.6879,-3.663,-3.6591,-3.6761,-3.7343,0.0,0.0,0.0,0.0,0.0,-3.79,-3.79,-3.79,-3.79,-3.79,-3.79,-3.79,-3.79,-3.79,-3.79,-3.79,-3.79,-3.79,-3.8472,-3.9285,-3.9637,-4.0418,-4.1449,-4.29,-4.3329,-4.3329,-4.3329,-4.3329,-4.3434,-4.3838,-4.4137,-4.4421,-4.484,-4.5259,-4.5319,-4.4548,-4.4518,-4.4383,-4.3638,-4.3675,-4.3675,-4.3581,-4.3675,-4.3754,-4.3581,-4.3754,-4.3988,-4.4328,-4.4827,-4.5665,-4.6779,-4.6916,-4.7489,-4.8753,-4.894,-4.9001,-4.9001,-4.9001,-4.9001,-4.9001,-4.9001,-4.9001,-4.9001,-4.9001,-4.9001,-4.9001,-4.9001,-4.9001,0.0,-2.7047,0.0,0.0,0.0,0.0,0.0,0.0,0.0,0.0,0.0,-3.08,-3.2525,-3.1524,-3.0784,-3.2105,-3.2158,0.0,0.0,0.0,0.0,0.0,0.0,0.0,0.0,0.0,0.0,0.0,0.0,0.0,0.0,0.0,-3.5569,-3.5569,-3.6018,-3.647,-3.6623,-3.6588,-3.6728,-3.712,-3.7362,-3.7483,-3.7566,-3.7751,0.0,0.0,0.0,0.0,0.0,-3.79,-3.79,-3.79,-3.79,-3.79,-3.79,-3.79,-3.79,-3.79,-3.79,-3.79,-3.79,-3.7992,-3.8562,-3.9461,-4.0418,-4.1296,-4.2155,-4.3076,-4.3329,-4.3329,-4.3329,-4.3329,-4.3329,-4.3329,-4.3808,-4.4242,-4.4242,-4.4287,-4.4383,-4.4484,-4.3938,-4.3548,-4.391,-4.3832,-4.3769,-4.3988,-4.3988,-4.3988,-4.3988,-4.4065,-4.4404,-4.5332,-4.5551,-4.6237,-4.7754,-4.7737,-4.8015,-4.894,-4.9001,-4.9001,-4.9001,-4.9001,-4.9001,-4.9001,-4.9001,-4.9001,-4.9001,-4.9001,-4.9001,-4.9001,-4.9001,-4.9001,-2.8055,0.0,-2.7957,-2.7536,-2.7557,-2.7859,0.0,0.0,0.0,0.0,0.0,0.0,0.0,0.0,-3.1514,0.0,0.0,0.0,0.0,0.0,0.0,0.0,0.0,0.0,0.0,0.0,0.0,0.0,0.0,0.0,0.0,0.0,-3.5836,-3.5836,-3.6482,-3.6687,-3.6054,-3.5777,-3.6206,-3.7446,-3.7083,-3.7207,-3.7805,-3.7873,0.0,0.0,0.0,0.0,-3.79,-3.79,-3.79,-3.79,-3.79,-3.79,-3.79,-3.79,-3.79,-3.79,-3.79,-3.79,-3.7979,-3.8715,-3.9475,-4.0418,-4.138,-4.1811,-4.2155,-4.3076,-4.3329,-4.3329,-4.3329,-4.3329,-4.3329,-4.3329,-4.3449,-4.3569,-4.3569,-4.4038,-4.4394,-4.3992,-4.4267,-4.4501,-4.4079,-4.4065,-4.4127,-4.3988,-4.4143,-4.4205,-4.3988,-4.4617,-4.52,-4.5405,-4.6571,-4.7473,-4.7885,-4.7885,-4.8161,-4.894,-4.9001,-4.9001,-4.9001,-4.9001,-4.9001,-4.9001,-4.9001,-4.9001,-4.9001,-4.9001,-4.9001,-4.9001,-4.9001,-4.9001,-2.8484,-2.8549,-2.8538,-2.7809,-2.8186,-2.8735,-2.9095,0.0,0.0,0.0,0.0,0.0,0.0,0.0,0.0,0.0,0.0,0.0,0.0,0.0,0.0,0.0,0.0,0.0,0.0,0.0,0.0,0.0,0.0,0.0,0.0,0.0,-3.6102,-3.6102,-3.6271,-3.6456,-3.6602,-3.6419,-3.6746,-3.7664,-3.7355,-3.7505,-3.79,-3.79,-3.79,0.0,0.0,0.0,-3.79,-3.79,-3.79,-3.79,-3.79,-3.79,-3.79,-3.79,-3.79,-3.79,-3.79,-3.8148,-3.8549,-3.9046,-4.0159,-4.138,-4.1825,-4.2252,-4.2659,-4.317,-4.3329,-4.3329,-4.3329,-4.3329,-4.3329,-4.3329,-4.3329,-4.3329,-4.3423,-4.3867,-4.4161,-4.397,-4.4276,-4.4476,-4.4281,-4.4281,-4.4281,-4.4281,-4.4358,-4.4435,-4.4281,-4.4977,-4.5697,-4.604,-4.7137,-4.8032,-4.8386,-4.837,-4.8593,-4.9001,-4.9001,-4.9001,-4.9001,-4.9001,-4.9001,-4.9001,-4.9001,-4.9001,-4.9001,-4.9001,-4.9001,-4.9001,-4.9001,-4.9001,-2.9024,-2.8921,-2.9002,-2.8456,-2.9013,-2.9749,-3.0079,0.0,0.0,0.0,0.0,0.0,0.0,0.0,0.0,0.0,0.0,0.0,0.0,0.0,0.0,0.0,0.0,0.0,0.0,0.0,0.0,0.0,0.0,0.0,0.0,0.0,0.0,-3.6357,-3.6106,-3.6463,-3.7515,-3.7419,-3.7582,-3.79,-3.79,-3.79,-3.79,-3.79,-3.79,0.0,0.0,0.0,-3.79,-3.79,-3.79,-3.79,-3.79,-3.79,-3.79,-3.79,-3.79,-3.79,-3.79,-3.8472,-3.921,-3.921,-4.0504,-4.199,-4.199,-4.2578,-4.3329,-4.3329,-4.3329,-4.3329,-4.3329,-4.3329,-4.3329,-4.3344,-4.3344,-4.3423,-4.3675,-4.3769,-4.391,-4.4205,-4.4205,-4.4205,-4.4511,-4.4435,-4.4435,-4.4572,-4.4572,-4.4572,-4.4572,-4.5348,-4.6127,-4.6742,-4.7556,-4.8306,-4.894,-4.9001,-4.9001,-4.9001,-4.9001,-4.9001,-4.9001,-4.9001,-4.9001,-4.9001,-4.9001,-4.9001,-4.9001,-4.9001,-4.9001,-4.9001,-4.9001,-4.9001,-2.9013,-2.9829,-3.0656,-2.9726,-2.9909,-3.0633,-3.1689,0.0,0.0,0.0,0.0,0.0,0.0,0.0,0.0,0.0,0.0,0.0,0.0,0.0,0.0,0.0,0.0,0.0,0.0,0.0,0.0,0.0,0.0,0.0,0.0,0.0,0.0,-3.666,-3.7266,-3.765,-3.7833,-3.7143,-3.7198,-3.79,-3.79,-3.79,-3.79,-3.79,-3.79,0.0,0.0,-3.79,-3.79,-3.79,-3.79,-3.79,-3.79,-3.79,-3.79,-3.79,-3.79,-3.79,-3.79,-3.8472,-3.921,-3.921,-4.0504,-4.199,-4.199,-4.2578,-4.3329,-4.3329,-4.3329,-4.3329,-4.3329,-4.3329,-4.3344,-4.3596,-4.3596,-4.369,-4.391,-4.4065,-4.4205,-4.4281,-4.4435,-4.4511,-4.4572,-4.4572,-4.4572,-4.4587,-4.4572,-4.4572,-4.4572,-4.5769,-4.6673,-4.6811,-4.8048,-4.8861,-4.9001,-4.9001,-4.9001,-4.9001,-4.9001,-4.9001,-4.9001,-4.9001,-4.9001,-4.9001,-4.9001,-4.9001,-4.9001,-4.9001,-4.9001,-4.9001,-4.9001,-4.9001,-3.0102,-3.0656,-3.1383,-3.1701,-3.1789,-3.2052,-3.276,-3.3018,0.0,0.0,0.0,0.0,0.0,0.0,0.0,0.0,0.0,0.0,0.0,0.0,0.0,0.0,0.0,0.0,0.0,0.0,0.0,0.0,0.0,0.0,0.0,0.0,0.0,0.0,-3.8457,-3.8828,-3.8828,-3.8424,-3.8256,-3.8344,-3.8671,-3.8828,-3.8828,-3.8828,-3.8828,-3.8828,0.0,-3.8828,-3.8828,-3.8828,-3.8632,-3.8344,-3.8344,-3.8161,-3.79,-3.79,-3.79,-3.79,-3.79,-3.8684,-3.9788,-4.0308,-4.158,-4.3091,-4.3622,-4.405,-4.4392,-4.4392,-4.3883,-4.3329,-4.3329,-4.3423,-4.3518,-4.369,-4.3754,-4.391,-4.4127,-4.4205,-4.4358,-4.4435,-4.4511,-4.4572,-4.4572,-4.4572,-4.4572,-4.4572,-4.4572,-4.4572,-4.4572,-4.5913,-4.6811,-4.6811,-4.8113,-4.9001,-4.9001,-4.9001,-4.9001,-4.9001,-4.9001,-4.9001,-4.9001,-4.9001,-4.9001,-4.9001,-4.9001,-4.9001,-4.9001,-4.9001,-4.9001,-4.9001,-4.9001,-4.9001,-3.1128,-3.1383,-3.1813,-3.3043,0.0,-3.3215,-3.3556,-3.3725,0.0,0.0,0.0,0.0,0.0,0.0,0.0,0.0,0.0,0.0,0.0,0.0,0.0,0.0,0.0,0.0,0.0,0.0,0.0,0.0,0.0,0.0,0.0,0.0,0.0,0.0,-3.9364,-3.9612,-3.9612,-3.973,-3.9494,-3.8932,-3.939,-3.9612,-3.9612,-3.9612,-3.9612,-3.9612,-3.9612,-3.9612,-3.9612,-3.9612,-3.9337,-3.8919,-3.8919,-3.8579,-3.8096,-3.8096,-3.8175,-3.8213,-3.8081,-3.9016,-4.0382,-4.0998,-4.215,-4.3343,-4.4117,-4.4377,-4.4377,-4.4458,-4.3738,-4.3064,-4.3528,-4.3702,-4.3754,-4.3847,-4.3988,-4.4143,-4.4358,-4.4358,-4.4435,-4.4572,-4.4572,-4.4572,-4.4572,-4.4572,-4.4572,-4.4572,-4.4572,-4.4572,-4.4572,-4.5913,-4.6811,-4.6811,-4.8113,-4.9001,-4.9001,-4.9001,-4.9001,-4.9001,-4.9001,-4.9001,-4.9001,-4.9001,-4.9001,-4.9001,-4.9001,-4.9001,-4.9001,-4.9001,-4.9001,-4.9001,-4.9001,-4.9001,-3.1128,-3.1713,-3.2401,-3.3215,-3.3398,0.0,-3.4147,-3.4314,0.0,-3.5116,0.0,0.0,0.0,0.0,0.0,0.0,0.0,0.0,0.0,0.0,0.0,0.0,0.0,0.0,0.0,0.0,0.0,0.0,0.0,0.0,0.0,0.0,0.0,0.0,0.0,-3.9612,-3.9612,-4.0109,-4.0082,-3.9547,-3.9586,-3.9612,-3.9612,-3.9612,-3.9612,-3.9612,-3.9612,-3.9612,-3.9612,-3.9612,-3.9586,-3.9547,-3.9547,-3.9181,-3.8658,-3.8658,-3.8832,-3.9054,-3.8452,-3.9466,-4.0819,-4.0293,-4.0793,-4.1577,-4.1669,-4.1669,-4.1745,-4.1912,-4.1927,-4.2197,-4.4082,-4.427,-4.4065,-4.4205,-4.4281,-4.4358,-4.4496,-4.4587,-4.4572,-4.4572,-4.4572,-4.4572,-4.4572,-4.4572,-4.4572,-4.4572,-4.4572,-4.4572,-4.4572,-4.5913,-4.6811,-4.6811,-4.8113,-4.9001,-4.9001,-4.9001,-4.9001,-4.9001,-4.9001,-4.9001,-4.9001,-4.9001,-4.9001,-4.9001,-4.9001,-4.9001,-4.9001,-4.9001,-4.9001,-4.9001,-4.9001,-4.9001,-3.2438,-3.2785,-3.3205,-3.4345,-3.4619,0.0,0.0,-3.4946,-3.543,-3.5325,-3.5574,0.0,0.0,0.0,0.0,0.0,0.0,0.0,0.0,0.0,0.0,0.0,0.0,0.0,0.0,0.0,0.0,0.0,0.0,0.0,0.0,0.0,0.0,0.0,0.0,-4.0671,-4.0671,-4.088,-4.088,-4.0671,-4.0671,-4.0671,-4.0671,-4.0671,-4.0671,-4.0671,-4.0671,-4.0671,-4.0671,-4.0671,-4.0448,-4.0043,-3.9324,-3.871,-3.8161,-3.7782,-3.8113,-3.8512,-3.793,-3.8796,-4.0146,-4.0501,-4.1106,-4.1842,-4.2566,-4.2737,-4.2814,-4.2999,-4.2849,-4.2667,-4.2833,-4.291,-4.2969,-4.3043,-4.3118,-4.3282,-4.3356,-4.3664,-4.3956,-4.3956,-4.4279,-4.4572,-4.4572,-4.4572,-4.4572,-4.4572,-4.4572,-4.4572,-4.4572,-4.5913,-4.6633,-4.6196,-4.7032,-4.7631,-4.7631,-4.7631,-4.7834,-4.8308,-4.8748,-4.9001,-4.9001,-4.9001,-4.9001,-4.9001,-4.9001,-4.9001,-4.9001,-4.9001,-4.9001,-4.9001,-4.9001,-4.9001,-3.3215,-3.3512,-3.3913,-3.5011,0.0,0.0,-3.5064,-3.5534,-3.6057,-3.5874,-3.6279,0.0,0.0,0.0,0.0,0.0,0.0,0.0,0.0,0.0,0.0,0.0,0.0,0.0,0.0,0.0,0.0,0.0,0.0,0.0,0.0,0.0,0.0,0.0,0.0,-4.1311,-4.1311,-4.1311,-4.1311,-4.1311,-4.1128,-4.1141,-4.1311,-4.1311,-4.1311,-4.1311,-4.1311,-4.1206,-4.1036,-4.1036,-4.0579,-3.9782,-3.8828,-3.8109,-3.7573,-3.7155,-3.7651,-3.8416,-3.7729,-3.8517,-3.9886,-4.0363,-4.0832,-4.1342,-4.2149,-4.2379,-4.247,-4.2713,-4.2528,-4.2145,-4.1584,-4.1943,-4.2368,-4.2368,-4.2529,-4.2602,-4.2602,-4.2956,-4.3264,-4.3264,-4.3633,-4.3956,-4.3956,-4.3956,-4.3956,-4.3956,-4.3956,-4.4031,-4.4223,-4.5387,-4.6088,-4.6061,-4.6497,-4.6786,-4.6786,-4.6786,-4.7022,-4.753,-4.8037,-4.8511,-4.8984,-4.9001,-4.9001,-4.9001,-4.9001,-4.9001,-4.9001,-4.9001,-4.9001,-4.9001,-4.9001,-4.9001,-3.3215,-3.3792,-3.4372,0.0,0.0,0.0,-3.6253,-3.6123,-3.6292,-3.6894,0.0,0.0,0.0,0.0,0.0,0.0,0.0,0.0,0.0,0.0,0.0,0.0,0.0,0.0,0.0,0.0,0.0,0.0,0.0,0.0,0.0,0.0,0.0,0.0,0.0,0.0,-4.1298,-4.1298,-4.1298,-4.1298,-4.0697,-4.0723,-4.1311,-4.1298,-4.1298,-4.1298,-4.1298,-4.0945,-4.0396,-4.0396,-3.973,-3.8645,-3.8109,-3.7534,-3.6998,-3.6985,-3.779,-3.8746,-3.806,-3.8948,-4.0277,-3.9634,-3.9553,-3.9681,-3.9681,-3.9839,-4.0066,-4.0277,-4.0277,-4.0331,-4.047,-4.1555,-4.2586,-4.2586,-4.2586,-4.2586,-4.2586,-4.2602,-4.2602,-4.2602,-4.2602,-4.2602,-4.2602,-4.2602,-4.2602,-4.2602,-4.2617,-4.2875,-4.352,-4.4225,-4.5257,-4.665,-4.6769,-4.6769,-4.6769,-4.6769,-4.6769,-4.6786,-4.6786,-4.7445,-4.8934,-4.8984,-4.9001,-4.9001,-4.9001,-4.9001,-4.9001,-4.9001,-4.9001,-4.9001,-4.9001,-4.9001,-3.4567,-3.4886,0.0,-3.6204,0.0,0.0,0.0,-3.7377,0.0,0.0,0.0,0.0,0.0,0.0,0.0,0.0,0.0,0.0,0.0,0.0,0.0,0.0,0.0,0.0,0.0,0.0,0.0,0.0,0.0,0.0,0.0,0.0,0.0,0.0,0.0,0.0,-4.0109,-4.0109,-4.0109,-4.0109,-3.9926,-4.0135,-4.0671,-4.0292,-3.9886,-3.9481,-3.9481,-3.9168,-3.8645,-3.8645,-3.82,-3.7495,-3.7338,-3.725,-3.719,-3.6833,-3.762,-3.8903,-3.8285,-3.8779,-3.9679,-3.9613,-3.961,-3.9753,-4.0051,-4.0137,-4.0277,-4.0401,-4.047,-4.047,-4.0455,-4.0832,-4.114,-4.114,-4.114,-4.114,-4.114,-4.154,-4.1909,-4.1909,-4.2279,-4.2602,-4.2602,-4.2602,-4.2602,-4.2602,-4.3003,-4.3712,-4.4935,-4.4847,-4.4986,-4.5908,-4.5551,-4.5229,-4.5229,-4.5229,-4.5466,-4.5991,-4.6024,-4.6701,-4.8189,-4.824,-4.8477,-4.8984,-4.9001,-4.9001,-4.9001,-4.9001,-4.9001,-4.9001,-4.9001,-4.9001,-3.5142,0.0,0.0,0.0,0.0,0.0,0.0,0.0,0.0,0.0,0.0,0.0,0.0,0.0,0.0,0.0,0.0,0.0,0.0,0.0,0.0,0.0,0.0,0.0,0.0,0.0,0.0,0.0,0.0,0.0,0.0,0.0,0.0,0.0,0.0,0.0,-3.9612,-3.9612,-3.9494,-3.9246,-3.9037,-3.916,-3.9507,-3.937,-3.8932,-3.837,-3.8477,-3.82,-3.7508,-3.7382,-3.7135,-3.679,-3.6565,-3.6744,-3.7181,-3.6809,-3.7549,-3.862,-3.8333,-3.8811,-3.9553,-3.9681,-3.9839,-3.998,-4.0207,-4.0331,-4.0401,-4.0455,-4.0524,-4.0524,-4.0524,-4.0524,-4.0524,-4.0524,-4.0524,-4.0524,-4.0524,-4.0863,-4.117,-4.117,-4.1509,-4.1786,-4.1786,-4.1786,-4.1842,-4.2093,-4.294,-4.3896,-4.4714,-4.467,-4.475,-4.5206,-4.4857,-4.4587,-4.4587,-4.4587,-4.4773,-4.5229,-4.5263,-4.5788,-4.6989,-4.7614,-4.8122,-4.8562,-4.8849,-4.9001,-4.9001,-4.9001,-4.9001,-4.9001,-4.9001,-4.9001,-3.5273,0.0,0.0,0.0,0.0,0.0,0.0,0.0,0.0,0.0,0.0,0.0,0.0,0.0,0.0,0.0,0.0,0.0,0.0,0.0,0.0,0.0,0.0,0.0,0.0,0.0,0.0,0.0,0.0,0.0,0.0,0.0,0.0,0.0,0.0,0.0,-3.9715,-3.9715,-3.9412,0.0,-3.8319,-3.8073,-3.8247,-3.841,-3.8174,-3.7807,-3.8048,-3.7692,-3.6937,-3.668,-3.6552,-3.6497,-3.6034,-3.6281,-3.7049,-3.7049,-3.7539,-3.8277,-3.8352,-3.8943,-3.9681,-3.9753,-3.998,-4.0277,-4.0331,-4.0401,-4.0524,-4.0524,-4.0524,-4.0524,-4.0524,-4.0524,-4.0524,-4.0524,-4.0524,-4.0524,-4.0524,-4.0524,-4.0524,-4.0524,-4.0524,-4.0524,-4.0524,-4.0524,-4.0783,-4.1459,-4.2707,-4.3512,-4.3571,-4.4179,-4.4587,-4.4587,-4.4587,-4.4587,-4.4587,-4.4587,-4.4587,-4.4587,-4.4587,-4.4891,-4.5568,-4.6972,-4.7784,-4.7919,-4.8578,-4.8934,-4.9001,-4.9001,-4.9001,-4.9001,-4.9001,-4.9001,0.0,-3.6724,0.0,0.0,0.0,0.0,0.0,0.0,0.0,0.0,0.0,0.0,0.0,0.0,0.0,0.0,0.0,0.0,0.0,0.0,0.0,0.0,0.0,0.0,0.0,0.0,0.0,0.0,0.0,0.0,0.0,0.0,0.0,0.0,0.0,-4.0387,-4.0387,-4.0387,-4.0097,0.0,-3.9277,-3.874,-3.7866,-3.7017,-3.6696,-3.6784,-3.7042,-3.7087,-3.6913,-3.6874,-3.6842,-3.6842,-3.6716,-3.7141,-3.7947,-3.7947,-3.8427,-3.9192,-3.9322,-3.9538,-3.9753,-4.0051,-4.0191,-4.0347,-4.0401,-4.0455,-4.0524,-4.0524,-4.0524,-4.0524,-4.0524,-4.0524,-4.0524,-4.0524,-4.0524,-4.0524,-4.0524,-4.0524,-4.0524,-4.0524,-4.0524,-4.0524,-4.0524,-4.0524,-4.0904,-4.2078,-4.2953,-4.3706,-4.431,-4.4497,-4.4587,-4.4587,-4.4587,-4.4587,-4.4587,-4.4587,-4.4587,-4.4587,-4.4587,-4.4654,-4.4823,-4.5703,-4.6735,-4.7902,-4.8071,-4.8426,-4.9001,-4.9001,-4.9001,-4.9001,-4.9001,-4.9001,0.0,0.0,0.0,0.0,0.0,0.0,0.0,0.0,0.0,0.0,0.0,0.0,0.0,0.0,0.0,0.0,0.0,0.0,0.0,0.0,0.0,0.0,0.0,0.0,0.0,0.0,0.0,0.0,0.0,0.0,0.0,0.0,0.0,0.0,-4.0603,-4.0603,-4.0603,-4.0308,-3.9859,-3.924,-3.8863,-3.8232,-3.7321,-3.6743,-3.6566,-3.6723,-3.7282,-3.7295,-3.6958,-3.7372,-3.7539,-3.7539,-3.7539,-3.8023,-3.8811,-3.887,-3.9177,-3.9553,-3.9768,-3.991,-4.0051,-4.0191,-4.0331,-4.0401,-4.0455,-4.0524,-4.0524,-4.0524,-4.0524,-4.0524,-4.0524,-4.0524,-4.0524,-4.0524,-4.0524,-4.0524,-4.0524,-4.0524,-4.0524,-4.0524,-4.0524,-4.0524,-4.0524,-4.1024,-4.1706,-4.2395,-4.3393,-4.4179,-4.457,-4.4587,-4.4587,-4.4587,-4.4587,-4.4587,-4.4587,-4.4587,-4.4587,-4.4587,-4.4587,-4.4587,-4.4587,-4.4959,-4.5703,-4.6836,-4.7564,-4.8105,-4.8477,-4.8832,-4.9001,-4.9001,-4.929,-4.9453,0.0,0.0,0.0,0.0,0.0,0.0,0.0,0.0,0.0,0.0,0.0,0.0,0.0,0.0,0.0,0.0,0.0,0.0,0.0,0.0,0.0,0.0,0.0,0.0,0.0,0.0,0.0,0.0,0.0,0.0,0.0,0.0,-4.1029,-4.1029,-4.1029,-4.1056,-4.0942,-4.0347,-3.9737,-3.9093,-3.8388,-3.7806,-3.7357,-3.7357,-3.7281,-3.7204,-3.8023,-3.8023,-3.7357,-3.8098,-3.8427,-3.8427,-3.8427,-3.8811,-3.9409,-3.9625,-3.9681,-3.9753,-3.9996,-4.0137,-4.0261,-4.0347,-4.0401,-4.0524,-4.0524,-4.0524,-4.0524,-4.0524,-4.0524,-4.0524,-4.0524,-4.0524,-4.0524,-4.0524,-4.0524,-4.0524,-4.0524,-4.0524,-4.0524,-4.0524,-4.0524,-4.0524,-4.0524,-4.1575,-4.252,-4.252,-4.368,-4.4587,-4.4587,-4.4587,-4.4587,-4.4587,-4.4587,-4.4587,-4.4587,-4.4587,-4.4587,-4.4587,-4.4587,-4.4587,-4.4587,-4.4587,-4.4874,-4.55,-4.6836,-4.7597,-4.7733,-4.846,-4.8877,-4.8982,-4.9605,-4.993,0.0,0.0,0.0,0.0,0.0,0.0,0.0,0.0,0.0,0.0,0.0,0.0,0.0,0.0,0.0,0.0,0.0,0.0,0.0,0.0,0.0,0.0,0.0,0.0,0.0,0.0,0.0,0.0,0.0,0.0,0.0,-4.29,-4.29,-4.29,-4.29,-4.2713,-4.2149,-4.206,-4.1421,-4.0203,-3.9476,-3.9106,-3.9104,-3.9104,-3.8723,-3.8037,-3.8885,-3.9177,-3.9104,-3.9192,-3.9265,-3.9265,-3.9265,-3.9337,-3.9409,-3.9625,-3.9681,-3.9753,-4.0121,-4.0277,-4.0347,-4.047,-4.0455,-4.0524,-4.0524,-4.0524,-4.0524,-4.0524,-4.0524,-4.0524,-4.0524,-4.0524,-4.0524,-4.0524,-4.0524,-4.0524,-4.0524,-4.0524,-4.0524,-4.0524,-4.0524,-4.0524,-4.0524,-4.1575,-4.252,-4.252,-4.368,-4.4587,-4.4587,-4.4587,-4.4587,-4.4587,-4.4587,-4.4587,-4.4587,-4.4587,-4.4587,-4.4587,-4.4587,-4.4587,-4.4587,-4.4587,-4.4621,-4.4722,-4.5568,-4.6312,-4.6938,-4.7699,-4.8337,-4.8827,-4.9579,-5.0142,0.0,0.0,0.0,0.0,0.0,0.0,0.0,0.0,0.0,0.0,0.0,0.0,0.0,0.0,0.0,0.0,0.0,0.0,0.0,0.0,0.0,0.0,0.0,0.0,0.0,0.0,0.0,0.0,0.0,0.0,-4.3329,-4.3329,-4.3329,-4.3329,-4.297,-4.2656,-4.2357,-4.1624,-4.0786,-3.9843,-3.9559,-3.9424,-3.9424,-3.9424,-3.9192,-3.8885,-3.9265,-3.9424,-3.9424,-3.9424,-3.9424,-3.9424,-3.9553,-3.9553,-3.9625,-3.991,-4.0051,-4.0051,-4.0331,-4.0401,-4.0401,-4.0455,-4.0524,-4.0524,-4.0524,-4.0524,-4.0524,-4.0524,-4.0524,-4.0524,-4.0524,-4.0524,-4.0524,-4.0524,-4.0524,-4.0524,-4.0524,-4.0524,-4.0524,-4.0524,-4.0524,-4.0646,-4.1024,-4.1836,-4.2645,-4.3015,-4.3931,-4.4587,-4.4587,-4.4587,-4.4587,-4.4587,-4.4587,-4.4587,-4.4587,-4.4587,-4.4587,-4.4587,-4.4587,-4.4587,-4.4587,-4.4587,-4.4587,-4.4587,-4.5314,-4.5872,-4.6194,-4.7254,-4.7883,-4.8148,-4.9081,-4.9642,0.0,0.0,0.0,0.0,0.0,0.0,0.0,0.0,0.0,0.0,0.0,0.0,0.0,0.0,0.0,0.0,0.0,0.0,0.0,0.0,0.0,0.0,0.0,0.0,0.0,0.0,0.0,0.0,0.0,0.0,-4.3329,-4.3329,-4.3254,-4.309,-4.2611,-4.2207,-4.1878,-4.0726,-3.9903,-3.9424,-3.9424,-3.9424,-3.9424,-3.9424,-3.9424,-3.9424,-3.9424,-3.9424,-3.9409,-3.9496,-3.9496,-3.9481,-3.9696,-3.9768,-3.9839,-4.0191,-4.0277,-4.0347,-4.0455,-4.0524,-4.0524,-4.0524,-4.0524,-4.0524,-4.0524,-4.0524,-4.0524,-4.0524,-4.0524,-4.0524,-4.0524,-4.0524,-4.0524,-4.0524,-4.0524,-4.0524,-4.0524,-4.0524,-4.0524,-4.0524,-4.0646,-4.0904,-4.1393,-4.2205,-4.2937,-4.3436,-4.4105,-4.4587,-4.4587,-4.4587,-4.4587,-4.4587,-4.4587,-4.4587,-4.4587,-4.4587,-4.4587,-4.4587,-4.4587,-4.4587,-4.4587,-4.4587,-4.4587,-4.4587,-4.5128,-4.5473,-4.5609,-4.6773,-4.7447,-4.7752,-4.8749,-4.9293,0.0,0.0,0.0,0.0,0.0,0.0,0.0,0.0,0.0,0.0,0.0,0.0,0.0,0.0,0.0,0.0,0.0,0.0,0.0,0.0,0.0,0.0,0.0,0.0,0.0,0.0,0.0,0.0,0.0,0.0,-4.3329,-4.3329,-4.3045,-4.2432,-4.2387,-4.1758,-4.0516,-3.9813,-3.9454,-3.9424,-3.9424,-3.9424,-3.9424,-3.9424,-3.9424,-3.9424,-3.9424,-3.9424,-3.9409,-3.9625,-3.9681,-3.9681,-3.9925,-3.9996,-3.9996,-4.0207,-4.0277,-4.0347,-4.0455,-4.0524,-4.0524,-4.0524,-4.0524,-4.0524,-4.0524,-4.0524,-4.0524,-4.0524,-4.0524,-4.0524,-4.0524,-4.0524,-4.0524,-4.0524,-4.0524,-4.0524,-4.0524,-4.0524,-4.0524,-4.0524,-4.1024,-4.1459,-4.1525,-4.2583,-4.3453,-4.3512,-4.4105,-4.4587,-4.4587,-4.4587,-4.4587,-4.4587,-4.4587,-4.4587,-4.4587,-4.4587,-4.4587,-4.4587,-4.4587,-4.4587,-4.4587,-4.4587,-4.4587,-4.4587,-4.4621,-4.4865,-4.5319,-4.6129,-4.7073,-4.8063,-4.8859,-4.95,0.0,0.0,0.0,0.0,0.0,0.0,0.0,0.0,0.0,0.0,0.0,0.0,0.0,0.0,0.0,0.0,0.0,0.0,0.0,0.0,0.0,0.0,0.0,0.0,0.0,0.0,0.0,0.0,0.0,0.0,-4.3329,-4.294,-4.2596,-4.2372,-4.1549,-4.0666,-3.9783,-3.9544,-3.9424,-3.9424,-3.9424,-3.9424,-3.9409,-3.896,-3.8837,-3.8923,-3.8923,-3.9163,-3.9625,-3.9696,-3.9768,-3.9925,-4.0137,-4.0207,-4.0207,-4.0401,-4.0401,-4.047,-4.0455,-4.0524,-4.0524,-4.0524,-4.0524,-4.0524,-4.0524,-4.0524,-4.0524,-4.0524,-4.0524,-4.0524,-4.0524,-4.0524,-4.0524,-4.0524,-4.0524,-4.0524,-4.0524,-4.0524,-4.0662,-4.1091,-4.1343,-4.1771,-4.2645,-4.3196,-4.3647,-4.4105,-4.444,-4.4587,-4.4587,-4.4587,-4.4587,-4.4587,-4.4587,-4.4587,-4.4587,-4.4587,-4.4587,-4.4587,-4.4587,-4.4587,-4.4587,-4.4587,-4.4587,-4.4587,-4.4587,-4.4665,-4.4852,-4.5771,-4.6438,-4.683,-4.7805,-4.8359,-4.366,0.0,0.0,0.0,0.0,0.0,0.0,0.0,0.0,0.0,0.0,0.0,0.0,0.0,0.0,0.0,0.0,0.0,0.0,0.0,0.0,0.0,0.0,0.0,0.0,0.0,0.0,0.0,0.0,0.0,-4.3015,-4.2387,-4.1938,-4.1713,-4.0651,-3.9858,-3.9424,-3.9424,-3.9424,-3.9424,-3.9424,-3.929,-3.905,-3.8672,-3.8427,-3.837,-3.8424,-3.8817,-3.9451,-3.9748,-3.998,-4.0137,-4.0277,-4.0331,-4.0401,-4.047,-4.0524,-4.0524,-4.0524,-4.0524,-4.0524,-4.0524,-4.0524,-4.0524,-4.0524,-4.0524,-4.0524,-4.0524,-4.0524,-4.0524,-4.0524,-4.0524,-4.0524,-4.0524,-4.0524,-4.0593,-4.0783,-4.0836,-4.0956,-4.1393,-4.1885,-4.2458,-4.3333,-4.3706,-4.4047,-4.4514,-4.4587,-4.4587,-4.4587,-4.4587,-4.4587,-4.4587,-4.4587,-4.4587,-4.4587,-4.4587,-4.4587,-4.4587,-4.4587,-4.4587,-4.4587,-4.4587,-4.4587,-4.4587,-4.4759,-4.4852,-4.4869,-4.5683,-4.631,-4.666,-4.7363,-4.7717,0.0,0.0,0.0,0.0,0.0,0.0,0.0,0.0,0.0,0.0,0.0,0.0,0.0,0.0,0.0,0.0,0.0,0.0,0.0,0.0,0.0,0.0,0.0,0.0,0.0,0.0,0.0,0.0,0.0,-4.2327,-4.2327,-4.1713,-4.1055,-4.0382,-3.9753,-3.9424,-3.9424,-3.9424,-3.9424,-3.9424,-3.9424,-3.905,-3.8392,-3.8602,-3.831,-3.7692,-3.7797,-3.8311,-3.8994,-3.9871,-4.0216,-4.0285,-4.0409,-4.0462,-4.0462,-4.0462,-4.0462,-4.0462,-4.0462,-4.0462,-4.0478,-4.0493,-4.0493,-4.0493,-4.0524,-4.0524,-4.0524,-4.0524,-4.0524,-4.0524,-4.0524,-4.0524,-4.0524,-4.0524,-4.0524,-4.0715,-4.1393,-4.1525,-4.1591,-4.1591,-4.2583,-4.3512,-4.3512,-4.4121,-4.4587,-4.4587,-4.4587,-4.4587,-4.4587,-4.4587,-4.4587,-4.4587,-4.4587,-4.4587,-4.4587,-4.4587,-4.4587,-4.4587,-4.4587,-4.4587,-4.4587,-4.4587,-4.4643,-4.4626,-4.5089,-4.5303,-4.5355,-4.585,-4.666,-4.7675,-4.7699,-4.7717,-4.4281,0.0,0.0,0.0,0.0,0.0,0.0,0.0,0.0,0.0,0.0,0.0,0.0,0.0,0.0,0.0,0.0,0.0,0.0,0.0,0.0,0.0,0.0,0.0,0.0,0.0,0.0,0.0,-4.2028,-4.1654,-4.1654,-4.1025,-4.0367,-3.9709,-3.9514,-3.9424,-3.9424,-3.9424,-3.9424,-3.9424,-3.9424,-3.905,-3.8377,-3.7967,-3.7549,-3.7213,-3.7248,-3.7486,-3.7993,-3.8504,-3.8861,-3.9011,-3.9062,-3.9062,-3.9062,-3.9062,-3.9062,-3.9062,-3.9062,-3.9062,-3.9154,-3.9647,-3.9801,-3.9893,-4.037,-4.0524,-4.0524,-4.0524,-4.0524,-4.0524,-4.0524,-4.0524,-4.0646,-4.1091,-4.1209,-4.1393,-4.2078,-4.2567,-4.2953,-4.2953,-4.3257,-4.3647,-4.4179,-4.444,-4.4587,-4.4587,-4.4587,-4.4587,-4.4587,-4.4587,-4.4587,-4.4587,-4.4587,-4.4587,-4.4587,-4.4587,-4.4587,-4.4587,-4.4587,-4.4587,-4.4587,-4.4587,-4.4759,-4.5072,-4.5214,-4.5648,-4.6454,-4.6613,-4.6817,-4.7107,-4.7511,-4.7717,-4.4435,-4.4358,0.0,0.0,0.0,0.0,0.0,-4.3258,0.0,0.0,0.0,0.0,0.0,0.0,0.0,0.0,0.0,0.0,0.0,0.0,0.0,0.0,0.0,0.0,0.0,0.0,0.0,0.0,-4.1339,-4.0846,-4.0576,-4.0202,-3.9813,-3.9424,-3.9424,-3.9424,-3.9424,-3.9424,-3.9409,-3.9553,-3.9212,-3.8787,-3.8181,-3.7571,-3.7041,-3.6694,-3.6758,-3.6886,-3.7107,-3.7364,-3.792,-3.8508,-3.8508,-3.8508,-3.8508,-3.8508,-3.8508,-3.8508,-3.8508,-3.8508,-3.8616,-3.9293,-3.9524,-3.9647,-4.0324,-4.0524,-4.0524,-4.0524,-4.0524,-4.0524,-4.0524,-4.0715,-4.1024,-4.1393,-4.1706,-4.2078,-4.2769,-4.3196,-4.3512,-4.3512,-4.3764,-4.4105,-4.4514,-4.4587,-4.4587,-4.4587,-4.4587,-4.4587,-4.4587,-4.4587,-4.4587,-4.4587,-4.4587,-4.4587,-4.4587,-4.4587,-4.4587,-4.4587,-4.4587,-4.4587,-4.4587,-4.4814,-4.5035,-4.5303,-4.5749,-4.6406,-4.7258,-4.7017,-4.7017,-4.7258,-4.7554,-4.7717,-4.4572,-4.4511,-4.4343,0.0,0.0,0.0,-4.297,-4.2469,-4.1938,0.0,0.0,0.0,0.0,0.0,0.0,0.0,0.0,0.0,0.0,0.0,0.0,0.0,0.0,0.0,0.0,0.0,-4.1265,-4.1265,-4.0666,-4.0038,-3.9454,-3.9424,-3.9424,-3.9424,-3.9409,-3.9424,-3.9424,-3.9496,-3.9553,-3.9753,-3.9018,-3.8508,-3.7992,-3.741,-3.6853,-3.6211,-3.6414,-3.6492,-3.6492,-3.6492,-3.72,-3.8292,-3.8292,-3.8292,-3.8292,-3.8292,-3.8292,-3.8292,-3.8292,-3.8292,-3.8415,-3.917,-3.94,-3.9554,-4.0293,-4.0524,-4.0524,-4.0524,-4.0524,-4.0524,-4.0578,-4.1024,-4.1525,-4.1706,-4.2205,-4.2831,-4.3453,-4.363,-4.363,-4.363,-4.4162,-4.4587,-4.4587,-4.4587,-4.4587,-4.4587,-4.4587,-4.4587,-4.4587,-4.4587,-4.4587,-4.4587,-4.4587,-4.4587,-4.4587,-4.4587,-4.4587,-4.4587,-4.4626,-4.4665,-4.4665,-4.5125,-4.5407,-4.5459,-4.6454,-4.7214,-4.7717,-4.7214,-4.7258,-4.7717,-4.7717,-4.7717,0.0,0.0,0.0,0.0,0.0,0.0,-4.2763,-4.246,-4.219,0.0,0.0,0.0,0.0,0.0,0.0,0.0,0.0,0.0,0.0,0.0,0.0,0.0,0.0,0.0,0.0,0.0,-4.0591,-4.0591,-3.9978,-3.9559,-3.9424,-3.9424,-3.9424,-3.9424,-3.9553,-3.9625,-3.9625,-3.9783,-3.9925,-3.991,-3.9243,-3.8591,-3.7992,-3.7309,-3.674,-3.6196,-3.6274,-3.6352,-3.6492,-3.6492,-3.6645,-3.6892,-3.6892,-3.6892,-3.6892,-3.6892,-3.6892,-3.6892,-3.6892,-3.6892,-3.7092,-3.8308,-3.8708,-3.8939,-4.0155,-4.0524,-4.0524,-4.0524,-4.0524,-4.0646,-4.1142,-4.1393,-4.1771,-4.2831,-4.3196,-4.3512,-4.4236,-4.4384,-4.4384,-4.4384,-4.4497,-4.4587,-4.4587,-4.4587,-4.4587,-4.4587,-4.4587,-4.4587,-4.4587,-4.4587,-4.4587,-4.4587,-4.4587,-4.4587,-4.4587,-4.4587,-4.4587,-4.4587,-4.4944,-4.5161,-4.5161,-4.5665,-4.6165,-4.6566,-4.7214,-4.7615,-4.7717,-4.7597,-4.7615,-4.7717,-4.7717,-4.7717,0.0,0.0,0.0,-4.3648,0.0,0.0,0.0,-4.1999,0.0,0.0,0.0,0.0,0.0,0.0,0.0,0.0,0.0,0.0,0.0,0.0,0.0,0.0,0.0,0.0,0.0,0.0,-4.0049,-4.0049,-3.9733,-3.9553,-3.9711,-4.0021,-4.0216,-4.0216,-4.0285,-4.0531,-4.0842,-4.0615,-4.0699,-4.1127,-4.0078,-3.9421,-3.9188,-3.8152,-3.7371,-3.6815,-3.7147,-3.7147,-3.6952,-3.7282,-3.7385,-3.7326,-3.6723,-3.6492,-3.6492,-3.6492,-3.6492,-3.6492,-3.6492,-3.6492,-3.6722,-3.8061,-3.8508,-3.8769,-4.0108,-4.0524,-4.0524,-4.0524,-4.0715,-4.1091,-4.1393,-4.2029,-4.2645,-4.3317,-4.3781,-4.4162,-4.4514,-4.4587,-4.4587,-4.4587,-4.4587,-4.4587,-4.4587,-4.4587,-4.4587,-4.4587,-4.4587,-4.4587,-4.4587,-4.4587,-4.4587,-4.4587,-4.4587,-4.4587,-4.4587,-4.4587,-4.472,-4.4944,-4.5178,-4.5407,-4.5699,-4.6196,-4.6753,-4.7302,-4.7554,-4.7717,-4.7717,-4.7717,-4.7717,-4.7717,-4.7717,-4.7717,0.0,0.0,0.0,0.0,0.0,-4.1945,0.0,0.0,0.0,0.0,0.0,0.0,0.0,0.0,0.0,0.0,0.0,0.0,0.0,0.0,0.0,0.0,0.0,0.0,0.0,0.0,-3.9809,-3.9681,-3.995,-4.0161,-4.0191,-4.082,-4.1194,-4.1194,-4.126,-4.1494,-4.2062,-4.1575,-4.1625,-4.2316,-4.101,-4.0393,-4.0383,-3.9088,-3.8139,-3.7578,-3.8067,-3.801,-3.7637,-3.8124,-3.8278,-3.8165,-3.7222,-3.6831,-3.6831,-3.6723,-3.6723,-3.6831,-3.6723,-3.6862,-3.7235,-3.8463,-3.9038,-3.9458,-4.0562,-4.0904,-4.0904,-4.0904,-4.1276,-4.1706,-4.1836,-4.2707,-4.3512,-4.3706,-4.4179,-4.4587,-4.4587,-4.4587,-4.4587,-4.4587,-4.4587,-4.4587,-4.4587,-4.4587,-4.4587,-4.4587,-4.4587,-4.4587,-4.4587,-4.4451,-4.435,-4.435,-4.435,-4.435,-4.435,-4.458,-4.4906,-4.525,-4.5494,-4.58,-4.6262,-4.6753,-4.7258,-4.7699,-4.7717,-4.7717,-4.7717,-4.7717,-4.7717,-4.7717,-4.7717,-4.7717,0.0,0.0,0.0,0.0,-4.3508,0.0,0.0,0.0,0.0,0.0,0.0,0.0,0.0,0.0,0.0,0.0,0.0,0.0,0.0,0.0,0.0,0.0,0.0,0.0,0.0,0.0,0.0,-3.9753,-4.0977,-4.1494,-4.094,-4.1494,-4.1869,-4.1869,-4.2078,-4.2205,-4.2269,-4.2332,-4.2395,-4.2442,-4.1711,-4.1015,-4.0399,-3.9606,-3.8893,-3.8165,-3.8294,-3.8278,-3.8165,-3.8278,-3.8278,-3.8294,-3.8181,-3.8124,-3.801,-3.7519,-3.7621,-3.801,-3.746,-3.8093,-3.9205,-3.9919,-4.1013,-4.2059,-4.222,-4.2269,-4.2269,-4.2269,-4.2332,-4.252,-4.3136,-4.3393,-4.3647,-4.431,-4.457,-4.4587,-4.4587,-4.4587,-4.4587,-4.4587,-4.4587,-4.4587,-4.4587,-4.4587,-4.4587,-4.4587,-4.4587,-4.4587,-4.4587,-4.3978,-4.3555,-4.3555,-4.3555,-4.3555,-4.3555,-4.4588,-4.5267,-4.5303,-4.6213,-4.6753,-4.6817,-4.7302,-4.7657,-4.7717,-4.7717,-4.7717,-4.7717,-4.7717,-4.7717,-4.7717,-4.7717,-4.7717,0.0,0.0,0.0,0.0,0.0,0.0,-4.2585,0.0,-4.3075,0.0,0.0,0.0,0.0,0.0,0.0,0.0,0.0,0.0,0.0,0.0,0.0,0.0,0.0,0.0,0.0,0.0,0.0,0.0,0.0,-4.1613,-4.1869,-4.2504,-4.2876,-4.2876,-4.2937,-4.3213,-4.3604,-4.3273,-4.3273,-4.3722,-4.2974,-4.2242,-4.151,-4.0779,-3.983,-3.8849,-3.9189,-3.9135,-3.8849,-3.9189,-3.9348,-3.9348,-3.9348,-3.8903,-3.8294,-3.801,-3.8067,-3.8343,-3.8492,-3.8947,-3.9599,-4.0658,-4.1695,-4.252,-4.252,-4.252,-4.252,-4.252,-4.2769,-4.3136,-4.3453,-4.3839,-4.4236,-4.4514,-4.4587,-4.4587,-4.4587,-4.4587,-4.4587,-4.4587,-4.4587,-4.4587,-4.4587,-4.4587,-4.4587,-4.4587,-4.4587,-4.4587,-4.4587,-4.4299,-4.4096,-4.4096,-4.4357,-4.4485,-4.4485,-4.5269,-4.5918,-4.6213,-4.6954,-4.7363,-4.7363,-4.7572,-4.7717,-4.7717,-4.7717,-4.7717,-4.7717,-4.7717,-4.7717,-4.7717,-4.7717,-4.7717,-4.6241,0.0,0.0,0.0,0.0,0.0,0.0,0.0,0.0,0.0,0.0,0.0,0.0,0.0,0.0,0.0,0.0,0.0,0.0,0.0,0.0,0.0,0.0,0.0,0.0,0.0,0.0,0.0,-4.0945,0.0,-4.215,-4.2798,-4.3165,-4.3165,-4.3365,-4.3729,-4.4265,-4.3946,-4.4047,-4.457,-4.4012,-4.3234,-4.2269,-4.1745,-4.0759,-3.947,-3.9918,-3.985,-3.947,-3.9918,-4.007,-4.007,-4.007,-3.9558,-3.8778,-3.8629,-3.8799,-3.9155,-3.9527,-4.0026,-4.068,-4.197,-4.2665,-4.3092,-4.3092,-4.3092,-4.3092,-4.3092,-4.341,-4.3781,-4.3781,-4.4179,-4.4587,-4.4587,-4.4587,-4.4587,-4.4587,-4.4587,-4.4587,-4.4587,-4.4587,-4.4587,-4.4587,-4.4587,-4.4587,-4.4587,-4.4587,-4.4587,-4.4587,-4.4401,-4.4265,-4.4265,-4.4727,-4.501,-4.501,-4.5778,-4.6548,-4.7107,-4.7468,-4.7717,-4.7717,-4.7717,-4.7717,-4.7717,-4.7717,-4.7717,-4.7717,-4.7717,-4.7717,-4.7717,-4.7717,-4.7717,0.0,0.0,0.0,-4.4919,0.0,0.0,0.0,0.0,-4.457,0.0,0.0,0.0,0.0,0.0,-4.4096,-4.2608,-4.2946,0.0,0.0,0.0,0.0,0.0,0.0,0.0,0.0,0.0,0.0,-4.0055,-4.1432,-4.198,-4.1352,-4.1942,-4.2354,-4.2354,-4.301,-4.3399,-4.3453,-4.4198,-4.457,-4.4587,-4.4553,-4.3758,-4.2286,-4.2269,-4.1457,-4.007,-4.007,-4.007,-4.007,-4.007,-4.007,-4.007,-4.007,-4.0087,-3.9969,-3.9365,-3.999,-4.0997,-4.05,-4.1598,-4.3415,-4.4209,-4.4497,-4.4514,-4.4514,-4.4514,-4.4514,-4.4514,-4.457,-4.457,-4.457,-4.457,-4.4587,-4.4587,-4.4587,-4.4587,-4.4587,-4.4587,-4.4587,-4.4587,-4.4587,-4.4587,-4.4587,-4.4587,-4.4587,-4.4587,-4.4587,-4.4587,-4.4587,-4.3927,-4.3453,-4.3453,-4.3886,-4.4234,-4.4234,-4.5839,-4.7107,-4.7657,-4.7699,-4.7717,-4.7717,-4.7717,-4.7717,-4.7717,-4.7717,-4.7717,-4.7717,-4.7717,-4.7717,-4.7717,-4.7717,-4.7717,0.0,0.0,-4.5838,-4.4823,0.0,0.0,0.0,0.0,0.0,0.0,0.0,0.0,0.0,0.0,-4.3639,-4.3115,-4.2422,-4.1779,0.0,0.0,0.0,0.0,0.0,0.0,0.0,0.0,0.0,-4.0205,-4.103,-4.1673,0.0,-4.2179,-4.2286,-4.2286,-4.254,-4.2912,-4.342,-4.3673,-4.3809,-4.3809,-4.3809,-4.3031,-4.1576,-4.1576,-4.1018,-4.007,-4.007,-4.007,-4.007,-4.007,-4.007,-4.007,-4.007,-4.0392,-4.0815,-4.0608,-4.0811,-4.1287,-4.2088,-4.3153,-4.4231,-4.4485,-4.4587,-4.4587,-4.4587,-4.4587,-4.4587,-4.4587,-4.4587,-4.4587,-4.4587,-4.4587,-4.4587,-4.4587,-4.4587,-4.4587,-4.4587,-4.4587,-4.4587,-4.4587,-4.4587,-4.4587,-4.4587,-4.4587,-4.4587,-4.4587,-4.4587,-4.472,-4.5035,-4.4849,-4.4783,-4.513,-4.5681,-4.597,-4.597,-4.6856,-4.7511,-4.7699,-4.7717,-4.7717,-4.7717,-4.7717,-4.7717,-4.7717,-4.7717,-4.7717,-4.7717,-4.7717,-4.7717,-4.7717,-4.7717,-4.7717,-4.7005,-4.6261,0.0,-4.4773,-4.4587,0.0,-4.4587,0.0,0.0,0.0,0.0,0.0,0.0,0.0,-4.3335,-4.3064,-4.1999,-4.1119,0.0,-4.0392,0.0,0.0,0.0,0.0,0.0,0.0,-4.0171,-4.0224,-4.0574,-4.1018,0.0,0.0,-4.1508,-4.1508,-4.1762,-4.2134,-4.2625,-4.2895,-4.3014,-4.3014,-4.3014,-4.2371,-4.1204,-4.1204,-4.0798,-4.007,-4.007,-4.007,-4.007,-4.007,-4.007,-4.0104,-4.0375,-4.0781,-4.1204,-4.1204,-4.1542,-4.2168,-4.3403,-4.4164,-4.4587,-4.4587,-4.4587,-4.4587,-4.4587,-4.4587,-4.4587,-4.4587,-4.4587,-4.4587,-4.4587,-4.4587,-4.4587,-4.4587,-4.4587,-4.4587,-4.4587,-4.4587,-4.4587,-4.4587,-4.4626,-4.4682,-4.4682,-4.4869,-4.4961,-4.4852,-4.4906,-4.5089,-4.5511,-4.5648,-4.5833,-4.6147,-4.666,-4.7017,-4.7151,-4.7511,-4.7717,-4.7759,-4.7759,-4.7801,-4.7824,-4.7783,-4.7801,-4.7824,-4.7741,-4.7717,-4.7759,-4.7717,-4.7717,-4.7717,-4.7759,-4.7824]}]]